[[{"header":{"parameterUnit":"m.s-1","parameterCategory":1,"la1":30.6,"la2":28.766,"lo1":-90.7593,"lo2":-88.6598,"dy":0.0162,"dx":0.0183,"nx":116,"ny":114,"refTime":"2024-03-27T12:00:00:Z","depth":0,"parameterNumber":2,"parameterNumberName":"U-component_of_WINDS"},"data":[0.0,0.0,0.0,0.0,0.0,0.0,0.0,0.0,0.0,0.0,0.0,0.0,0.0,0.0,0.0,0.0,0.0,0.0,0.0,0.0,0.0,0.0,0.0,0.0,0.0,0.0,0.0,0.0,0.0,0.0,0.0,0.0,0.0,0.0,0.0,0.0,0.0,0.0,0.0,0.0,0.0,0.0,0.0,0.0,0.0,0.0,0.0,0.0,0.0,0.0,0.0,0.0,0.0,0.0,0.0,0.0,0.0,0.0,0.0,0.0,0.0,0.0,0.0,0.0,0.0,0.0,0.0,0.0,0.0,0.0,0.0,0.0,0.0,0.0,0.0,0.0,0.0,0.0,0.0,0.0,0.0,0.0,0.0,0.0,0.0,0.0,0.0,0.0,0.0,0.0,0.0,0.0,0.0,0.0,0.0,0.0,0.0,0.0,0.0,0.0,0.0,0.0,0.0,0.0,0.0,0.0,0.0,0.0,0.0,0.0,0.0,0.0,0.0,0.0,0.0,0.0,0.0,0.0,0.0,0.0,0.0,0.0,0.0,0.0,0.0,0.0,0.0,0.0,0.0,0.0,0.0,0.0,0.0,0.0,0.0,0.0,0.0,0.0,0.0,0.0,0.0,0.0,0.0,0.0,0.0,0.0,0.0,0.0,0.0,0.0,0.0,0.0,0.0,0.0,0.0,0.0,0.0,0.0,0.0,0.0,0.0,0.0,0.0,0.0,0.0,0.0,0.0,0.0,0.0,0.0,0.0,0.0,0.0,0.0,0.0,0.0,0.0,0.0,0.0,0.0,0.0,0.0,0.0,0.0,0.0,0.0,0.0,0.0,0.0,0.0,0.0,0.0,0.0,0.0,0.0,0.0,0.0,0.0,0.0,0.0,0.0,0.0,0.0,0.0,0.0,0.0,0.0,0.0,0.0,0.0,0.0,0.0,0.0,0.0,0.0,0.0,0.0,0.0,0.0,0.0,0.0,0.0,0.0,0.0,0.0,0.0,0.0,0.0,0.0,0.0,0.0,0.0,0.0,0.0,0.0,0.0,0.0,0.0,0.0,0.0,0.0,0.0,0.0,0.0,0.0,0.0,0.0,0.0,0.0,0.0,0.0,0.0,0.0,0.0,0.0,0.0,0.0,0.0,0.0,0.0,0.0,0.0,0.0,0.0,0.0,0.0,0.0,0.0,0.0,0.0,0.0,0.0,0.0,0.0,0.0,0.0,0.0,0.0,0.0,0.0,0.0,0.0,0.0,0.0,0.0,0.0,0.0,0.0,0.0,0.0,0.0,0.0,0.0,0.0,0.0,0.0,0.0,0.0,0.0,0.0,0.0,0.0,0.0,0.0,0.0,0.0,0.0,0.0,0.0,0.0,0.0,0.0,0.0,0.0,0.0,0.0,0.0,0.0,0.0,0.0,0.0,0.0,0.0,0.0,0.0,0.0,0.0,0.0,0.0,0.0,0.0,0.0,0.0,0.0,0.0,0.0,0.0,0.0,0.0,0.0,0.0,0.0,0.0,0.0,0.0,0.0,0.0,0.0,0.0,0.0,0.0,0.0,0.0,0.0,0.0,0.0,0.0,0.0,0.0,0.0,0.0,0.0,0.0,0.0,0.0,0.0,0.0,0.0,0.0,0.0,0.0,0.0,0.0,0.0,0.0,0.0,0.0,0.0,0.0,0.0,0.0,0.0,0.0,0.0,0.0,0.0,0.0,0.0,0.0,0.0,0.0,0.0,0.0,0.0,0.0,0.0,0.0,0.0,0.0,0.0,0.0,0.0,0.0,0.0,0.0,0.0,0.0,0.0,0.0,0.0,0.0,0.0,0.0,0.0,0.0,0.0,0.0,0.0,0.0,0.0,0.0,0.0,0.0,0.0,0.0,0.0,0.0,0.0,0.0,0.0,0.0,0.0,0.0,0.0,0.0,0.0,0.0,0.0,0.0,0.0,0.0,0.0,0.0,0.0,0.0,0.0,0.0,0.0,0.0,0.0,0.0,0.0,0.0,0.0,0.0,0.0,0.0,0.0,0.0,0.0,0.0,0.0,0.0,0.0,0.0,0.0,0.0,0.0,0.0,0.0,0.0,0.0,0.0,0.0,0.0,0.0,0.0,0.0,0.0,0.0,0.0,0.0,0.0,0.0,0.0,0.0,0.0,0.0,0.0,0.0,0.0,0.0,0.0,0.0,0.0,0.0,0.0,0.0,0.0,0.0,0.0,0.0,0.0,0.0,0.0,0.0,0.0,0.0,0.0,0.0,0.0,0.0,0.0,0.0,0.0,0.0,0.0,0.0,0.0,0.0,0.0,0.0,0.0,0.0,0.0,0.0,0.0,0.0,0.0,0.0,0.0,0.0,0.0,0.0,0.0,0.0,0.0,0.0,0.0,0.0,0.0,0.0,0.0,0.0,0.0,0.0,0.0,0.0,0.0,0.0,0.0,0.0,0.0,0.0,0.0,0.0,0.0,0.0,0.0,0.0,0.0,0.0,0.0,0.0,0.0,0.0,0.0,0.0,0.0,0.0,0.0,0.0,0.0,0.0,0.0,0.0,0.0,0.0,0.0,0.0,0.0,0.0,0.0,0.0,0.0,0.0,0.0,0.0,0.0,0.0,0.0,0.0,0.0,0.0,0.0,0.0,0.0,0.0,0.0,0.0,0.0,0.0,0.0,0.0,0.0,0.0,0.0,0.0,0.0,0.0,0.0,0.0,0.0,0.0,0.0,0.0,0.0,0.0,0.0,0.0,0.0,0.0,0.0,0.0,0.0,0.0,0.0,0.0,0.0,0.0,0.0,0.0,0.0,0.0,0.0,0.0,0.0,0.0,0.0,0.0,0.0,0.0,0.0,0.0,0.0,0.0,0.0,0.0,0.0,0.0,0.0,0.0,0.0,0.0,0.0,0.0,0.0,0.0,0.0,0.0,0.0,0.0,0.0,0.0,0.0,0.0,0.0,0.0,0.0,0.0,0.0,0.0,0.0,0.0,0.0,0.0,0.0,0.0,0.0,0.0,0.0,0.0,0.0,0.0,0.0,0.0,0.0,0.0,0.0,0.0,0.0,0.0,0.0,0.0,0.0,0.0,0.0,0.0,0.0,0.0,0.0,0.0,0.0,0.0,0.0,0.0,0.0,0.0,0.0,0.0,0.0,0.0,0.0,0.0,0.0,0.0,0.0,0.0,0.0,0.0,0.0,0.0,0.0,0.0,0.0,0.0,0.0,0.0,0.0,0.0,0.0,0.0,0.0,0.0,0.0,0.0,0.0,0.0,0.0,0.0,0.0,0.0,0.0,0.0,0.0,0.0,0.0,0.0,0.0,0.0,0.0,0.0,0.0,0.0,0.0,0.0,0.0,0.0,0.0,0.0,0.0,0.0,0.0,0.0,0.0,0.0,0.0,0.0,0.0,0.0,0.0,0.0,0.0,0.0,0.0,0.0,0.0,0.0,0.0,0.0,0.0,0.0,0.0,0.0,0.0,0.0,0.0,0.0,0.0,0.0,0.0,0.0,0.0,0.0,0.0,0.0,0.0,0.0,0.0,0.0,0.0,0.0,0.0,0.0,0.0,0.0,0.0,0.0,0.0,0.0,0.0,0.0,0.0,0.0,0.0,0.0,0.0,0.0,0.0,0.0,0.0,0.0,0.0,0.0,0.0,0.0,0.0,0.0,0.0,0.0,0.0,0.0,0.0,0.0,0.0,0.0,0.0,0.0,0.0,0.0,0.0,0.0,0.0,0.0,0.0,0.0,0.0,0.0,0.0,0.0,0.0,0.0,0.0,0.0,0.0,0.0,0.0,0.0,0.0,0.0,0.0,0.0,0.0,0.0,0.0,0.0,0.0,0.0,0.0,0.0,0.0,0.0,0.0,0.0,0.0,0.0,0.0,0.0,0.0,0.0,0.0,0.0,0.0,0.0,0.0,0.0,0.0,0.0,0.0,0.0,0.0,0.0,0.0,0.0,0.0,0.0,0.0,0.0,0.0,0.0,0.0,0.0,0.0,0.0,0.0,0.0,0.0,0.0,0.0,0.0,0.0,0.0,0.0,0.0,0.0,0.0,0.0,0.0,0.0,0.0,0.0,0.0,0.0,0.0,0.0,0.0,0.0,0.0,0.0,0.0,0.0,0.0,0.0,0.0,0.0,0.0,0.0,0.0,0.0,0.0,0.0,0.0,0.0,0.0,0.0,0.0,0.0,0.0,0.0,0.0,0.0,0.0,0.0,0.0,0.0,0.0,0.0,0.0,0.0,0.0,0.0,0.0,0.0,0.0,0.0,0.0,0.0,0.0,0.0,0.0,0.0,0.0,0.0,0.0,0.0,0.0,0.0,0.0,0.0,0.0,0.0,0.0,0.0,0.0,0.0,0.0,0.0,0.0,0.0,0.0,0.0,0.0,0.0,0.0,0.0,0.0,0.0,0.0,0.0,0.0,0.0,0.0,0.0,0.0,0.0,0.0,0.0,0.0,0.0,0.0,0.0,0.0,0.0,0.0,0.0,0.0,0.0,0.0,0.0,0.0,0.0,0.0,0.0,0.0,0.0,0.0,0.0,0.0,0.0,0.0,0.0,0.0,0.0,0.0,0.0,0.0,0.0,0.0,0.0,0.0,0.0,0.0,0.0,0.0,0.0,0.0,0.0,0.0,0.0,0.0,0.0,0.0,0.0,0.0,0.0,0.0,0.0,0.0,0.0,0.0,0.0,0.0,0.0,0.0,0.0,0.0,0.0,0.0,0.0,0.0,0.0,0.0,0.0,0.0,0.0,0.0,0.0,0.0,0.0,0.0,0.0,0.0,0.0,0.0,0.0,0.0,0.0,0.0,0.0,0.0,0.0,0.0,0.0,0.0,0.0,0.0,0.0,0.0,0.0,0.0,0.0,0.0,0.0,0.0,0.0,0.0,0.0,0.0,0.0,0.0,0.0,0.0,0.0,0.0,0.0,0.0,0.0,0.0,0.0,0.0,0.0,0.0,0.0,0.0,0.0,0.0,0.0,0.0,0.0,0.0,0.0,0.0,0.0,0.0,0.0,0.0,0.0,0.0,0.0,0.0,0.0,0.0,0.0,0.0,0.0,0.0,0.0,0.0,0.0,0.0,0.0,0.0,0.0,0.0,0.0,0.0,0.0,0.0,0.0,0.0,0.0,0.0,0.0,0.0,0.0,0.0,0.0,0.0,0.0,0.0,0.0,0.0,0.0,0.0,0.0,0.0,0.0,0.0,0.0,0.0,0.0,0.0,0.0,0.0,0.0,0.0,0.0,0.0,0.0,0.0,0.0,0.0,0.0,0.0,0.0,0.0,0.0,0.0,0.0,0.0,0.0,0.0,0.0,0.0,0.0,0.0,0.0,0.0,0.0,0.0,0.0,0.0,0.0,0.0,0.0,0.0,0.0,0.0,0.0,0.0,0.0,0.0,0.0,0.0,0.0,0.0,0.0,0.0,0.0,0.0,0.0,0.0,0.0,0.0,0.0,0.0,0.0,0.0,0.0,0.0,0.0,0.0,0.0,0.0,0.0,0.0,0.0,0.0,0.0,0.0,0.0,0.0,0.0,0.0,0.0,0.0,0.0,0.0,0.0,0.0,0.0,0.0,0.0,0.0,0.0,0.0,0.0,0.0,0.0,0.0,0.0,0.0,0.0,0.0,0.0,0.0,0.0,0.0,0.0,0.0,0.0,0.0,0.0,0.0,0.0,0.0,0.0,0.0,0.0,0.0,0.0,0.0,0.0,0.0,0.0,0.0,0.0,0.0,0.0,0.0,0.0,0.0,0.0,0.0,0.0,0.0,0.0,0.0,0.0,0.0,0.0,0.0,0.0,0.0,0.0,0.0,0.0,0.0,0.0,0.0,0.0,0.0,0.0,0.0,0.0,0.0,0.0,0.0,0.0,0.0,0.0,0.0,0.0,0.0,0.0,0.0,0.0,0.0,0.0,0.0,0.0,0.0,0.0,0.0,0.0,0.0,0.0,0.0,0.0,0.0,0.0,0.0,0.0,0.0,0.0,0.0,0.0,0.0,0.0,0.0,0.0,0.0,0.0,0.0,0.0,0.0,0.0,0.0,0.0,0.0,0.0,0.0,0.0,0.0,0.0,0.0,0.0,0.0,0.0,0.0,5.9498,6.0148,0.0,0.0,0.0,0.0,0.0,0.0,0.0,0.0,0.0,0.0,0.0,0.0,0.0,0.0,0.0,0.0,0.0,0.0,0.0,0.0,0.0,0.0,0.0,4.3816,4.4662,4.5509,4.5586,4.5586,4.5586,0.0,0.0,0.0,0.0,0.0,4.5586,4.5586,4.5586,4.5586,4.5586,4.5586,4.5586,4.5438,4.5553,4.5974,0.0,0.0,0.0,0.0,0.0,0.0,0.0,0.0,0.0,0.0,0.0,0.0,0.0,0.0,0.0,0.0,0.0,0.0,0.0,0.0,0.0,0.0,0.0,0.0,0.0,0.0,0.0,0.0,0.0,0.0,0.0,0.0,0.0,0.0,0.0,0.0,0.0,0.0,0.0,0.0,0.0,0.0,0.0,0.0,0.0,0.0,0.0,0.0,0.0,0.0,0.0,0.0,0.0,0.0,0.0,0.0,0.0,0.0,0.0,0.0,0.0,0.0,0.0,0.0,0.0,0.0,0.0,0.0,0.0,0.0,6.145,6.0756,0.0,0.0,0.0,0.0,0.0,0.0,0.0,0.0,0.0,0.0,0.0,0.0,0.0,0.0,0.0,0.0,0.0,0.0,0.0,0.0,0.0,4.197,4.3008,4.3701,4.4509,4.5509,4.5586,4.5586,4.5586,4.5586,0.0,0.0,4.5586,4.5586,4.5586,4.5586,4.5586,4.5586,4.574,4.5817,4.5817,4.5839,4.6266,4.6961,4.7333,0.0,0.0,0.0,0.0,0.0,0.0,0.0,0.0,0.0,0.0,0.0,0.0,0.0,0.0,0.0,0.0,0.0,0.0,0.0,0.0,0.0,0.0,0.0,0.0,0.0,0.0,0.0,0.0,0.0,0.0,0.0,0.0,0.0,0.0,0.0,0.0,0.0,0.0,0.0,0.0,0.0,0.0,0.0,0.0,0.0,0.0,0.0,0.0,0.0,0.0,0.0,0.0,0.0,0.0,0.0,0.0,0.0,0.0,0.0,0.0,0.0,0.0,0.0,6.4922,6.6015,6.7148,6.7265,6.6889,6.5985,6.4838,6.2656,6.0,6.1836,0.0,0.0,0.0,0.0,0.0,0.0,0.0,0.0,0.0,0.0,0.0,0.0,0.0,0.0,0.0,0.0,0.0,0.0,0.0,4.1277,4.2931,4.3201,4.3893,4.547,4.5586,4.5586,4.5586,4.5586,4.5586,4.5586,4.5586,4.5586,4.5586,4.5586,4.5586,4.5586,4.6355,4.674,4.6778,4.8164,4.9099,4.9463,4.6404,4.6592,4.9079,0.0,0.0,0.0,0.0,0.0,0.0,0.0,0.0,0.0,0.0,0.0,0.0,0.0,0.0,0.0,0.0,0.0,0.0,0.0,0.0,0.0,0.0,0.0,0.0,0.0,0.0,0.0,0.0,0.0,0.0,0.0,0.0,0.0,0.0,0.0,0.0,0.0,0.0,0.0,0.0,0.0,5.2448,5.319,0.0,0.0,0.0,0.0,0.0,0.0,0.0,0.0,0.0,0.0,0.0,0.0,0.0,6.3047,6.457,6.6992,6.7969,6.7539,6.9101,6.9219,6.8047,6.875,6.8631,6.7919,6.914,0.0,6.2461,6.2031,0.0,0.0,0.0,0.0,0.0,0.0,0.0,0.0,0.0,0.0,0.0,0.0,0.0,0.0,0.0,0.0,0.0,0.0,0.0,0.0,0.0,4.3508,4.4278,4.547,4.6047,4.6124,4.5624,4.6047,4.6124,4.5624,4.5586,4.5586,4.5586,4.5586,4.6047,4.7009,4.7894,4.8548,4.9048,4.9562,5.0138,5.0683,4.8401,4.8201,4.9495,4.92,0.0,0.0,0.0,0.0,0.0,0.0,0.0,0.0,0.0,0.0,0.0,0.0,0.0,0.0,0.0,0.0,0.0,0.0,0.0,0.0,0.0,0.0,0.0,0.0,0.0,0.0,0.0,0.0,0.0,0.0,0.0,0.0,0.0,0.0,0.0,0.0,0.0,0.0,0.0,5.2734,5.3828,5.3164,5.4757,5.5225,0.0,0.0,0.0,0.0,0.0,0.0,0.0,0.0,0.0,6.4531,6.5469,6.6758,6.8437,6.957,7.0703,7.1797,7.2539,7.3008,7.3281,7.3633,7.3594,7.3281,7.4023,7.2226,6.8594,6.6289,6.4219,6.2383,0.0,0.0,0.0,0.0,6.2422,6.3125,0.0,0.0,0.0,0.0,0.0,0.0,0.0,0.0,0.0,0.0,0.0,0.0,4.3278,4.3932,4.4739,4.5855,4.6547,4.6624,4.597,4.6317,4.6278,4.5624,4.5586,4.5586,4.5586,4.6009,4.6855,4.8086,4.9394,5.0471,5.1318,5.1015,5.1553,5.27,5.1663,5.0919,5.0496,5.0427,4.9701,4.8556,0.0,0.0,0.0,0.0,0.0,0.0,0.0,0.0,0.0,0.0,0.0,0.0,0.0,0.0,0.0,0.0,0.0,0.0,0.0,0.0,0.0,0.0,0.0,0.0,0.0,0.0,0.0,0.0,0.0,0.0,0.0,0.0,0.0,0.0,0.0,0.0,0.0,5.4336,5.5351,5.375,5.6328,5.7278,0.0,0.0,0.0,0.0,0.0,0.0,6.3242,6.4805,6.664,6.8789,6.9726,7.0976,7.2695,7.289,7.3984,7.5898,7.5898,7.6562,7.7851,7.7851,7.7851,7.7851,7.7851,7.6601,7.4336,7.0664,6.7265,6.4297,6.4062,6.3594,6.3086,6.3515,6.4219,6.4922,0.0,0.0,0.0,0.0,0.0,0.0,0.0,0.0,0.0,0.0,0.0,4.1508,4.397,4.4278,4.497,4.6701,4.6894,4.6894,4.6855,4.6086,4.5624,4.5586,4.5586,4.5586,4.5586,4.7163,4.8009,4.8086,5.0587,5.2241,5.3087,5.3028,5.4374,5.6643,5.5797,5.4511,5.2892,5.061,5.0199,5.104,5.0302,0.0,0.0,0.0,0.0,0.0,0.0,0.0,0.0,0.0,0.0,0.0,0.0,0.0,0.0,0.0,0.0,0.0,0.0,0.0,0.0,0.0,0.0,0.0,0.0,0.0,0.0,0.0,0.0,0.0,0.0,0.0,0.0,0.0,0.0,0.0,0.0,0.0,0.0,5.6484,6.0117,0.0,0.0,0.0,0.0,6.0195,6.2578,6.5156,6.7734,6.875,7.0781,7.4101,7.5078,7.6367,7.8086,7.8867,7.9297,7.9453,7.9453,7.9492,7.957,7.957,7.957,7.957,7.957,7.9062,7.789,7.3594,7.0273,6.7851,6.7031,6.668,6.6523,6.5742,6.6015,6.664,0.0,0.0,0.0,0.0,0.0,3.8931,4.0277,4.0508,4.0816,4.17,4.2008,4.3124,4.5701,4.597,4.6663,4.8355,4.8009,4.7471,4.6932,4.6624,4.6201,4.5624,4.5586,4.5855,4.6432,4.8086,4.9471,5.0548,5.2587,5.428,5.5626,5.5626,5.6434,5.7819,5.7511,5.7052,5.632,5.3795,5.2217,5.1266,5.0112,4.9892,0.0,0.0,0.0,0.0,0.0,0.0,0.0,0.0,0.0,0.0,0.0,0.0,0.0,0.0,0.0,0.0,0.0,0.0,0.0,0.0,0.0,0.0,0.0,0.0,0.0,0.0,0.0,0.0,0.0,0.0,0.0,0.0,0.0,0.0,0.0,0.0,0.0,6.1445,6.4844,0.0,6.3476,6.457,6.5625,6.6133,6.8086,7.0156,7.2226,7.3672,7.5508,7.7812,7.8164,7.918,8.0937,8.0117,8.0273,8.1367,8.0781,8.082,8.1367,8.1367,8.1367,8.1367,8.1367,8.0898,8.0,7.8437,7.5312,7.1406,7.0508,6.918,6.7773,6.7969,6.8594,6.9219,0.0,0.0,0.0,0.0,3.7815,3.8469,3.9892,4.0315,4.0816,4.17,4.2547,4.4085,4.6624,4.7163,4.8009,4.9702,4.8779,4.7855,4.7355,4.6778,4.6201,4.5624,4.5893,4.6432,4.7278,4.951,5.1356,5.2779,5.4818,5.6472,5.7819,5.755,5.805,5.9127,5.8858,5.8858,5.9011,5.7011,5.4732,5.2311,5.0835,5.0779,5.1241,0.0,0.0,0.0,0.0,0.0,0.0,0.0,0.0,0.0,0.0,0.0,0.0,0.0,0.0,0.0,0.0,0.0,0.0,0.0,0.0,0.0,0.0,0.0,0.0,0.0,0.0,0.0,0.0,0.0,0.0,0.0,0.0,0.0,0.0,0.0,6.3984,6.543,6.8906,7.0351,6.8398,6.9258,7.0273,7.1094,7.2773,7.4492,7.6211,7.7695,7.914,8.0547,8.0586,8.1133,8.2304,8.1133,8.1172,8.2304,8.1719,8.1758,8.2304,8.2304,8.2304,8.2304,8.2304,8.1953,8.1445,8.1445,7.9062,7.5351,7.4219,7.2344,7.043,7.0976,7.1523,7.1875,0.0,0.0,0.0,3.6584,3.743,3.8277,3.9161,3.9969,4.0816,4.1739,4.2585,4.4124,4.674,4.7702,4.8856,5.0625,4.9125,4.8086,4.8086,4.6509,4.5586,4.5624,4.6471,4.7355,4.8202,5.151,5.3664,5.4587,5.7088,5.8704,5.9473,5.8704,5.9204,6.0742,5.9935,6.0012,6.0742,5.9858,5.7627,5.4511,5.2702,5.251,5.3126,0.0,0.0,0.0,0.0,0.0,0.0,0.0,0.0,0.0,0.0,0.0,0.0,0.0,0.0,0.0,0.0,0.0,0.0,0.0,0.0,0.0,0.0,0.0,0.0,0.0,0.0,0.0,0.0,0.0,0.0,0.0,0.0,0.0,5.914,6.3789,6.7383,6.8359,7.2187,7.375,7.1211,7.2539,7.3906,7.4726,7.6406,7.8086,7.9687,8.0586,8.1445,8.2265,8.2304,8.2304,8.2304,8.2304,8.2304,8.2304,8.2304,8.2304,8.2304,8.2304,8.2304,8.2304,8.2304,8.2304,8.2304,8.2304,8.1289,7.957,7.793,7.6211,7.4648,7.4648,7.4609,7.4453,0.0,0.0,3.5738,3.6584,3.743,3.8277,3.9161,3.9969,4.1046,4.2547,4.347,4.5432,4.924,4.9279,4.9971,5.2318,4.9817,4.8086,4.8086,4.6509,4.5893,4.6509,4.7317,4.874,5.0818,5.301,5.4857,5.6319,5.7665,5.8704,5.9511,5.9281,5.9742,6.0781,6.055,6.0589,6.0742,5.9858,5.8973,5.7857,5.4972,5.3933,5.3895,0.0,0.0,0.0,0.0,0.0,0.0,0.0,0.0,0.0,0.0,0.0,0.0,0.0,0.0,0.0,0.0,0.0,0.0,0.0,0.0,0.0,0.0,0.0,0.0,0.0,0.0,0.0,0.0,0.0,0.0,0.0,5.8164,6.1836,6.3594,6.7187,7.0937,7.4336,7.6836,7.8008,7.7305,7.8242,7.8984,7.9219,8.0273,8.1094,8.1562,8.1797,8.2031,8.2304,8.2304,8.2304,8.2304,8.2304,8.2304,8.2304,8.2304,8.2304,8.2304,8.2304,8.2304,8.2304,8.2304,8.2304,8.2304,8.2304,8.164,8.0547,7.9453,7.7578,7.5547,7.5547,7.4726,7.3711,0.0,3.5493,3.5661,3.6122,3.7199,3.8161,3.8661,3.9738,4.0969,4.2354,4.4201,4.6471,4.9279,4.9817,5.0548,5.201,4.9356,4.7586,4.7586,4.6701,4.6509,4.7355,4.8894,5.0741,5.2933,5.5049,5.6742,5.805,5.8934,5.9588,6.005,6.0435,6.0858,6.1358,6.1704,6.1666,6.132,6.0781,6.0396,5.9858,5.7511,5.6588,5.6357,5.4164,5.3857,5.4472,5.3626,5.351,5.3549,5.2202,0.0,0.0,0.0,0.0,0.0,0.0,0.0,0.0,0.0,0.0,0.0,0.0,0.0,0.0,0.0,0.0,0.0,0.0,0.0,0.0,0.0,0.0,0.0,0.0,6.1719,6.5859,6.9414,7.164,7.4336,7.832,7.9961,8.0781,8.0781,8.125,8.1523,8.1523,8.1992,8.2304,8.2304,8.2304,8.2461,8.2812,8.25,8.2461,8.2851,8.2851,8.2851,8.2851,8.3203,8.3203,8.2851,8.2851,8.2656,8.2304,8.2304,8.2304,8.2304,8.2304,8.1797,8.0898,0.0,0.0,0.0,0.0,7.5586,7.4453,0.0,3.5493,3.5532,3.5622,3.6969,3.8046,3.8123,3.9469,4.0854,4.1816,4.4662,4.7009,4.8009,4.9471,5.0471,5.0664,4.8355,4.6894,4.6894,4.6971,4.7471,4.8471,5.0894,5.3049,5.4895,5.7242,5.8819,5.9665,6.0435,6.0858,6.0973,6.1743,6.2127,6.2281,6.2974,6.2897,6.2243,6.2243,6.1781,6.1012,6.0242,5.9781,5.9319,5.7627,5.7473,5.805,5.7165,5.6011,5.478,5.3818,0.0,0.0,0.0,0.0,0.0,0.0,0.0,0.0,0.0,0.0,0.0,0.0,0.0,0.0,0.0,0.0,0.0,0.0,0.0,0.0,0.0,0.0,0.0,0.0,6.5234,6.9648,7.539,7.6367,7.7656,8.0781,8.1836,8.2304,8.2304,8.2304,8.2304,8.2304,8.2304,8.2304,8.2304,8.2304,0.0,0.0,0.0,8.2773,8.375,8.3633,8.3633,8.375,8.4531,8.4492,8.375,8.3633,8.3164,8.2422,8.2344,8.2304,8.2304,8.2304,8.1797,8.0898,7.9922,7.914,7.8398,7.7539,7.664,7.5898,0.0,3.5493,3.5699,3.6353,3.7315,3.8238,3.8931,3.9854,4.1046,4.2624,4.4008,4.5624,4.7855,4.8394,4.9163,5.0587,4.8355,4.6894,4.6894,4.7509,4.8856,5.1087,5.2972,5.5126,5.7511,5.8665,5.9704,6.055,6.0704,6.1166,6.1858,6.2012,6.2435,6.3089,6.3243,6.3205,6.3089,6.3089,6.2974,6.282,6.2627,6.132,5.9319,5.7627,5.7088,5.7126,5.6242,5.6665,5.7319,5.5742,5.6049,5.6665,5.4241,5.2664,0.0,0.0,0.0,0.0,0.0,0.0,0.0,0.0,0.0,0.0,0.0,0.0,0.0,0.0,0.0,0.0,0.0,0.0,0.0,6.4258,6.8906,7.3437,7.7422,7.914,8.0508,8.1875,8.2187,8.2304,8.2304,8.2304,8.2304,8.2304,8.2304,8.2304,8.2304,8.2304,8.2695,8.3554,8.2734,8.3047,8.4648,8.3945,8.3945,8.4648,8.4804,0.0,8.4609,8.3906,8.3515,8.332,8.2617,8.2304,8.2304,8.2304,8.1797,8.0859,7.9336,7.8633,7.8398,7.7539,7.664,7.5898,0.0,3.5493,3.5622,3.6045,3.7161,3.8161,3.8584,3.97,4.1123,4.2854,4.4162,4.5432,4.6701,4.724,4.7509,4.7509,4.674,4.6624,4.7471,4.9086,5.0971,5.3126,5.528,5.7203,5.8858,6.0165,6.1012,6.1435,6.1858,6.2281,6.2704,6.3166,6.3551,6.3974,6.4397,6.4359,6.3935,6.3935,6.3705,6.332,6.332,6.2551,6.132,6.0473,5.9896,5.9473,5.905,5.8896,5.8704,5.7434,5.728,5.728,5.5164,5.3895,5.2972,0.0,0.0,0.0,0.0,0.0,0.0,0.0,0.0,0.0,0.0,0.0,0.0,0.0,0.0,5.582,5.7539,0.0,6.4414,6.875,7.2344,7.582,7.9258,8.0469,8.1328,8.2187,8.2304,8.2304,8.2304,8.2304,8.2304,8.2304,8.2695,8.2773,8.2304,8.3125,8.3789,8.4258,8.3828,8.4219,8.5547,8.5117,8.5351,8.6211,8.6211,8.6211,8.6172,8.5312,8.4414,8.3594,8.3125,8.2695,8.2304,8.2304,8.2031,8.1523,8.0234,7.9258,7.8437,7.8008,7.7305,7.6562,0.0,3.5493,3.5545,3.5699,3.7007,3.8046,3.8238,3.9508,4.1046,4.2624,4.4008,4.497,4.5316,4.597,4.5817,4.4432,4.524,4.6547,4.824,5.0741,5.3087,5.5164,5.7511,5.9165,5.9973,6.1512,6.232,6.232,6.3166,6.3628,6.382,6.4666,6.5166,6.5359,6.6051,6.6013,6.5359,6.5359,6.4936,6.4282,6.4128,6.4128,6.4282,6.3935,6.3205,6.232,6.2166,6.0858,5.9204,5.8896,5.7973,5.6819,5.578,5.5241,5.4511,5.2125,5.2164,0.0,0.0,0.0,0.0,0.0,0.0,0.0,0.0,0.0,5.3432,5.4723,5.6406,5.8476,6.1406,6.4375,6.7851,7.2539,7.5039,7.7461,8.0586,8.1133,8.1523,8.2226,8.2304,8.2383,8.2539,8.2539,8.2617,8.2773,8.3476,8.3554,8.2851,8.414,8.4961,8.5156,8.5,8.5469,8.6679,8.6367,8.6797,8.7969,8.7656,8.7578,8.7695,8.6679,8.5351,8.3828,8.3476,8.2969,8.2304,8.2304,8.2304,8.2226,8.1523,8.0312,7.8984,7.8789,7.8281,7.7656,0.0,3.5493,3.5738,3.643,3.7353,3.8277,3.9046,3.9931,4.0854,4.1816,4.2124,4.2777,4.4278,4.4547,4.4509,4.4316,4.5817,4.7471,4.9125,5.1625,5.4511,5.7742,5.9588,6.0935,6.1781,6.2704,6.3166,6.3166,6.4051,6.4859,6.5628,6.6436,6.7244,6.7975,6.809,6.809,6.7975,6.7975,6.7936,6.7782,6.6974,6.7128,6.7667,6.6167,6.4589,6.3089,6.2358,6.0512,5.8665,6.005,5.8934,5.7242,5.8511,5.7934,5.6357,5.4587,5.3126,5.1818,5.0818,5.0702,5.1356,5.3549,5.301,5.2972,0.0,0.0,5.6324,5.8239,5.9961,6.1484,6.2656,6.6211,6.9922,7.2812,7.6055,7.8867,8.0742,8.1679,8.2187,8.2304,8.2304,8.2617,8.3398,8.3437,8.3789,8.4531,8.4687,8.4726,8.4609,8.4804,8.5234,8.6015,8.5312,8.6015,8.8398,8.6953,8.7383,8.9687,8.8203,8.7851,8.8515,8.6914,8.5664,8.4687,8.3125,8.2383,8.2304,8.2304,8.2304,8.2304,8.2187,8.1562,8.0625,7.9844,7.9492,7.9336,0.0,0.0,3.5738,3.6584,3.743,3.8123,3.8469,3.9662,4.0816,4.17,4.2239,4.2816,4.3547,4.3585,4.3778,4.4239,4.5893,4.8048,5.0702,5.3241,5.6165,5.9627,6.0896,6.1935,6.2781,6.3628,6.432,6.482,6.5667,6.6513,6.7359,6.7705,6.8052,6.8398,6.8398,6.8398,6.8398,6.8398,6.8398,6.8359,6.8013,6.7782,6.7513,6.6359,6.4512,6.2474,6.1627,6.0012,0.0,5.7934,5.7473,5.7126,5.7819,5.7203,5.6049,5.4912,5.372,5.2587,5.1741,5.1914,5.2492,0.0,5.3933,5.4801,5.7366,5.7784,5.8359,6.0895,6.2773,6.4687,6.7031,7.0195,7.3281,0.0,7.8359,8.039,8.1601,8.207,8.2109,8.1601,8.1992,8.2656,8.3515,8.3594,8.3945,8.4844,8.5351,8.5429,8.4922,8.5859,8.6367,8.6211,8.6328,8.6914,8.8008,8.7773,8.8437,9.0,8.8789,8.8633,8.9414,8.7734,8.6211,8.4804,8.3047,8.2304,8.2304,8.2304,8.2304,8.2304,8.2304,8.207,8.164,8.0781,8.0156,7.957,0.0,0.0,0.0,3.6622,3.7623,3.8354,3.8354,3.9585,4.0816,4.17,4.2354,4.2931,4.3393,4.3431,4.3662,4.4239,4.5663,4.7971,5.1356,5.3933,5.6973,6.0627,6.1858,6.2935,6.4012,6.4859,6.582,6.6936,6.7744,6.859,6.9436,6.9706,6.9821,6.9821,6.9821,6.9821,6.9783,6.9552,6.9436,6.9398,6.8936,6.8244,6.7282,6.5743,6.3589,6.1281,6.0435,5.8588,5.6395,5.5357,5.5126,5.5318,5.5818,5.5703,5.522,5.4259,5.3398,5.2605,5.1913,5.255,0.0,5.4087,5.5357,5.684,5.8466,5.9312,6.059,6.3473,6.5273,6.7305,7.0469,7.3203,7.5742,7.8125,7.9922,8.1289,8.2187,8.2109,8.1719,8.1094,8.1328,8.2031,8.3125,8.3672,8.4336,8.5195,8.6054,8.6289,8.5664,8.6797,8.7226,8.6562,8.7383,8.7969,8.8203,8.8789,8.9609,9.0703,8.9609,8.9375,8.9922,8.7773,8.6094,8.4804,8.3047,8.2304,8.2304,8.2304,8.2304,8.2304,8.2304,8.2304,8.2226,8.1601,8.082,7.9922,0.0,0.0,0.0,0.0,3.8123,3.9238,3.9238,3.9969,4.0816,4.17,4.1816,4.247,4.4085,4.4239,4.4278,4.4316,4.5124,4.7086,5.051,5.3126,5.6395,6.0627,6.2397,6.4089,6.5782,6.659,6.7859,6.959,7.0398,7.1245,7.2091,7.2937,7.336,7.336,7.336,7.336,7.3283,7.2437,7.2091,7.1937,7.0321,6.9129,6.8013,6.4666,6.182,5.9473,5.8665,5.5665,5.2241,5.301,5.2202,5.1164,5.2818,5.393,5.4331,5.2644,5.1711,5.1131,5.0895,5.2099,5.3972,5.628,5.755,5.8957,6.1819,6.2399,6.3232,6.6168,6.75,6.8906,7.1484,7.4101,7.6445,7.8203,7.9922,8.1289,8.2187,8.1562,8.1015,8.1015,8.0273,8.0469,0.0,8.3867,8.5234,8.6094,8.6953,8.7461,8.7422,8.7461,8.75,8.7461,8.8242,8.9062,8.9922,8.9961,9.082,9.25,9.0781,8.9961,8.9883,8.6523,8.4961,8.4804,8.3047,8.2304,8.2304,8.2304,8.2304,8.2304,8.2304,8.2304,8.2304,8.2265,8.1719,8.0859,0.0,0.0,0.0,0.0,0.0,3.8815,3.9931,4.0315,4.0816,4.17,4.2777,0.0,0.0,0.0,0.0,0.0,4.597,4.7432,4.9702,5.2741,5.5895,5.9011,6.182,6.4128,6.5859,6.6667,6.8205,7.0514,7.0783,7.1629,7.3091,7.336,7.3514,7.3514,7.3514,7.3514,7.3437,7.2552,7.186,7.1206,6.9513,6.8013,6.6436,6.3589,6.0204,5.6703,0.0,5.2779,5.0971,5.0125,4.9817,4.9933,5.0606,5.1009,5.1201,5.0836,5.1318,5.2141,5.2524,5.4701,5.7082,5.8357,6.0165,6.2204,6.4446,6.5485,6.6379,6.7929,6.775,6.789,6.9805,7.1406,7.3398,7.6289,7.8672,8.0625,8.2109,8.2031,8.1445,8.0273,8.0898,0.0,0.0,0.0,0.0,8.6054,8.6992,8.7734,8.8281,8.8281,8.8554,8.914,8.8359,8.8594,9.0,9.0,9.0273,9.0859,8.9687,8.8554,8.7422,8.5703,8.457,8.3984,8.2812,8.2304,8.2304,8.2304,8.2304,8.2304,8.2304,8.2304,8.2304,8.2304,8.1758,8.0976,0.0,0.0,0.0,0.0,0.0,0.0,0.0,0.0,0.0,0.0,0.0,0.0,0.0,0.0,0.0,0.0,0.0,4.7163,4.8817,5.1279,5.3933,5.6819,5.9011,6.1127,6.3128,6.3397,6.5013,6.8167,6.8167,6.9552,7.2168,7.2437,7.2591,7.2591,7.3245,7.3322,7.2976,7.1783,7.0783,6.9783,6.7205,6.4974,6.2858,6.0012,5.6626,0.0,5.0933,4.9586,4.8702,4.7586,4.7778,4.8509,4.8606,4.9083,4.971,5.0207,5.1583,5.3185,5.452,5.6869,5.9288,6.0911,6.2781,6.4705,6.6551,6.7304,6.7775,6.8333,6.7325,6.6713,6.8045,6.9101,7.0742,7.3594,7.6211,7.8594,8.0664,8.0937,8.0742,8.0234,8.0898,8.1054,0.0,0.0,0.0,8.5547,8.6836,8.7851,8.8672,8.8984,8.9414,8.9961,8.9258,8.9375,9.0469,9.0781,9.0781,9.0469,8.8984,8.7851,8.7031,8.5234,8.4297,8.3984,8.2812,8.2304,8.2304,8.2304,8.2304,8.2304,8.2304,8.2304,8.2304,8.2304,8.1953,8.1406,0.0,0.0,0.0,0.0,0.0,0.0,0.0,0.0,0.0,0.0,0.0,0.0,0.0,0.0,0.0,0.0,0.0,0.0,4.7855,4.8856,5.0856,5.4087,5.4395,5.5665,5.8127,5.7396,5.9011,6.3128,6.3166,6.5282,6.9321,7.0129,7.0514,7.0591,7.2245,7.2514,7.1629,7.0014,6.8783,6.759,6.3474,6.0319,5.7742,5.4395,5.1587,4.9202,4.7548,4.6355,4.5586,4.5586,4.6201,4.6971,4.7048,4.8292,4.9925,5.0972,5.2511,5.4386,5.6802,5.8726,6.0786,6.3911,6.5436,6.6513,6.8218,6.8013,6.7479,6.7486,6.6206,6.5275,0.0,0.0,6.8515,7.0351,7.2969,7.5742,7.8398,7.8789,7.9414,0.0,0.0,0.0,0.0,0.0,0.0,8.4844,8.6562,8.789,8.8789,8.9609,9.0078,9.0117,9.0859,9.1289,9.1367,9.2109,9.2031,9.1133,8.8672,8.7851,8.8398,8.5156,8.4062,8.4687,8.3008,8.2304,8.2304,8.2304,8.2304,8.2304,8.2304,8.2304,8.2304,8.2304,8.2304,8.2187,0.0,0.0,0.0,0.0,0.0,0.0,0.0,0.0,0.0,0.0,0.0,0.0,0.0,0.0,0.0,0.0,0.0,0.0,4.6201,4.8202,4.9779,5.0664,5.3126,5.5088,5.6357,5.678,5.8127,6.0473,6.1127,6.232,6.4051,6.4859,6.5243,6.5282,6.5705,6.5782,6.5513,6.4474,6.3166,6.1589,5.9242,5.7165,5.5241,5.3049,5.1048,4.924,4.8163,4.6855,4.5586,4.5586,4.6624,4.8068,4.8721,5.0164,5.203,5.4188,5.5902,5.773,6.0287,6.2592,6.4641,6.609,6.759,6.8706,6.8602,6.8564,6.7821,6.5311,6.3122,6.1312,0.0,0.0,0.0,6.914,7.4101,0.0,8.1836,8.2851,0.0,8.2969,0.0,8.3398,8.2969,8.3515,0.0,0.0,8.7265,8.8437,9.0508,9.0859,9.1289,9.1914,9.0898,9.0976,9.2265,9.1211,9.0234,8.9336,8.8086,8.6914,8.5859,8.4961,8.3984,8.2929,8.25,8.2304,8.2304,8.2304,8.2304,8.2304,8.2304,8.2304,8.2304,8.2304,8.2304,8.2265,0.0,0.0,0.0,0.0,0.0,0.0,0.0,0.0,0.0,0.0,0.0,0.0,0.0,0.0,0.0,0.0,0.0,0.0,0.0,4.6932,4.7894,4.8279,4.9779,5.0971,5.1818,5.1933,5.301,5.5088,5.5549,5.6819,5.8781,5.9588,5.9973,6.0012,6.0781,6.0896,6.0473,5.9627,5.8511,0.0,0.0,5.2856,5.151,4.9779,4.8548,4.7663,4.7163,4.6855,4.6817,4.7586,0.0,5.0106,5.1355,5.3238,5.5407,5.8004,5.935,6.0671,6.3617,6.541,6.6705,6.7936,6.8706,6.8821,6.7705,6.6961,6.5563,6.2183,5.9931,5.8155,5.6764,5.9433,6.3008,0.0,0.0,0.0,8.1367,8.2969,8.3984,0.0,8.5156,0.0,8.5312,8.5742,8.6758,0.0,8.8242,8.8984,9.1172,9.164,9.2109,9.2578,9.164,9.1601,9.2578,9.0859,8.9765,8.9258,8.7304,8.6054,8.5429,8.4297,8.3437,8.2851,8.2461,8.2304,8.2304,8.2304,8.2304,8.2304,8.2304,8.2304,8.2304,8.2304,8.2304,8.2304,0.0,0.0,0.0,0.0,0.0,0.0,0.0,0.0,0.0,0.0,4.3393,0.0,0.0,0.0,0.0,0.0,0.0,0.0,0.0,0.0,4.5932,4.6701,4.6009,4.5932,4.6701,4.597,4.6663,4.8894,4.9009,5.0587,5.351,5.4318,5.4703,5.4741,5.628,5.6511,5.578,5.5011,5.4241,5.3241,5.024,4.8548,4.7625,0.0,4.5586,4.5624,4.574,4.6778,4.8432,5.051,5.1818,5.2895,5.4626,5.6973,5.9627,6.2204,6.2935,6.3628,6.6744,6.759,6.7975,6.9475,6.9129,6.7936,6.6167,6.4424,6.2233,5.8757,5.696,5.572,5.4783,5.7585,6.1055,6.414,0.0,7.5078,7.9726,8.1875,8.3867,8.625,8.664,8.6992,8.7773,8.7812,8.8476,9.0039,8.9453,8.9804,9.1562,9.2265,9.2617,9.2617,9.2617,9.2539,9.2422,9.082,8.9922,8.9804,8.6601,8.539,8.5937,8.3554,8.289,8.3554,8.2695,8.2383,8.2461,8.2344,8.2304,8.2304,8.2304,8.2304,8.2304,8.2304,8.2304,8.2304,0.0,0.0,0.0,0.0,0.0,0.0,0.0,0.0,0.0,0.0,4.397,4.3547,0.0,0.0,0.0,0.0,0.0,0.0,0.0,0.0,0.0,4.5817,4.5663,4.5663,4.5817,4.5663,4.5817,4.624,4.6971,4.7625,4.824,4.9048,4.9433,4.9433,4.974,4.9779,4.9625,4.9471,4.8971,4.8163,4.7586,4.6817,4.6009,4.5701,0.0,0.0,4.6432,4.7278,4.8702,5.2549,5.4857,5.6434,5.8088,6.0896,6.4012,6.6551,6.7321,6.7744,6.9706,7.0244,7.0321,7.0629,6.9552,6.7821,6.5562,6.3267,0.0,5.6517,5.5005,5.3908,5.2351,5.5501,6.0117,6.5547,7.0898,7.664,8.3086,8.5508,8.6992,0.0,8.8906,8.9414,8.9531,8.957,0.0,0.0,9.0937,9.1601,9.3359,9.289,9.2617,9.2617,9.2617,9.2265,9.1523,9.0508,8.9648,8.8906,8.6914,8.5664,8.5078,8.3906,8.3476,8.3554,8.2695,8.2695,8.332,8.2617,8.2304,8.2304,8.2304,8.2304,8.2304,8.2304,8.2304,8.2304,0.0,0.0,0.0,0.0,0.0,0.0,0.0,4.2451,4.3547,4.6509,4.6201,4.5701,4.5663,4.5624,4.5586,0.0,0.0,0.0,0.0,0.0,0.0,0.0,4.5586,4.5586,4.5586,4.5586,4.5586,4.5586,0.0,4.6201,4.624,4.6624,4.6817,4.6817,4.6817,4.6817,4.6817,4.6817,4.6586,4.6201,4.6201,4.624,4.6278,0.0,0.0,0.0,0.0,4.874,4.9894,5.2856,5.5818,5.8665,6.0819,6.3512,6.6244,6.7898,6.9013,6.9975,7.1245,7.1898,7.2129,7.1706,6.9629,6.6859,6.3628,0.0,0.0,5.3273,5.2533,5.2266,5.1016,5.4297,5.875,6.3437,6.7773,7.3164,8.0547,8.3047,8.5273,8.832,8.9883,9.0859,9.1328,9.1367,9.1523,9.1953,9.1992,9.2344,9.3164,9.2812,9.2617,9.2617,9.2617,9.2383,9.1992,9.0664,8.9804,8.9336,8.7226,8.5976,8.5547,8.4219,8.3594,8.3554,8.2695,8.2539,8.289,8.2461,8.2304,8.2304,8.2304,8.2304,8.2304,8.2304,8.2304,8.2304,0.0,0.0,0.0,0.0,0.0,0.0,4.3725,4.3866,4.497,4.8702,4.8894,4.8432,4.7778,4.6778,4.597,0.0,0.0,0.0,0.0,0.0,0.0,0.0,0.0,0.0,4.5586,0.0,0.0,4.5586,4.5586,0.0,0.0,0.0,0.0,0.0,4.5586,4.5586,4.5586,4.5586,4.5586,0.0,0.0,4.6278,0.0,0.0,0.0,0.0,0.0,4.9971,5.0971,5.2856,5.5703,5.8934,6.145,6.4512,6.7321,6.8205,6.9783,7.1398,7.2283,7.3129,7.3514,7.2476,6.9629,6.6051,6.1939,5.8319,0.0,5.101,5.0733,5.1016,5.0547,5.3359,5.707,6.1055,6.4297,6.918,7.7344,8.0273,8.332,8.8125,9.039,0.0,9.2539,9.2617,0.0,9.2617,9.2617,9.2617,9.2617,9.2773,9.2773,9.2617,9.2617,9.2617,9.2617,9.1054,9.0273,9.0234,8.7695,8.6484,8.6406,8.4687,8.3867,8.3828,8.2969,8.2695,8.2851,8.2656,8.2695,8.2851,8.2656,8.2578,8.2578,8.2383,8.2304,8.2304,0.0,0.0,0.0,0.0,0.0,0.0,4.4472,4.5208,4.7124,5.2087,5.1395,5.0433,5.0356,4.8856,4.7278,0.0,0.0,0.0,0.0,0.0,0.0,0.0,0.0,0.0,0.0,0.0,0.0,4.5586,4.5586,0.0,0.0,0.0,0.0,0.0,0.0,4.5586,4.5586,4.5586,0.0,0.0,0.0,0.0,0.0,0.0,0.0,0.0,0.0,4.9971,5.1087,0.0,0.0,5.5605,5.8158,6.2834,6.7552,6.8424,0.0,0.0,7.3342,7.4063,7.4207,7.2591,6.9629,6.6051,6.1939,0.0,5.4192,5.1606,5.0694,5.0508,5.1172,5.2266,5.4961,6.0742,6.3281,6.7812,7.7187,8.1328,8.4687,8.8281,0.0,0.0,9.2578,9.2617,9.2617,9.2617,9.2617,9.2617,9.2617,9.3359,9.3437,9.2617,9.2617,9.2617,9.2617,9.164,9.1172,9.1133,8.8594,8.7383,8.7304,8.5586,8.4765,8.4726,8.3867,8.3945,8.4609,8.3828,8.3945,8.457,8.3789,8.3476,8.3398,8.2578,8.2304,8.2304,0.0,0.0,0.0,0.0,0.0,0.0,4.4863,4.5071,4.6663,5.1741,5.2279,5.201,5.1471,5.0818,4.9086,4.5855,0.0,0.0,0.0,0.0,0.0,0.0,0.0,0.0,0.0,0.0,4.5855,4.6394,4.6394,0.0,0.0,0.0,0.0,0.0,0.0,4.5586,4.5624,4.6163,0.0,0.0,0.0,0.0,0.0,0.0,0.0,0.0,0.0,0.0,5.0856,5.1856,5.2972,0.0,5.4489,5.7812,0.0,0.0,6.8955,7.2028,7.3966,7.5716,7.6592,7.4899,7.0744,6.6205,6.2708,0.0,5.2785,5.0953,5.0403,5.0312,5.0625,5.1367,5.3398,5.789,5.8789,6.1836,7.0312,7.3555,7.75,8.4062,8.7148,8.9765,0.0,0.0,9.2617,9.2617,9.2617,9.2617,9.2617,9.2929,9.2969,9.2617,9.2617,9.2617,9.2617,9.1758,9.1289,9.1289,8.9219,8.8203,8.8164,8.6445,8.539,8.4883,8.4531,8.4297,8.414,8.4297,8.4609,8.4804,8.3945,8.3594,8.3476,8.2617,8.2304,8.2304,0.0,0.0,0.0,0.0,0.0,4.1703,4.5107,4.5509,4.6971,5.1356,5.2433,5.2587,5.1972,5.1241,4.9586,4.6586,4.5893,0.0,0.0,0.0,0.0,0.0,0.0,0.0,0.0,0.0,4.6278,4.6894,4.7163,4.724,0.0,0.0,4.6586,4.597,0.0,0.0,0.0,0.0,0.0,0.0,0.0,0.0,0.0,0.0,0.0,0.0,0.0,0.0,0.0,0.0,0.0,5.2569,5.1987,5.3802,5.7104,0.0,6.6717,7.068,7.3532,7.5994,7.74,7.5976,7.1332,6.6269,0.0,0.0,5.2341,5.0852,5.0351,5.0273,5.0508,5.1211,5.2773,5.5742,5.6367,5.8906,6.5898,6.8789,7.2812,7.9961,0.0,8.5976,9.0273,9.1875,9.2617,9.2617,9.2617,9.2617,9.2617,9.2617,9.2617,9.2617,9.2617,9.2617,9.2617,9.1992,9.1562,9.1289,8.9804,8.8945,8.8633,8.7226,8.6094,8.5273,8.5273,8.4922,8.4414,8.5039,8.5273,8.5195,8.4336,8.3828,8.3476,8.2617,8.2304,8.2304,0.0,0.0,0.0,0.0,0.0,0.0,4.5201,4.7009,4.8971,5.1587,5.1933,5.1933,5.1895,4.9663,4.8125,4.8086,4.6547,0.0,0.0,0.0,0.0,0.0,0.0,0.0,0.0,0.0,4.6894,4.6894,4.7702,4.8086,4.8086,4.7278,4.6894,4.6894,0.0,0.0,0.0,0.0,0.0,0.0,0.0,0.0,5.0702,0.0,0.0,0.0,0.0,0.0,0.0,0.0,0.0,0.0,0.0,5.178,5.3583,5.8732,6.3765,6.8386,7.1804,7.4358,7.5822,7.4938,7.0997,6.6216,6.2131,5.7373,5.334,5.1737,5.0742,5.043,5.125,5.2109,5.3242,5.5039,5.7461,6.0976,6.6172,6.9844,7.3281,0.0,7.875,8.1484,8.5859,9.0117,9.2617,9.2617,9.2617,9.2617,9.2617,9.2617,9.2617,9.2617,9.2617,9.2617,9.2617,9.2578,9.2148,9.1289,9.039,8.9531,8.8672,8.7851,8.6992,8.6172,8.6172,8.6172,8.6172,8.6172,8.6172,8.6094,8.5234,8.4375,8.3476,8.2617,8.2304,8.2304,0.0,0.0,0.0,0.0,0.0,0.0,4.3585,4.4355,4.5778,4.8894,4.9817,5.0433,5.101,4.9817,4.8971,4.8971,4.6894,0.0,0.0,0.0,0.0,0.0,0.0,0.0,0.0,4.6432,4.774,4.951,5.0317,5.101,5.1587,5.0741,4.9702,4.8586,4.8009,4.774,0.0,0.0,0.0,0.0,0.0,5.0433,5.0702,0.0,0.0,0.0,0.0,0.0,0.0,0.0,0.0,0.0,0.0,0.0,0.0,5.4879,5.9728,6.4856,6.7648,7.0153,7.1628,7.0209,6.6931,6.3246,6.0293,5.6141,5.2605,5.1623,5.0742,5.0469,5.125,5.1641,5.2969,5.6484,5.8281,6.0586,6.457,6.9101,0.0,7.8359,8.5117,8.9726,0.0,9.1797,9.2617,9.2617,9.2617,9.2617,9.2617,9.2617,9.2617,9.2617,9.2617,9.2617,9.2617,9.1992,9.1562,9.1289,8.9804,8.8984,8.8672,8.7851,8.7031,8.6211,8.6836,8.6758,8.6211,8.6211,8.6211,8.6054,8.457,8.3828,8.3476,8.2617,8.2304,8.2304,0.0,0.0,0.0,0.0,0.0,0.0,4.2431,4.3162,4.4432,4.6855,4.7625,4.8548,5.0048,4.8856,4.8355,4.9317,4.7355,0.0,0.0,0.0,0.0,0.0,0.0,0.0,4.6086,4.6932,4.8586,5.1164,5.2318,5.3318,5.4126,5.3587,5.2279,5.0317,4.9779,4.9202,0.0,0.0,0.0,0.0,5.0433,5.051,5.024,0.0,0.0,0.0,0.0,0.0,0.0,0.0,0.0,0.0,0.0,0.0,0.0,0.0,5.5997,6.0098,6.3885,6.6769,6.8423,6.7383,6.4331,6.1048,5.8921,5.5129,5.1928,5.1429,5.0672,5.036,5.117,5.1555,5.2755,5.5937,5.7656,5.9961,6.3789,6.8476,0.0,7.9062,8.6367,0.0,9.0234,9.164,9.2617,9.2617,9.2617,9.2617,9.2617,9.2617,9.2617,9.2617,9.2617,9.2617,9.2617,9.1758,9.1133,9.0781,8.9375,8.8554,8.8242,8.7734,8.7187,8.6719,8.7265,8.6992,0.0,8.6211,8.582,8.5117,8.4023,8.3398,8.3047,8.25,8.2304,8.2304,0.0,0.0,0.0,0.0,0.0,0.0,0.0,4.3162,4.4509,4.5393,4.5547,4.6509,4.8856,4.7009,4.6586,4.9086,4.7894,0.0,0.0,0.0,0.0,0.0,0.0,0.0,4.6894,4.774,4.9471,5.2087,5.3818,5.5126,5.5972,5.5895,5.4549,5.2087,5.201,5.1048,0.0,0.0,0.0,0.0,5.0048,5.0202,0.0,0.0,0.0,0.0,0.0,0.0,0.0,0.0,0.0,0.0,0.0,0.0,0.0,0.0,0.0,0.0,0.0,6.3594,6.5478,6.545,6.2565,5.9278,5.757,5.4167,0.0,5.1099,5.049,5.0271,5.1144,5.1869,5.2784,5.4169,5.6327,5.9414,6.3789,6.8515,0.0,0.0,8.414,8.6679,8.6484,9.0195,9.2617,9.2617,9.2617,9.2617,9.2617,9.2617,9.2617,9.2617,9.2617,9.2578,9.25,9.164,9.0781,8.9883,8.9023,8.8203,8.75,8.75,8.75,8.75,8.75,8.6992,8.6211,8.6133,8.5156,8.3672,8.3554,8.3047,8.2383,8.2304,8.2304,8.2304,0.0,0.0,0.0,0.0,0.0,0.0,0.0,0.0,0.0,0.0,4.5201,4.5817,4.6432,4.597,4.6355,0.0,0.0,0.0,0.0,0.0,0.0,0.0,0.0,0.0,4.6894,4.8355,5.0664,5.3895,5.5588,5.7165,5.8588,5.7973,5.6319,5.3857,5.3203,5.1972,0.0,0.0,0.0,0.0,5.0548,5.0587,0.0,0.0,0.0,0.0,5.0702,5.0702,0.0,0.0,0.0,0.0,0.0,0.0,0.0,0.0,5.1703,5.2801,5.43,0.0,5.7594,5.7047,5.6157,5.4989,0.0,5.2091,0.0,0.0,0.0,5.0586,5.2059,5.2404,5.3683,5.7381,5.891,6.0937,6.4765,7.3555,0.0,8.6015,8.9844,9.1289,8.9297,9.1211,9.2617,9.2617,9.2617,9.2617,9.2617,9.2617,9.2617,9.2617,9.2617,9.2265,9.1601,9.0742,8.9883,8.8984,8.8164,8.7695,8.75,8.75,8.75,8.75,8.75,8.6992,8.6133,8.5469,8.4961,8.4453,8.3125,8.289,8.3203,8.2539,8.2304,8.2304,0.0,0.0,0.0,0.0,0.0,0.0,0.0,0.0,0.0,0.0,4.447,4.5163,4.5547,4.5586,4.6124,0.0,0.0,0.0,0.0,0.0,0.0,0.0,0.0,4.6163,4.7432,4.8355,5.0664,5.4511,5.578,5.7473,5.9473,5.905,5.7473,5.4972,5.2933,5.1318,0.0,0.0,0.0,5.0125,5.0548,0.0,0.0,0.0,0.0,0.0,5.0702,5.0702,0.0,5.1125,5.1241,5.1241,0.0,0.0,0.0,0.0,5.1145,5.1588,5.1742,5.34,5.5039,5.4687,5.3984,5.3164,5.2226,0.0,0.0,0.0,0.0,5.0028,5.1702,5.2545,5.4083,5.7387,5.9255,6.2616,6.9373,0.0,8.3594,8.8672,9.0976,9.1875,9.125,9.2031,9.2617,9.2617,9.2617,9.2617,9.2617,9.2617,9.2617,9.2617,9.2617,9.2187,9.1328,9.0429,8.957,8.8672,8.789,8.75,8.75,8.75,8.75,8.75,8.75,8.6797,8.5586,8.5547,8.4804,8.3633,8.3125,8.2929,8.3008,8.2929,8.2656,8.2422,0.0,0.0,0.0,0.0,0.0,0.0,0.0,0.0,0.0,0.0,0.0,0.0,0.0,0.0,0.0,0.0,0.0,0.0,0.0,0.0,0.0,0.0,4.5663,4.6432,4.8279,4.8317,5.0356,5.4511,5.5549,5.7242,5.9511,5.9781,5.8396,5.5549,5.2472,5.051,4.9663,0.0,5.0279,4.9663,5.0394,0.0,0.0,0.0,0.0,0.0,0.0,0.0,0.0,5.151,5.1741,5.1741,5.1741,0.0,0.0,0.0,0.0,0.0,5.1376,5.3219,5.4867,5.4711,5.3653,5.2605,5.2343,0.0,0.0,0.0,0.0,0.0,0.0,5.3014,0.0,5.7011,5.992,6.5414,7.5466,7.9609,8.3672,8.9336,9.0234,9.0859,9.2109,9.2422,9.2617,9.2617,9.2617,9.2539,9.2422,9.2539,9.2539,9.2422,9.2539,9.2187,9.1328,9.0429,8.9492,8.8515,8.7812,8.75,8.75,8.75,8.75,8.75,8.75,8.6601,8.5156,8.5742,8.4687,8.2734,8.3203,8.3047,8.2578,8.3164,8.3008,8.2695,0.0,0.0,0.0,0.0,0.0,0.0,0.0,0.0,0.0,0.0,0.0,0.0,0.0,0.0,0.0,0.0,0.0,0.0,0.0,0.0,0.0,4.674,4.597,4.674,4.9163,4.9202,5.0933,5.4511,5.678,5.8434,5.9511,6.1012,5.955,5.5626,5.3664,5.1933,5.051,5.0625,5.0625,5.051,5.0625,0.0,0.0,0.0,0.0,0.0,0.0,0.0,0.0,5.0818,5.0894,5.0894,5.0894,0.0,0.0,0.0,0.0,0.0,5.2531,5.3703,5.3652,5.2189,5.2189,5.2175,5.073,0.0,0.0,0.0,0.0,0.0,0.0,5.523,5.7077,0.0,0.0,7.1945,0.0,0.0,8.5703,8.9531,9.1289,9.1719,9.0508,9.1719,9.2617,9.2617,9.2617,9.2265,9.1523,9.2187,9.2265,9.1523,9.2226,9.2187,9.1328,9.0429,8.9219,8.7695,8.7578,8.75,8.75,8.75,8.75,8.75,8.75,8.6914,8.5937,8.5351,8.4844,8.4375,8.3008,8.2851,8.332,8.2734,8.289,8.3437,0.0,0.0,0.0,0.0,0.0,0.0,0.0,0.0,0.0,0.0,0.0,0.0,0.0,0.0,0.0,0.0,0.0,0.0,0.0,0.0,4.8548,4.9548,4.8355,4.8202,4.9356,5.0279,5.2664,5.6549,5.8165,6.0089,6.2204,6.0742,5.8011,5.428,5.2587,5.1164,5.001,5.051,5.0702,5.0702,0.0,0.0,0.0,0.0,0.0,0.0,0.0,0.0,0.0,0.0,5.1356,5.1356,5.1356,0.0,0.0,0.0,0.0,0.0,5.0547,5.178,5.2416,5.2011,5.2935,5.3455,5.1632,0.0,0.0,0.0,0.0,0.0,0.0,0.0,6.1806,6.8238,0.0,7.5455,8.1443,8.3398,8.5625,8.9531,9.0703,9.125,9.1406,9.2148,9.2617,9.2617,9.2148,9.1719,9.1328,9.1679,9.1719,9.1328,9.2148,9.1953,9.0625,9.0195,8.9375,8.8125,8.7695,8.75,8.75,8.75,8.75,8.75,8.75,8.6992,8.6211,8.6289,8.5469,8.4219,8.4336,8.4062,8.3594,8.3672,8.4531,8.5586,0.0,0.0,0.0,0.0,0.0,0.0,0.0,0.0,0.0,0.0,0.0,0.0,0.0,0.0,0.0,0.0,0.0,0.0,0.0,4.8086,4.9048,5.1241,5.0471,5.024,5.0856,5.1972,5.4511,5.8588,6.0012,6.2127,6.482,6.0781,5.7049,5.3703,5.201,5.0702,4.974,5.0433,5.0702,5.0702,0.0,0.0,0.0,0.0,0.0,0.0,0.0,0.0,0.0,0.0,0.0,0.0,0.0,0.0,0.0,4.9989,4.9088,4.8398,4.934,5.0443,5.1567,5.233,5.351,5.4318,5.3723,0.0,0.0,0.0,0.0,0.0,0.0,6.1031,0.0,7.3618,7.5937,7.8454,8.3083,8.4336,8.625,9.0156,9.0625,9.1133,9.2461,9.2617,9.2539,9.2304,9.1679,9.1133,9.0703,9.1094,9.1211,9.1015,9.2031,9.1875,9.0312,9.0312,8.9687,8.8398,8.7773,8.75,8.75,8.75,8.75,8.75,8.75,8.7109,8.6523,8.6992,8.6015,8.4336,8.5469,8.5078,8.4023,8.4883,8.6054,8.6992,0.0,0.0,0.0,0.0,0.0,0.0,0.0,0.0,0.0,0.0,0.0,0.0,0.0,0.0,0.0,0.0,0.0,0.0,0.0,4.8086,4.8548,4.9548,5.0971,5.2818,5.5203,5.4626,5.5972,5.9396,6.2666,6.4782,6.5743,6.2243,5.8781,5.5434,5.378,5.2125,5.0587,5.0664,5.0702,5.0702,5.0702,0.0,0.0,0.0,0.0,0.0,0.0,0.0,0.0,0.0,0.0,0.0,0.0,0.0,4.9682,5.0567,4.9122,4.8005,5.1332,5.1745,5.1438,5.2264,5.2591,0.0,5.6599,5.592,0.0,5.7834,0.0,0.0,0.0,6.4655,7.0153,7.4562,7.8261,8.2342,8.7265,8.8164,8.9336,9.2109,9.2422,9.2461,9.2578,9.2617,9.2265,9.1445,9.1328,9.0586,8.8984,9.0429,9.0937,9.0117,9.1719,9.2148,9.1211,9.1211,9.0,8.7578,8.7539,8.75,8.75,8.75,8.75,8.75,8.75,8.7461,8.7344,8.6601,8.6172,8.5937,8.5273,8.4922,8.4922,8.5781,8.6172,8.6289,0.0,0.0,0.0,0.0,0.0,0.0,0.0,0.0,0.0,0.0,0.0,4.597,4.5624,0.0,0.0,0.0,0.0,0.0,0.0,4.7355,4.8432,5.0856,5.1548,5.2856,5.4895,5.7242,6.0089,6.3474,6.582,6.659,6.5782,6.132,5.7973,5.5588,5.2856,5.1587,5.1395,5.0894,5.0971,5.1395,5.0894,5.0702,0.0,0.0,0.0,0.0,0.0,0.0,0.0,0.0,5.0702,5.0702,5.0702,5.0087,4.9471,4.9875,4.8643,4.751,4.8857,5.0234,5.1509,5.2421,5.3774,0.0,0.0,5.8513,5.9302,6.1396,6.269,0.0,0.0,0.0,7.352,7.7997,8.1259,8.4498,8.808,8.9101,9.0078,9.1601,9.2265,9.2617,9.2617,9.2617,9.2226,9.1367,9.0781,8.9961,8.875,8.9336,8.9531,8.9219,9.0351,9.0547,8.9687,8.9687,8.9219,8.8242,8.8242,8.7969,8.75,8.75,8.75,8.75,8.75,8.75,8.7461,8.7148,8.6679,8.6172,8.5859,8.6054,8.6562,8.6875,8.6992,8.6914,0.0,0.0,0.0,0.0,0.0,0.0,0.0,0.0,4.5586,0.0,0.0,0.0,0.0,4.5855,0.0,0.0,0.0,0.0,4.6855,4.6894,4.8048,5.0587,5.1241,5.2472,5.4472,5.8627,6.2089,6.4705,6.6898,6.6974,6.4974,6.0435,5.7511,5.5972,5.2856,5.1933,5.2664,5.1548,5.1395,5.1856,5.101,5.0702,0.0,0.0,0.0,0.0,0.0,0.0,0.0,0.0,5.051,5.0317,5.0587,5.0279,4.974,4.9471,4.8721,4.7889,4.7633,4.9156,5.1106,5.2292,5.4438,0.0,6.0429,6.1729,6.2952,6.5572,6.6592,0.0,0.0,0.0,0.0,0.0,8.272,8.5834,8.8188,8.9369,9.0234,9.082,9.1406,9.1797,9.1797,9.1797,9.1406,9.0547,8.9922,8.9219,8.8359,8.8554,8.8711,8.8711,8.9531,8.957,8.8711,8.8984,8.8828,8.832,8.8594,8.8398,8.7851,8.7617,8.75,8.75,8.75,8.75,8.75,8.75,8.7148,8.6601,8.6601,8.6953,8.75,8.75,8.75,8.7422,0.0,0.0,0.0,0.0,0.0,0.0,0.0,0.0,4.5586,4.5586,4.6355,0.0,0.0,0.0,0.0,0.0,0.0,0.0,4.6817,4.6894,4.724,4.8048,4.974,5.1856,5.4395,5.8588,6.1204,6.2127,6.5436,6.5743,6.3205,5.9858,5.7819,5.6857,5.4357,5.3664,5.4357,5.2626,5.1895,5.1818,5.101,5.0702,5.0587,0.0,0.0,0.0,0.0,0.0,0.0,0.0,5.0125,4.9548,5.0433,5.0702,5.0548,4.9663,4.949,4.9393,4.8551,4.8932,5.0046,5.1878,5.4142,0.0,6.4994,6.5692,6.6127,7.0606,0.0,6.9304,7.1133,7.2057,0.0,7.6963,8.222,8.6425,8.7892,8.9203,9.0,9.0,9.0,9.0,9.0,9.0,8.9648,8.8789,8.8711,8.8359,8.7539,8.8242,8.8672,8.8672,8.9531,8.957,8.8711,8.9531,8.914,8.7539,8.832,8.8672,8.8672,8.7851,8.75,8.75,8.75,8.75,8.75,8.75,8.75,8.75,8.75,8.75,8.75,8.75,8.75,8.75,0.0,0.0,0.0,0.0,0.0,0.0,0.0,0.0,4.5586,4.5586,4.5817,0.0,0.0,0.0,0.0,0.0,0.0,0.0,4.597,4.597,4.6355,4.724,4.8894,4.9856,5.001,5.4164,5.9127,6.4782,6.4551,6.3435,6.1473,5.805,5.6011,5.5203,5.4434,5.3241,5.1818,5.1895,5.1587,5.1048,5.0779,5.0702,5.0664,0.0,0.0,0.0,0.0,0.0,0.0,0.0,0.0,0.0,5.0433,5.1087,5.1279,4.9817,4.949,4.9296,4.7773,4.8988,0.0,5.2782,5.6927,0.0,0.0,6.7372,0.0,0.0,7.3562,7.2867,7.4742,7.609,0.0,7.9084,8.287,8.6029,8.7212,8.8354,8.9101,8.9101,8.9648,9.0,9.0,9.0,8.9648,8.8789,8.8711,8.8359,8.7539,8.7734,8.7851,8.7851,8.8125,8.8125,8.7851,8.8125,8.8281,8.8359,8.8008,8.7851,8.7851,8.7617,8.75,8.75,8.75,8.75,8.75,8.75,8.75,8.75,8.75,8.75,8.75,8.75,8.75,8.75,0.0,0.0,0.0,0.0,0.0,0.0,4.5547,4.5586,4.5586,4.5586,4.5586,4.5586,0.0,0.0,0.0,4.5586,4.5586,0.0,4.5586,4.5624,4.6047,4.6855,4.7894,4.8971,5.0087,5.401,5.778,6.1358,6.132,6.0435,5.8742,5.7011,5.6126,5.6011,5.6011,5.478,5.2702,5.2856,5.2241,5.1164,5.1164,5.1164,5.1087,0.0,0.0,0.0,0.0,0.0,0.0,0.0,0.0,0.0,4.9817,5.0279,5.0279,4.9644,4.9239,4.9008,4.9028,5.0202,0.0,5.5297,5.9518,6.4263,6.9643,0.0,0.0,0.0,7.6914,7.5856,7.7214,7.7869,0.0,8.0346,8.3349,8.5871,8.6957,8.8011,8.8437,8.7773,8.8476,8.8867,8.8515,8.8789,8.8789,8.8242,8.8203,8.8008,8.7539,8.7187,8.6992,8.6992,8.664,8.6484,8.6484,8.6484,8.6719,8.7187,8.7031,8.6992,8.6992,8.7344,8.75,8.75,8.75,8.75,8.7461,8.7148,8.7187,8.7461,8.7109,8.7187,8.75,8.75,8.75,8.75,0.0,0.0,4.22,4.3047,0.0,0.0,4.547,4.5509,4.5509,4.5586,4.5586,4.5586,0.0,0.0,0.0,4.5624,4.5624,4.5624,4.5624,4.5757,4.6142,4.6891,4.7181,4.9163,5.3126,5.6126,5.6511,5.4203,5.6703,5.7088,5.5472,5.6357,5.7242,5.8088,5.8165,5.7126,5.528,5.4511,5.3164,5.1587,5.1664,5.1625,5.1395,4.9933,0.0,0.0,0.0,0.0,0.0,0.0,0.0,0.0,4.8817,4.8856,4.8471,4.9181,4.8834,4.8757,5.1202,5.2011,0.0,5.8676,6.2275,0.0,7.2789,7.7138,8.0087,8.1261,0.0,7.8396,7.8938,7.8335,7.8622,8.1116,8.368,8.5722,8.6742,8.7819,8.789,8.6367,8.6953,8.7187,8.6406,8.6953,8.7422,8.75,8.7344,8.7304,8.7383,8.6562,8.6094,8.6094,8.5312,8.4883,8.4883,8.4883,8.4883,8.4922,8.5703,8.6094,8.6094,8.707,8.75,8.75,8.7422,8.7422,8.7422,8.664,8.6758,8.7304,8.6523,8.6679,8.7383,8.7383,8.7422,8.75,0.0,0.0,4.3085,4.3893,0.0,0.0,4.5355,4.5009,4.4816,4.5509,4.5586,4.5586,4.5586,4.5586,0.0,4.5757,4.5757,4.5796,4.5834,4.5873,4.6188,4.6964,4.8866,5.0991,5.33,5.2721,5.2221,5.1838,5.4164,5.478,5.378,5.4626,5.5472,5.628,5.6973,5.5588,5.2664,5.1856,5.051,4.8971,4.9663,4.9548,4.8971,4.9279,4.8702,0.0,0.0,0.0,0.0,0.0,0.0,0.0,4.8279,4.9221,4.9875,4.8009,4.84,4.9511,4.9889,5.199,0.0,0.0,6.7705,7.4499,7.7522,8.0014,8.1353,8.0202,8.0481,8.0944,8.1041,8.127,8.1631,8.2247,8.3565,8.4615,8.5081,8.6052,8.6601,8.625,8.6953,8.7422,8.7226,8.6758,8.6758,8.7461,8.6211,8.5742,8.6445,8.5664,8.5195,8.5195,8.5,8.4883,8.4883,8.4883,8.4883,8.4883,8.5078,8.5195,8.5234,8.6797,8.75,8.7461,8.6797,8.6875,8.75,8.7304,8.6914,8.6445,8.6289,8.6328,8.6484,8.6484,8.6914,8.75,0.0,0.0,0.0,0.0,0.0,0.0,0.0,0.0,4.5086,4.5547,4.5586,4.5624,4.568,4.5719,0.0,0.0,4.5858,4.5854,4.5893,4.5951,4.654,4.7774,5.0143,5.1528,5.1662,5.1155,5.0326,4.9219,5.0403,5.1597,5.2684,5.3933,5.5164,5.6319,5.6357,5.4703,5.1856,5.1048,4.9702,4.8202,4.9048,4.9125,4.874,4.8779,4.824,4.7432,4.7048,0.0,0.0,0.0,0.0,0.0,0.0,0.0,4.8315,4.829,4.8657,4.9606,5.2068,0.0,0.0,6.5422,0.0,7.7708,7.9114,8.0896,8.2021,8.1052,8.1311,8.1697,8.1685,8.1785,8.2054,8.2586,8.3219,8.3843,8.4509,8.5168,8.5429,8.5,8.5703,8.6094,8.5664,8.5586,8.5781,8.6211,8.539,8.5117,8.5547,8.4765,8.4297,8.4297,8.3867,8.3672,8.3672,8.3672,8.3672,8.3672,8.4062,8.4492,8.4922,8.6289,8.6875,8.6875,8.6836,8.6601,8.625,8.625,8.5976,8.5547,8.5117,8.5195,8.5625,8.6054,8.6484,8.6953,0.0,0.0,0.0,0.0,0.0,0.0,0.0,0.0,0.0,4.5586,4.5586,4.5624,4.5796,4.5796,4.5834,0.0,0.0,0.0,4.5967,4.6174,4.7086,4.8833,5.0948,5.1511,5.0294,5.0612,4.9714,4.7485,4.733,4.8839,5.1931,5.3397,5.5049,5.6703,5.5703,5.401,5.1818,5.0587,4.9202,4.7971,4.8663,4.8894,4.8663,4.8125,4.7817,4.7509,4.6086,4.6047,4.6701,4.6701,0.0,0.0,0.0,0.0,4.6673,4.872,4.8966,4.9586,5.4216,0.0,6.2642,7.0348,7.5231,0.0,7.9211,8.0674,8.1953,8.2226,8.2007,8.1748,8.1697,8.14,8.1439,8.2355,8.2685,8.3116,8.4059,8.4492,8.4414,8.3672,8.4375,8.4609,8.3906,8.4336,8.4726,8.4883,8.4609,8.4531,8.4687,8.3867,8.3398,8.3398,8.2695,8.2304,8.2304,8.2304,8.2304,8.2304,8.3047,8.3828,8.4687,8.5429,8.582,8.6015,8.6562,8.6094,8.4883,8.4883,8.4804,8.4609,8.3867,8.4023,8.4765,8.5664,8.6054,8.6328,0.0,0.0,0.0,0.0,0.0,0.0,0.0,0.0,0.0,0.0,4.5586,4.5624,4.5796,4.5796,4.5873,4.6065,4.6078,4.6123,4.6243,0.0,0.0,4.9673,5.0641,5.1499,5.212,5.0737,4.9611,4.8662,4.7797,4.8671,5.1152,5.2043,5.3664,5.5818,5.4241,5.2933,5.1702,4.8702,4.7278,4.7086,4.7201,4.6778,4.6163,4.6817,4.6586,4.5893,4.5663,4.5663,4.5778,4.5778,4.6663,0.0,0.0,0.0,4.8816,4.7636,4.8487,5.0048,5.1318,0.0,6.6216,0.0,7.4707,7.8204,0.0,0.0,8.0469,8.1992,8.2107,8.1906,8.1733,8.1516,8.1439,8.1778,8.1869,8.2057,8.2529,8.3281,8.3711,8.3594,8.4375,8.4844,8.4726,8.414,8.4101,8.4844,8.3515,8.2969,8.3711,8.2969,8.2461,8.2461,8.2344,8.2304,8.2304,8.2304,8.2304,8.2304,8.2422,8.2929,8.3789,8.3906,8.4375,8.5039,8.4414,8.4414,8.4883,8.4883,8.4453,8.375,8.3633,8.3672,8.3867,8.4765,8.5547,8.6328,0.0,0.0,0.0,0.0,0.0,0.0,0.0,0.0,0.0,0.0,0.0,4.5796,4.595,4.5988,4.6027,4.6216,4.6193,4.622,4.6289,4.707,4.7851,4.8594,4.9397,4.9809,4.978,4.8992,4.8226,4.7459,4.6991,4.8503,5.183,5.1601,5.2777,5.4934,5.2779,5.1318,5.0317,4.7394,4.6163,4.6163,4.6163,4.5932,4.5701,4.6586,4.6663,4.6317,4.6317,4.6317,4.6317,4.6317,4.6817,4.7432,4.7548,0.0,0.0,0.0,4.9432,5.1511,5.6126,6.1089,6.6205,0.0,7.4797,7.7018,7.8557,7.9326,7.9922,8.0703,8.1172,8.1514,8.1805,8.1678,8.1593,8.1701,8.1816,8.1937,8.2126,8.2546,8.2851,8.2851,8.3203,8.3437,8.3437,8.3086,8.3047,8.3398,8.2734,8.2461,8.2851,8.25,8.2304,8.2304,8.2304,8.2304,8.2304,8.2304,8.2304,8.2304,8.2304,8.25,8.2851,8.2851,8.3359,8.4179,8.4297,8.3984,8.3476,8.3984,8.3672,8.2851,8.2851,8.3164,8.3711,8.457,8.5156,8.5586,0.0,0.0,0.0,0.0,0.0,0.0,0.0,0.0,0.0,0.0,0.0,4.5912,4.6082,0.0,0.0,0.0,4.6289,4.6289,4.6289,4.6914,4.7383,4.7578,4.8203,4.8281,4.7617,4.7617,4.7187,4.6289,4.6289,4.8421,5.2481,5.1503,5.2427,5.478,5.2164,5.051,4.9548,4.7009,4.6047,4.6201,4.5778,4.5586,4.5663,4.6317,4.6586,4.6586,4.6817,4.6778,4.6586,0.0,4.7048,4.7317,4.7932,4.8394,0.0,0.0,0.0,5.205,0.0,0.0,6.4445,7.0247,7.3178,7.5128,7.7083,7.8125,7.8867,7.9297,7.9922,8.0664,8.1562,8.1741,8.1774,8.1801,8.1893,8.2015,8.208,8.2221,8.2304,8.2304,8.2304,8.2304,8.2304,8.2304,8.2304,8.2304,8.2304,8.2304,8.2304,8.2304,8.2304,8.2304,8.2304,8.2304,8.2304,8.2304,8.2304,8.2304,8.2304,8.2304,8.2304,8.2304,8.2656,8.332,8.3945,8.3515,8.2344,8.3008,8.289,8.2304,8.2304,8.2695,8.3398,8.4258,8.457,8.4687,0.0,0.0,0.0,0.0,0.0,0.0,0.0,0.0,0.0,0.0,0.0,4.5964,4.6078,4.6103,4.6151,4.6286,4.6289,4.6289,4.6289,4.6328,4.6758,4.7578,4.7656,0.0,4.7617,4.7617,4.7187,4.6289,4.6289,4.8437,5.2499,5.1586,5.2888,5.5801,5.3049,5.1395,5.0471,4.7894,4.7278,4.7817,4.624,4.5586,4.5586,4.5663,4.5663,4.5778,4.6586,0.0,0.0,0.0,0.0,0.0,4.8086,4.924,5.0394,0.0,0.0,0.0,0.0,5.7181,0.0,6.3922,6.8294,7.2414,7.4345,7.5469,7.6562,7.8203,7.8594,7.914,8.0742,8.1562,8.1984,8.1975,8.2009,8.2056,8.2242,8.2304,8.2304,8.2304,8.2304,8.2304,8.2304,8.2304,8.2304,8.2304,8.2304,8.2304,8.2304,8.2304,8.2304,8.2304,8.2304,8.2304,8.2304,8.2304,8.2304,8.2304,8.2304,8.2304,8.2304,8.2304,8.2304,8.2383,8.2422,8.2383,8.2304,8.2344,8.2344,8.2304,8.2304,8.2344,8.2461,8.3359,8.3672,8.3789,0.0,0.0,0.0,0.0,0.0,0.0,0.0,0.0,0.0,0.0,0.0,0.0,0.0,4.6242,4.624,4.6289,4.6289,4.6289,4.6289,4.6289,4.6445,4.6758,4.6758,4.6758,4.6758,4.6758,4.6601,4.6289,4.6289,4.8164,5.1758,5.0801,5.2188,5.5318,5.251,5.0741,4.9702,4.7163,4.624,4.6432,4.5817,4.5586,4.5663,4.6201,4.6432,0.0,0.0,0.0,0.0,0.0,0.0,0.0,0.0,0.0,0.0,0.0,0.0,0.0,0.0,0.0,5.7965,6.2304,6.5601,6.8405,7.0738,7.2812,7.457,7.5742,7.6875,7.8008,7.918,8.0469,8.1555,8.2104,8.1711,8.1585,8.2225,8.1328,8.1054,8.2187,8.1797,8.1679,8.2265,8.2304,8.2304,8.2304,8.2304,8.2304,8.2304,8.2304,8.2304,8.2304,8.2304,8.2304,8.2304,8.2304,8.2304,8.2304,8.2304,8.2304,8.2304,8.2304,8.2304,8.2304,8.2304,8.2304,8.2304,8.2304,8.2304,8.2304,8.2304,8.2656,8.3164,8.3476,8.3594,8.3633,0.0,0.0,0.0,4.5586,0.0,4.5603,4.5026,4.5526,4.5813,4.5362,0.0,0.0,0.0,0.0,4.6289,4.6289,4.6289,4.6289,4.6289,4.6289,4.6289,4.6289,4.6289,4.6289,4.6289,4.6289,4.6289,4.6289,4.6289,4.7891,5.0976,5.0,5.1235,5.4086,5.1393,5.0221,0.0,0.0,0.0,4.6778,4.5932,4.5932,4.6509,4.7394,0.0,0.0,0.0,0.0,0.0,0.0,0.0,0.0,0.0,0.0,0.0,0.0,0.0,0.0,5.3039,0.0,0.0,6.0547,6.2617,6.4414,6.8164,7.0117,7.164,7.3359,7.5117,7.668,7.7851,7.9219,8.0429,8.1289,8.0937,8.0781,8.1367,8.0429,8.0117,8.1289,8.1172,8.1211,8.1797,8.1875,8.1992,8.2265,8.2031,8.1992,8.2265,8.2304,8.2304,8.2304,8.2304,8.2304,8.2304,8.2304,8.2304,8.2304,8.2304,8.2304,8.2304,8.2304,8.2304,8.2304,8.2304,8.2304,8.2304,8.2304,8.2304,8.2304,8.2304,8.2656,8.3164,8.3164,8.3164,8.3164,4.5432,4.5586,4.5586,4.5586,4.5719,4.5796,4.5796,4.5967,4.6116,4.6116,0.0,0.0,0.0,0.0,0.0,4.6289,4.6289,4.6289,4.6289,4.6289,4.6289,4.6289,4.6289,4.6289,4.6289,4.6289,4.6289,4.6289,4.6289,4.7617,5.0117,4.9258,5.0156,5.2304,4.9829,4.9971,5.1874,0.0,4.9317,4.9163,0.0,4.6624,4.824,0.0,0.0,0.0,5.0894,5.024,0.0,4.8125,0.0,0.0,0.0,0.0,0.0,0.0,0.0,0.0,0.0,0.0,0.0,5.8086,5.9023,6.0586,6.6523,6.7226,6.7656,7.1172,7.3242,7.4961,7.6797,7.7812,7.8633,7.9453,7.9648,7.9687,7.9687,7.9648,7.9648,7.9687,8.0469,8.0976,8.0976,8.0976,8.1328,8.2148,8.1445,8.1328,8.2187,8.2265,8.2265,8.2304,8.2304,8.2304,8.2304,8.2304,8.2304,8.2304,8.2304,8.2304,8.2304,8.2304,8.2304,8.2304,8.2304,8.2304,8.2304,8.2304,8.2304,8.2304,8.2304,8.2304,8.2304,8.2304,8.2304,8.2304,4.5316,4.5586,4.5624,4.5719,4.5834,4.5911,4.5988,4.6162,4.6236,0.0,0.0,0.0,4.6289,4.6289,4.6289,4.6289,4.6289,4.6289,4.6289,4.6289,4.6289,4.6289,4.6289,4.6289,4.6289,4.6289,4.6289,4.6289,4.6289,4.6992,4.832,4.8086,4.8984,5.0781,4.9965,4.9609,4.9527,4.7606,0.0,4.8452,4.7086,4.7548,0.0,0.0,0.0,0.0,0.0,4.9086,4.9048,0.0,4.9471,4.9817,0.0,0.0,0.0,0.0,0.0,0.0,5.0875,0.0,0.0,0.0,0.0,0.0,5.914,6.0586,6.2851,6.8164,6.9648,7.1055,7.4648,7.5508,7.5976,7.6797,7.8008,7.9023,7.9609,7.8672,7.8359,7.957,7.9922,8.0078,8.0078,8.0625,8.0859,8.0469,8.0195,8.0156,8.039,8.1015,8.164,8.2265,8.2304,8.2304,8.2304,8.2304,8.2304,8.2304,8.2304,8.2304,8.2304,8.2304,8.2304,8.2304,8.2304,8.2304,8.2304,8.2304,8.2304,8.2304,8.2304,8.2304,8.2304,8.2304,8.2304,8.2304,4.5316,4.5586,4.5624,4.5719,4.5827,4.593,4.6007,4.617,4.6289,0.0,0.0,0.0,4.6289,4.6601,4.6719,4.6328,4.6289,4.6289,4.6289,4.6289,4.6289,4.6289,4.6289,4.6289,4.6289,4.6289,4.6289,4.6289,4.6289,4.6562,4.707,4.707,4.7617,4.8555,4.8437,4.8157,4.7624,0.0,0.0,0.0,4.7318,0.0,0.0,5.0164,5.001,0.0,0.0,0.0,5.1356,5.0279,4.9779,0.0,0.0,0.0,0.0,0.0,0.0,0.0,0.0,0.0,0.0,0.0,0.0,0.0,5.7383,5.8164,5.9726,6.539,6.6875,6.8086,7.1328,7.25,7.3398,7.4609,7.5664,7.6875,7.8437,7.7812,7.7578,7.8555,7.8984,7.9219,7.9219,7.9648,7.9883,7.9726,7.9375,7.9336,7.9687,8.0195,8.0859,8.1719,8.1406,8.1406,8.1758,8.1758,8.1758,8.1758,8.2148,8.2304,8.2304,8.2304,8.2304,8.2304,8.2304,8.2304,8.2304,8.2304,8.2304,8.2304,8.2304,8.2304,8.2304,8.2304,8.2304,8.2304,0.0,4.5586,4.5586,4.5624,4.5777,4.59,4.5913,4.6108,4.6289,0.0,4.6367,4.6484,4.6562,4.7187,4.7305,4.6523,4.6367,4.6289,4.6289,4.6289,4.6289,4.6289,4.6289,4.6289,4.6289,4.6285,4.6285,4.6289,4.6289,4.6289,4.6289,4.6285,4.6285,4.6289,4.6289,4.6289,4.6328,4.6972,0.0,4.8259,4.7569,4.876,0.0,0.0,5.2664,5.2356,5.4626,5.4972,5.3972,5.1625,4.9817,0.0,0.0,0.0,0.0,0.0,4.9065,0.0,0.0,0.0,0.0,0.0,5.3242,0.0,5.8203,5.7812,5.7734,6.2695,6.4336,6.5469,6.7422,6.9062,7.0625,7.2187,7.2773,7.3984,7.6797,7.7109,7.7109,7.7187,7.7969,7.8476,7.8359,7.8437,7.875,7.9375,7.875,7.8711,7.9531,7.957,7.9961,8.082,8.0117,8.0117,8.0976,8.1015,8.1054,8.1133,8.1914,8.2304,8.2304,8.2304,8.2304,8.2304,8.2304,8.2304,8.2304,8.2304,8.2304,8.2304,8.2304,8.2304,8.2304,8.2304,8.2304,8.2304,4.5432,4.5586,4.5624,4.5757,4.5786,4.5893,4.6033,4.6093,4.6172,4.6289,4.6914,4.7617,4.832,4.793,4.7539,4.7344,4.6719,4.6289,4.6289,4.6289,4.6289,4.6289,4.6289,4.6289,4.6289,4.6173,4.6202,4.6289,4.6172,4.6172,4.6289,4.6192,4.6182,4.6289,4.6172,4.6211,4.6366,4.7068,0.0,4.851,4.8914,0.0,5.2664,5.2433,5.2587,5.301,5.351,5.3587,5.328,5.2087,5.1433,5.0933,0.0,0.0,0.0,4.9298,0.0,0.0,0.0,0.0,0.0,0.0,5.2812,0.0,5.3203,5.3867,5.5586,5.9414,6.0312,6.1406,6.4492,6.5898,6.6719,6.7031,6.9414,7.2617,7.664,7.6601,7.6406,7.7109,7.7969,7.8203,7.7539,7.8086,7.8281,7.7734,7.7539,7.7812,7.8672,7.8711,7.9101,7.9922,7.9805,8.0117,8.0976,8.1015,8.1367,8.2031,8.2226,8.2304,8.2304,8.2304,8.2304,8.2304,8.2304,8.2304,8.2304,8.2304,8.2304,8.2304,8.2304,8.2304,8.2304,8.2304,8.2304,8.2383,4.5509,4.5586,4.5624,4.568,4.5796,4.602,4.6591,4.6374,4.6523,4.7461,4.8359,4.8711,4.8281,4.8242,4.7891,4.7031,4.6562,4.6289,4.6289,4.6289,4.6289,4.6289,4.6289,4.6289,4.6289,4.6215,4.6191,4.6199,4.6113,4.6091,4.6089,4.6046,4.603,4.6083,4.602,4.6078,4.6287,0.0,4.8145,4.8644,4.9337,0.0,5.2549,5.2626,5.3164,5.3895,5.4318,5.4241,5.3857,5.3413,5.3318,0.0,5.1202,5.1241,5.1702,0.0,5.0919,5.1734,0.0,0.0,0.0,5.3359,0.0,0.0,0.0,5.3359,5.4336,5.7812,5.7851,5.8164,6.1211,6.2109,6.2969,6.4687,6.6758,6.9492,7.3398,7.4687,7.5586,7.6445,7.6953,7.7031,7.6601,7.7344,7.7656,7.7226,7.7187,7.7383,7.7812,7.7851,7.8242,7.9062,7.8672,7.9062,8.0351,8.0351,8.0781,8.164,8.2109,8.2304,8.2304,8.2304,8.2304,8.2304,8.2304,8.2304,8.2304,8.2304,8.2304,8.2304,8.2304,8.2304,8.2304,8.2304,8.2304,8.2344,4.5586,4.5586,4.5586,4.5586,4.5719,4.61,4.6854,4.6544,4.6871,4.8672,4.9492,4.9492,4.8242,4.8594,4.8398,4.7148,4.6601,4.6443,4.6736,4.648,4.6289,4.625,4.6289,4.6289,4.6289,4.6289,4.6215,4.6103,4.6065,4.6012,4.589,4.589,4.5984,4.6142,4.597,4.6154,0.0,0.0,0.0,4.901,0.0,5.0856,5.2087,5.3164,5.401,5.4664,5.5511,5.544,5.4997,5.4998,5.4939,5.4685,5.3164,5.3626,0.0,0.0,0.0,0.0,0.0,0.0,0.0,0.0,0.0,5.4297,0.0,0.0,0.0,5.668,5.6289,5.6211,5.832,5.8828,5.9805,6.2383,6.4101,6.6055,6.8828,7.1484,7.3633,7.5,7.5156,7.5273,7.5625,7.5976,7.6406,7.6914,7.6484,7.6406,7.6914,7.6953,7.7344,7.8203,7.7578,7.8008,7.9687,7.9687,8.0234,8.125,8.1953,8.2304,8.2304,8.2304,8.2304,8.2304,8.2304,8.2304,8.2304,8.2304,8.2304,8.2304,8.2304,8.2304,8.2304,8.2304,8.2304,8.2304,4.5586,4.5586,4.5586,4.5586,4.5624,4.5719,4.5997,4.6005,4.6644,4.8632,4.8984,4.9258,0.0,0.0,0.0,0.0,0.0,0.0,4.8314,4.7072,4.625,4.6133,4.625,4.6289,4.6289,4.6172,4.6137,4.6103,4.5988,4.589,4.5902,4.5825,4.6254,4.7029,4.6254,0.0,0.0,0.0,4.903,0.0,5.1299,5.1973,0.0,5.4203,5.4874,5.4951,5.5818,5.6089,5.603,0.0,5.5924,5.5742,0.0,5.5528,5.5511,5.5241,0.0,0.0,0.0,0.0,0.0,0.0,5.789,5.8398,5.3984,0.0,5.6758,5.4844,0.0,5.6523,5.6836,0.0,0.0,5.7539,6.0742,6.3437,6.3828,6.6133,6.8945,7.207,7.2422,7.3047,7.4609,7.3437,7.3555,7.5859,7.3906,7.3594,7.5937,7.6055,7.6445,7.7305,7.7265,7.8008,7.9687,7.9687,8.0547,8.2148,8.2265,8.2304,8.2304,8.2304,8.2304,8.2304,8.2304,8.2304,8.2304,8.2304,8.2304,8.2304,8.2304,8.2304,8.2304,8.2304,8.2304,8.2422,4.5586,4.5586,4.5586,4.5586,4.5719,4.5979,4.6535,4.8024,4.9046,4.8906,5.0195,5.1055,0.0,0.0,0.0,0.0,0.0,4.7835,0.0,0.0,4.6199,4.5991,4.6204,4.625,4.6172,4.6211,4.6132,4.5983,4.5912,4.5834,4.5757,4.6201,4.6663,4.6991,4.6624,0.0,4.8606,0.0,4.9782,0.0,0.0,5.3602,0.0,5.4459,5.5113,5.5626,5.6708,5.7082,5.7056,5.7049,5.7655,0.0,0.0,0.0,0.0,5.7027,0.0,0.0,0.0,0.0,0.0,0.0,0.0,0.0,5.5586,0.0,5.5625,5.5547,0.0,0.0,0.0,0.0,0.0,0.0,5.9297,6.0976,6.1445,6.2851,6.5351,6.9336,6.9805,7.0469,7.2187,7.168,7.1719,7.2812,7.2344,7.2461,7.3594,7.5078,7.6055,7.6445,7.6953,7.7773,7.8984,7.9453,8.0312,8.1562,8.207,8.2304,8.2304,8.2304,8.2304,8.2304,8.2304,8.2304,8.2304,8.2304,8.2304,8.2304,8.2304,8.2304,8.2304,8.2304,8.2304,8.2344,4.5586,4.5586,4.5586,4.5586,4.5757,4.6103,4.6775,4.867,4.98,4.9235,5.0847,0.0,5.2031,5.2109,0.0,0.0,5.0586,4.9493,0.0,0.0,4.666,4.5948,4.6086,4.6158,4.608,4.6147,4.6108,4.5847,4.5866,4.5911,4.597,4.6586,4.7163,4.7586,4.7837,4.8546,4.9535,0.0,5.1568,5.257,5.4632,5.5126,5.4635,5.4798,5.5498,5.6494,5.7439,5.7885,5.809,5.8336,5.9219,5.9995,5.8958,5.9413,6.0112,0.0,0.0,0.0,5.8755,5.959,6.0324,5.9338,5.885,5.8164,5.6601,5.5976,5.5937,5.6484,5.6328,0.0,0.0,0.0,5.6719,0.0,0.0,5.9336,5.9687,6.0469,6.2461,6.6328,6.7617,6.8789,7.0234,6.9726,6.9609,7.0273,7.0078,7.039,7.1562,7.3672,7.5156,7.5898,7.6758,7.7617,7.8476,7.9297,8.0156,8.1015,8.1875,8.2304,8.2304,8.2304,8.2304,8.2304,8.2304,8.2304,8.2304,8.2304,8.2304,8.2304,8.2304,8.2304,8.2304,8.2304,8.2304,8.2304,4.5586,4.5586,4.5586,4.5586,4.5719,4.5873,4.6103,4.6317,4.7289,4.9567,5.0118,0.0,0.0,0.0,0.0,0.0,0.0,5.2136,5.1062,0.0,4.7796,4.5987,4.5916,4.5962,0.0,4.5991,4.5875,4.5813,4.5796,4.6163,4.6855,4.6894,4.7778,4.9356,5.0259,5.1164,5.2107,5.3933,5.4821,5.5075,5.5982,5.6288,5.608,5.5498,5.622,5.7576,5.7824,5.832,5.9023,6.0,6.0273,6.0351,6.1132,6.1309,6.1226,6.1187,6.1783,6.225,6.1394,6.2525,6.3122,5.9765,5.9627,5.9453,5.6094,5.7851,5.9492,5.7109,5.918,6.0976,5.9414,0.0,0.0,0.0,0.0,0.0,0.0,5.8711,6.0234,6.2851,6.6133,6.8555,6.9453,6.7265,6.6797,6.9258,6.6406,6.6367,7.0508,7.1601,7.3281,7.582,7.6758,7.7617,7.8476,7.9297,8.0156,8.1015,8.1875,8.2304,8.2304,8.2304,8.2304,8.2304,8.2304,8.2304,8.2304,8.2304,8.2304,8.2304,8.2304,8.2304,8.2304,8.2304,8.2304,8.2304,4.5586,4.5586,4.5586,4.5586,0.0,4.6066,4.6839,4.7423,4.8905,0.0,0.0,0.0,0.0,5.7422,5.7344,0.0,0.0,5.449,5.2983,5.1205,0.0,0.0,0.0,4.8001,0.0,4.7403,4.7133,4.5796,4.5796,4.6163,4.6932,4.7432,4.8317,4.9433,5.0317,5.1259,0.0,0.0,0.0,0.0,0.0,5.8492,5.8701,5.7357,5.7082,5.7644,5.8963,5.9629,6.0039,6.0937,6.1211,6.125,6.1523,6.1596,6.1573,6.1573,6.2162,6.2943,6.3217,6.4593,6.5254,6.2352,6.1889,6.1211,5.7812,5.9219,6.0547,5.8008,6.0195,6.1875,5.9609,0.0,0.0,0.0,0.0,0.0,0.0,5.7773,5.9062,6.1055,6.3359,6.4883,6.5156,6.4414,6.4258,6.5117,6.4648,6.5195,6.7226,7.0312,7.2656,7.414,7.5586,7.6758,7.7617,7.9023,7.9844,8.0156,8.1601,8.2304,8.2304,8.2304,8.2304,8.2304,8.2304,8.2304,8.2304,8.2304,8.2304,8.2304,8.2304,8.2304,8.2304,8.2304,8.2304,8.2383,4.5663,4.5586,4.5586,4.5586,0.0,4.6515,4.7276,4.8777,0.0,0.0,5.5497,0.0,6.008,0.0,5.982,0.0,5.8325,5.6628,5.3961,5.321,0.0,4.9758,5.0059,0.0,0.0,0.0,0.0,4.6201,4.6778,4.7317,4.7817,4.8317,4.9048,4.9933,5.1395,5.2221,5.2679,5.5535,5.6927,0.0,5.8987,5.9659,5.9626,5.8832,5.8623,5.887,5.991,6.0487,6.0878,6.1479,6.1914,6.2148,6.2148,6.2383,6.2617,6.2617,6.3242,6.4062,6.4609,6.582,6.6406,6.4414,6.3906,6.3086,5.9961,6.125,6.2461,6.0195,6.1719,6.3047,6.1719,0.0,0.0,0.0,0.0,0.0,0.0,5.7344,5.8437,5.9805,6.1484,6.2773,6.3398,6.289,6.2539,6.2539,6.2773,6.3555,6.5078,6.8633,7.1445,7.3242,7.5,7.6328,7.7187,7.8867,7.9687,7.9726,8.1484,8.2304,8.2304,8.2304,8.2304,8.2304,8.2304,8.2304,8.2304,8.2304,8.2304,8.2304,8.2304,8.2304,8.2304,8.2304,8.25,8.2851,4.574,4.5624,4.5663,4.5663,4.6355,0.0,0.0,0.0,5.2903,0.0,5.7284,5.9979,6.2367,6.2006,6.1673,6.1748,6.0818,5.8492,5.4402,5.5481,0.0,0.0,5.0702,5.0202,4.8567,0.0,0.0,0.0,4.8548,4.9317,4.9394,4.9356,4.9817,5.0818,5.3318,5.3972,5.351,5.7995,5.9529,5.8939,6.0025,5.9913,5.9163,5.9983,6.0699,6.1219,6.0666,6.0916,6.1504,6.1676,6.2265,6.293,6.293,6.3515,6.4258,6.4258,6.4922,6.5664,6.5703,6.6406,6.6875,6.6015,6.5781,6.5117,6.2539,6.4023,6.539,6.3555,6.3945,6.4805,6.5351,6.3398,0.0,0.0,0.0,0.0,5.6836,5.7305,5.8164,5.9101,6.0586,6.2187,6.3945,6.2578,6.1562,6.1562,6.0859,6.1484,6.4023,6.6719,6.9726,7.3086,7.4961,7.6328,7.7265,7.8945,7.9765,7.9765,8.1484,8.2304,8.2304,8.2304,8.2304,8.2304,8.2304,8.2304,8.2304,8.2304,8.2304,8.2304,8.2304,8.2304,8.2304,8.2304,8.2812,8.3554,4.5624,4.6124,4.6586,4.6624,4.624,4.6663,0.0,0.0,0.0,0.0,5.9959,6.2361,6.4234,6.3826,6.3196,6.2564,6.1595,0.0,0.0,0.0,0.0,5.5378,5.5055,5.3976,5.201,5.1722,0.0,4.8779,0.0,4.8163,4.9394,4.874,4.924,5.0779,5.2702,5.3395,5.3433,5.7264,5.9629,6.0808,6.1209,6.155,6.1768,6.1425,6.1774,6.2296,6.1486,6.1408,6.1671,6.1676,6.1836,6.2031,6.2031,6.2617,6.332,6.332,6.4883,6.6719,6.7344,6.8594,6.9531,6.8633,6.8476,6.7969,6.6015,6.8047,6.9492,6.6523,6.7578,6.7969,6.4336,6.2578,6.1015,0.0,0.0,0.0,0.0,5.6797,5.75,5.9023,5.9023,5.9531,6.125,6.0469,5.9844,5.9844,6.0195,6.0976,6.2305,6.6094,6.918,7.1289,7.4336,7.664,7.8164,7.9844,8.0664,8.0664,8.1797,8.2304,8.2304,8.2304,8.2304,8.2304,8.2304,8.2304,8.2304,8.2304,8.2304,8.2304,8.2304,8.2304,8.2304,8.2304,8.2422,8.2734,4.5663,4.6586,4.7548,4.7971,0.0,0.0,5.1029,5.2279,0.0,5.805,6.0819,0.0,6.3759,6.3883,6.3892,6.3877,6.2215,0.0,6.0242,0.0,0.0,5.728,5.7208,5.6151,5.3818,5.3089,0.0,4.9971,0.0,4.9048,4.9971,4.9471,4.974,5.0779,5.2433,5.3395,5.401,5.761,6.0073,6.1523,6.164,6.1953,0.0,6.184,6.1969,6.2257,6.1756,6.1627,6.1719,6.1719,6.1953,6.2265,6.2265,6.3125,6.414,6.414,6.5469,6.7187,6.8437,6.9453,7.0195,7.0469,7.0547,7.0234,6.8867,6.9765,7.0469,6.8906,6.8515,6.7812,6.5664,6.332,6.0859,0.0,0.0,0.0,0.0,5.7812,5.8476,5.914,5.9062,5.9219,5.9805,5.9101,5.8945,5.9687,6.0156,6.0781,6.164,6.582,6.8984,7.0664,7.4062,7.6758,7.8476,8.0156,8.1015,8.1015,8.1875,8.2304,8.2304,8.2304,8.2304,8.2304,8.2304,8.2304,8.2304,8.2304,8.2304,8.2304,8.2304,8.2304,8.2344,8.2734,8.2851,8.3008,4.6047,4.7278,0.0,0.0,0.0,0.0,0.0,5.4874,0.0,5.8511,0.0,6.2929,6.2799,6.3373,6.4099,6.5018,0.0,6.0902,6.0342,6.0781,6.005,5.7774,5.8219,5.7434,5.5049,5.3818,5.251,0.0,0.0,5.0471,5.0702,5.0587,5.0587,5.0779,5.2318,5.3587,5.4741,5.8303,6.0352,6.1196,6.1561,6.1719,6.1719,6.1719,6.1694,6.1697,6.171,6.1719,6.1719,6.1836,6.2305,6.2851,6.2969,6.4101,6.543,6.543,6.6289,6.7578,6.9062,6.9609,7.0117,7.1601,7.2109,7.1953,7.1211,7.0586,7.0312,7.0937,6.8594,6.6758,6.7812,6.4453,6.0781,5.8437,5.8086,5.8086,5.8086,5.9336,6.0039,5.9414,5.9883,0.0,5.957,5.8633,5.8672,6.0117,6.0351,6.0742,6.1484,6.5547,6.8672,7.0469,7.4023,7.6836,7.8828,8.039,8.1211,8.1367,8.1992,8.2304,8.2304,8.2304,8.2304,8.2304,8.2304,8.2304,8.2304,8.2304,8.2304,8.2304,8.2304,8.2304,8.2422,8.3281,8.3594,8.3711,4.7548,0.0,0.0,0.0,0.0,5.5011,5.7104,5.9358,6.0935,6.1358,6.4393,6.6189,6.5341,6.4869,6.4383,6.3945,6.278,0.0,0.0,0.0,0.0,6.0204,5.9873,5.9027,5.7665,5.4839,5.3184,0.0,0.0,4.9279,5.0664,4.9971,5.001,5.0741,5.1702,5.3067,5.4836,5.7703,5.9083,5.9493,6.1086,6.1719,6.1719,6.1719,6.1713,6.169,6.1716,6.1719,6.1797,6.2539,6.2383,6.2031,6.2773,6.3711,6.4531,6.4531,6.664,6.9023,6.9336,7.0469,7.1601,7.1914,7.2539,7.3047,7.289,7.3281,7.3555,7.2969,7.1797,7.0117,6.7578,6.3555,6.0273,5.914,5.8984,5.8984,5.8984,5.9219,5.9609,6.0117,5.9726,5.9883,6.1133,5.9883,5.9101,5.9375,6.0039,6.0469,6.0625,6.4062,6.7148,6.9531,7.3711,7.7383,8.0547,8.1562,8.2422,8.3125,8.2578,8.2304,8.2304,8.2304,8.2304,8.2304,8.2304,8.2304,8.2304,8.2304,8.2304,8.2304,8.2304,8.2304,8.2422,8.3281,8.3594,8.3711,4.9933,0.0,0.0,0.0,0.0,0.0,5.9935,6.2435,6.3589,6.2243,6.3599,6.4446,6.3974,6.4397,6.4576,6.4229,6.2987,6.2043,6.1713,6.1304,6.0973,6.0819,6.055,5.9973,5.8934,5.5686,5.3954,5.3857,5.0433,4.9433,5.0664,4.9817,4.9856,5.0741,5.201,5.3587,5.5472,5.7661,5.8971,5.9694,6.1062,6.164,6.1719,6.1719,6.1719,6.1719,6.1719,6.1992,6.2383,6.2344,6.2031,6.1836,6.2734,6.3594,6.4375,6.4844,6.6797,6.8867,6.9336,7.0351,7.1445,7.1875,7.2305,7.2734,7.3203,7.3281,7.3242,7.3281,7.2265,7.043,6.7461,6.4062,6.1758,6.1836,6.1484,6.1328,6.1797,6.1836,6.164,6.1133,6.0742,6.0625,6.0976,6.0703,6.0508,6.0508,6.0859,6.1055,6.1055,6.3945,6.6797,6.9375,7.3203,7.6875,8.0273,8.164,8.25,8.2929,8.25,8.2304,8.2304,8.2304,8.2304,8.2304,8.2304,8.2304,8.2304,8.2304,8.2304,8.2304,8.2304,8.2578,8.3086,8.3945,8.457,8.5,0.0,5.2856,0.0,0.0,5.8357,6.0512,6.1897,6.4243,6.5166,6.3166,6.2897,6.2897,6.2897,6.4089,6.4782,6.4499,6.3166,6.2267,6.2021,6.1228,6.0781,6.0781,6.0781,6.0396,5.9511,5.6395,5.4587,0.0,5.1164,4.9817,5.0125,4.9817,5.0048,5.0779,5.2433,5.401,5.5493,5.7594,5.905,5.9986,6.1062,6.1562,6.168,6.1875,6.1992,6.1992,6.2187,6.2695,6.3164,6.2461,6.2265,6.2383,6.3281,6.4023,6.4765,6.5625,6.7109,6.8633,6.9531,7.0351,7.1133,7.1836,7.1992,7.2187,7.2851,7.25,7.2187,7.289,7.1797,7.0039,6.7851,6.5625,6.414,6.4297,6.4023,6.3867,6.4023,6.4336,6.3945,6.2187,6.1797,6.1367,6.0469,6.1015,6.1406,6.1406,6.1601,6.1719,6.1719,6.3984,6.6445,6.8867,7.2617,7.6172,7.9414,8.1328,8.2383,8.2578,8.2383,8.2304,8.2304,8.2304,8.2304,8.2304,8.2304,8.2304,8.2304,8.2304,8.2304,8.2304,8.2304,8.2812,8.3711,8.457,8.5469,8.6211,0.0,0.0,0.0,5.7896,6.0165,6.1897,6.2089,6.4243,6.582,6.559,6.5551,6.5551,6.5551,6.5667,6.5166,6.3589,6.3281,6.2551,6.105,6.0858,6.0781,6.0781,6.0781,6.0396,5.9511,5.6934,5.4857,5.3318,5.1471,4.9817,4.8394,4.9894,5.0625,5.0779,5.2433,5.3356,5.3839,5.7108,5.8624,5.9001,6.0789,6.1523,6.1601,6.2539,6.289,6.2969,6.3789,6.4101,6.418,6.4062,6.4062,6.4219,6.5078,6.539,6.5664,6.6523,6.7969,6.9492,7.0351,7.1211,7.1914,7.1992,7.1992,7.2031,7.2109,7.207,7.2031,7.2109,7.1367,7.039,6.9414,6.8398,6.6953,6.4687,6.5547,6.5742,6.3437,6.4492,6.4844,6.3086,6.2187,6.1367,6.0469,6.0469,6.0508,6.0508,6.125,6.1719,6.1719,6.3437,6.5273,6.7109,7.1992,7.5898,7.8594,8.1054,8.2695,8.3476,8.2695,8.2304,8.2304,8.2304,8.2304,8.2304,8.2304,8.2304,8.2304,8.2304,8.2304,8.2304,8.2304,8.2812,8.3711,8.457,8.5469,8.6328,5.7819,5.7857,5.8511,6.0896,6.1743,6.2781,6.4782,6.5551,6.6051,6.6551,6.6205,6.5897,6.5897,6.5897,6.5397,6.4205,6.4089,6.3589,6.2397,6.1858,6.1589,6.1589,6.1089,6.0627,6.0281,5.8319,5.6434,5.4703,5.3549,5.2087,5.0394,5.0587,5.0702,5.0779,5.2433,5.3818,5.5049,5.7409,5.8796,5.9627,6.132,6.2102,6.2383,6.332,6.3711,6.3828,6.418,6.4648,6.5078,6.5078,6.4726,6.4453,6.5312,6.5586,6.5859,6.7265,6.8515,6.9648,7.0469,7.1328,7.1992,7.1992,7.1992,7.1992,7.1992,7.1992,7.1992,7.1992,7.1719,7.1367,7.1055,6.9844,6.8906,6.8906,6.8203,6.7461,6.6914,6.6133,6.4961,6.3203,6.1758,6.0586,5.9765,6.0117,6.0625,6.1133,6.1484,6.1719,6.1719,6.2851,6.457,6.6836,7.1406,7.5078,7.7695,8.0781,8.2461,8.2812,8.2461,8.2304,8.2304,8.2304,8.2304,8.2304,8.2304,8.2304,8.2304,8.2304,8.2304,8.2344,8.289,8.3594,8.4492,8.5351,8.6211,8.7031,6.005,6.0012,6.0742,6.3858,6.3743,6.4089,6.6705,6.6397,6.609,6.6667,6.6244,6.5897,6.5897,6.5897,6.5551,6.4666,6.4589,6.4243,6.3358,6.2781,6.2358,6.2089,6.1512,6.105,6.0819,5.9396,5.7665,5.5703,5.5126,5.3587,5.1164,5.1087,5.1318,5.1895,5.3587,5.5164,5.6703,5.8088,5.9435,6.0742,6.1858,6.262,6.3208,6.4096,6.4531,6.4726,6.4961,6.5469,6.5976,6.5976,6.5586,6.5234,6.6094,6.6367,6.6719,6.8437,6.9375,7.0039,7.0859,7.1523,7.1992,7.1992,7.1992,7.1992,7.1992,7.1992,7.1992,7.1992,7.1992,7.1992,7.1992,7.0976,7.039,7.1133,6.9961,6.8789,6.8359,6.6953,6.5234,6.3242,6.168,6.0469,5.9648,6.0078,6.0664,6.1289,6.1797,6.207,6.207,6.289,6.457,6.7187,7.1445,7.4922,7.7578,8.0703,8.2304,8.2304,8.2304,8.2304,8.2304,8.2304,8.2304,8.2304,8.2304,8.2304,8.2304,8.2304,8.2461,8.2734,8.3359,8.4297,8.5351,8.5976,8.6758,8.75,6.1704,6.2704,6.4051,6.659,6.6397,6.6128,6.6974,6.6397,6.5897,6.5897,6.5897,6.5897,6.5897,6.5897,6.5551,6.4666,6.4589,6.4243,6.3358,6.3281,6.2935,6.2127,6.2089,6.1666,6.0819,5.9935,5.8242,5.5703,5.5703,5.3549,4.9471,5.1125,5.2818,5.4511,5.6203,5.7434,5.8319,5.9127,6.0473,6.2089,6.2243,6.2897,6.3907,6.4899,6.539,6.5703,6.6562,6.6875,6.6875,6.6875,6.6875,6.7031,6.789,6.8164,6.8515,7.0195,7.0664,7.0898,7.1758,7.1992,7.1992,7.1992,7.1992,7.1992,7.1992,7.1992,7.1992,7.1992,7.1992,7.1992,7.1992,7.1992,7.1445,6.9805,7.0156,6.9492,6.6133,6.6367,6.5937,6.332,6.2226,6.1328,6.0469,6.039,6.039,6.039,6.1992,6.2969,6.2969,6.3828,6.5469,6.8086,7.2344,7.5859,7.8476,8.1015,8.2304,8.2304,8.2304,8.2304,8.2304,8.2304,8.2304,8.2304,8.2304,8.2304,8.2304,8.2304,8.2812,8.3594,8.3594,8.4648,8.6172,8.6211,8.6758,8.75,6.3589,6.4012,6.4628,6.6051,6.6051,6.6359,6.7782,6.7244,6.6936,6.7513,6.709,6.6513,6.5974,6.5897,6.5782,6.5513,6.5474,6.5359,6.5089,6.4512,6.382,6.2974,6.2397,6.1666,6.0819,6.0512,5.9435,5.7473,5.8011,5.7011,5.4587,5.5126,5.5665,5.6242,5.7396,5.8357,5.9204,6.0666,6.1589,6.2204,6.3498,6.4268,6.4778,6.578,6.6673,6.7422,6.7695,6.8125,6.8594,6.8672,6.8633,6.875,6.9648,6.9101,6.8398,6.9492,7.0234,7.0898,7.1758,7.1992,7.1992,7.1992,7.1992,7.2148,7.2734,7.289,7.289,7.289,7.2422,7.2187,7.2773,7.2383,7.1836,7.1289,7.0469,6.9297,6.7617,6.6094,6.4375,6.2344,6.1328,6.0508,5.9648,6.0078,6.0664,6.125,6.1797,6.2109,6.2109,6.5195,6.7344,6.8164,7.3515,7.707,7.8476,8.1015,8.2304,8.2304,8.2304,8.2304,8.2304,8.2304,8.2304,8.2304,8.2304,8.2304,8.2304,8.2304,8.2812,8.3672,8.4258,8.5195,8.6328,8.7461,8.8086,8.8398,6.4474,6.4859,6.5474,6.6628,6.632,6.659,6.859,6.7628,6.6936,6.7782,6.7167,6.6551,6.6359,6.609,6.5897,6.5897,6.5897,6.5897,6.5897,6.5397,6.4551,6.3358,6.282,6.2012,6.0819,6.0781,6.0127,5.8742,5.8627,5.8204,5.7473,5.7473,5.7627,5.7973,5.8858,5.9704,6.055,6.1627,6.2435,6.3166,6.4691,6.5627,6.6185,6.72,6.803,6.8633,6.8633,6.8984,6.9414,6.9492,6.9453,6.9492,7.0039,6.9922,6.9726,7.0234,7.0976,7.1797,7.2344,7.2734,7.2969,7.2969,7.2969,7.3125,7.3672,7.3789,7.3789,7.3789,7.3086,7.2656,7.3203,7.2578,7.1992,7.1992,7.0312,6.8711,6.7812,6.5469,6.3281,6.1875,6.1523,6.1055,6.0234,6.1172,6.1836,6.1719,6.3203,6.3711,6.2734,6.6172,6.8789,7.0078,7.5039,7.8398,7.9922,8.1523,8.2304,8.2304,8.2304,8.2304,8.2304,8.2304,8.2304,8.2304,8.2304,8.2304,8.2344,8.2656,8.3281,8.4179,8.5039,8.5937,8.6836,8.8203,8.8711,8.8828,6.4705,6.5397,6.6474,6.8052,6.7051,6.6898,6.9321,6.7705,6.6436,6.7167,6.659,6.632,6.7013,6.6359,6.5897,6.5897,6.5897,6.5897,6.5897,6.5897,6.5166,6.3474,6.3397,6.2627,6.0935,6.0896,6.0473,5.9588,5.805,5.7703,5.8473,5.8473,5.8858,5.9627,6.0512,6.132,6.2089,6.2204,6.3205,6.4782,6.5793,6.6845,6.7878,6.8837,6.9317,6.9492,6.9492,6.9531,6.9609,6.9726,6.9726,6.9687,6.9726,7.0859,7.2148,7.2031,7.2656,7.3398,7.3398,7.4023,7.4687,7.4609,7.4648,7.4687,7.4609,7.4648,7.4687,7.4687,7.3984,7.3398,7.3476,7.2734,7.207,7.1992,6.9844,6.7851,6.6953,6.4609,6.2695,6.1875,6.2578,6.2773,6.1953,6.3359,6.3633,6.2109,6.5625,6.6914,6.4765,6.7148,7.0039,7.3281,7.6836,7.9844,8.2265,8.2304,8.2304,8.2304,8.2344,8.2383,8.2383,8.2344,8.2344,8.2383,8.2344,8.2344,8.2461,8.3281,8.414,8.5078,8.5898,8.6719,8.7617,8.8398,8.875,8.8906,6.559,6.6244,6.6936,6.7321,6.7628,6.8244,6.9513,6.9206,6.8859,6.9052,6.8359,6.7628,6.7128,6.6359,6.5897,6.5897,6.5897,6.5897,6.5897,6.5897,6.5436,6.4359,6.4282,6.3512,6.182,6.1781,6.1358,6.0473,6.0089,6.0012,6.0204,6.0204,6.0319,6.0512,6.1396,6.1897,6.2166,6.3474,6.4628,6.5667,6.6871,6.7851,6.8682,6.9209,6.9823,7.039,7.039,7.082,7.1484,7.2187,7.2383,7.25,7.3164,7.3633,7.3711,7.2383,7.3086,7.4297,7.4297,7.4922,7.543,7.4765,7.5117,7.543,7.4765,7.5117,7.5586,7.5586,7.4883,7.4492,7.5156,7.4023,7.2773,7.2109,6.9844,6.7656,6.6133,6.4219,6.293,6.2734,6.3476,6.3906,6.3711,6.4062,6.4414,6.4648,6.4414,6.539,6.8125,7.0703,7.2773,7.4258,7.8281,8.1015,8.2304,8.2304,8.2304,8.2304,8.2969,8.3281,8.3281,8.2617,8.2656,8.3242,8.2578,8.2695,8.332,8.3515,8.4492,8.5898,8.6133,8.6719,8.7617,8.8398,8.9101,8.9804,6.6513,6.6782,6.7244,6.7628,6.7744,6.8359,7.0014,6.959,6.9129,6.9129,6.8359,6.7782,6.7705,6.6936,6.6782,6.7552,6.6898,6.6282,6.5897,6.6244,6.5897,6.4666,6.4205,6.3397,6.2127,6.1704,6.1281,6.0781,6.0781,6.0781,6.0781,6.0781,6.1012,6.1396,6.1897,6.2512,6.332,6.4628,6.5667,6.659,6.8219,6.909,6.9601,7.0335,7.1172,7.1836,7.1445,7.2109,7.3203,7.3281,7.3555,7.3984,7.4453,7.4883,7.5,7.4062,7.4726,7.5781,7.5781,7.668,7.7422,7.6601,7.6992,7.7422,7.6562,7.7031,7.7656,7.7656,7.664,7.5937,7.6406,7.4726,7.289,7.1601,6.9258,6.6992,6.5234,6.3515,6.2695,6.3515,6.4726,6.5625,6.6055,6.6797,6.6953,6.625,6.6758,6.7969,6.9922,7.3633,7.5703,7.5781,7.957,8.1836,8.2304,8.2695,8.289,8.289,8.3789,8.4179,8.4179,8.3711,8.375,8.4179,8.3672,8.3515,8.3672,8.4453,8.5117,8.5664,8.6484,8.7304,8.8086,8.8554,8.9492,9.0664,6.7051,6.7128,6.7513,6.8282,6.8013,6.8398,7.0552,6.9706,6.8783,6.8783,6.8013,6.7782,6.8513,6.7821,6.7898,6.936,6.8282,6.709,6.6128,6.6705,6.6397,6.4859,6.4089,6.332,6.2512,6.1627,6.1166,6.1166,6.105,6.105,6.1166,6.105,6.1473,6.2281,6.2397,6.332,6.4859,6.5705,6.6628,6.7628,6.9425,7.0328,7.0731,7.1741,7.2695,7.3398,7.2656,7.3359,7.4492,7.3906,7.418,7.4844,7.5117,7.5703,7.6328,7.6445,7.7109,7.7734,7.7461,7.8515,7.9531,7.8867,7.918,7.9492,7.8672,7.9101,7.9687,7.9687,7.8555,7.7539,7.7422,7.5351,7.3047,7.1015,6.8555,6.625,6.4375,6.293,6.2734,6.4492,6.6328,6.7812,6.8672,7.0078,7.0039,6.8008,7.0312,7.1758,7.168,7.5898,7.8125,7.7773,8.0703,8.2344,8.25,8.3359,8.3789,8.3828,8.4687,8.5117,8.5078,8.4961,8.4961,8.5078,8.4961,8.4531,8.4101,8.5586,8.5859,8.5469,8.707,8.8086,8.8711,8.8711,8.9804,9.1289,6.609,6.7244,6.8244,6.8398,6.9475,7.0437,7.0821,7.0667,7.0514,7.0514,6.9783,6.936,6.9475,6.8706,6.8321,6.859,6.9052,6.8629,6.7013,6.7013,6.6667,6.5743,6.5551,6.5089,6.4243,6.3358,6.2897,6.2897,6.2243,6.2243,6.2897,6.2204,6.232,6.3166,6.3897,6.4782,6.5743,6.6551,6.7821,6.9321,6.9771,7.0926,7.2432,7.2717,7.3476,7.4375,7.4258,7.4375,7.4687,7.5273,7.5586,7.5976,7.7422,7.8008,7.8242,7.8906,7.9726,8.0117,7.8672,7.8984,7.9687,7.9531,7.9609,7.9492,7.8672,7.9101,7.9687,7.9687,7.9492,7.9101,7.8437,7.6758,7.4453,7.1211,6.8555,6.6015,6.3555,6.3594,6.4531,6.6289,6.8633,7.0469,7.1328,7.164,7.1953,7.2265,7.1445,7.2461,7.6015,7.6953,7.832,8.0351,8.164,8.2656,8.3398,8.4258,8.4687,8.4726,8.5586,8.6015,8.5976,8.5234,8.5312,8.5976,8.5234,8.5234,8.582,8.6094,8.6562,8.7187,8.8125,8.8594,8.8711,8.8711,8.9804,9.1172,6.7244,6.7628,6.8205,6.8975,6.959,7.0206,7.0821,7.0898,7.0744,7.0321,6.9937,6.9706,6.9706,6.936,6.9283,6.9706,7.0129,6.9821,6.859,6.8052,6.7244,6.5974,6.5436,6.4782,6.3935,6.3512,6.3089,6.2666,6.2704,6.2704,6.2666,6.2704,6.3205,6.4051,6.4897,6.5743,6.6628,6.7936,6.9206,7.0398,7.1156,7.2249,7.3491,7.3749,7.4453,7.5234,7.4765,7.5195,7.6055,7.6445,7.6914,7.7539,7.875,7.914,7.9219,7.9609,8.0312,8.0937,8.0625,8.082,8.0976,8.0508,8.0742,8.0898,8.0039,8.0508,8.1094,8.1094,8.0742,8.0273,7.9922,7.7695,7.5234,7.3125,6.9492,6.6484,6.5273,6.5039,6.5976,6.8633,7.082,7.3008,7.5273,7.5078,7.4961,7.5351,7.4648,7.5273,7.7773,7.832,7.9531,8.164,8.2109,8.2734,8.3594,8.4453,8.5156,8.5625,8.6484,8.6914,8.6875,8.6484,8.6523,8.6875,8.6484,8.625,8.625,8.6719,8.6875,8.6875,8.7734,8.832,8.8633,8.8203,8.9414,9.1172,6.8359,6.8244,6.8436,6.9513,6.9629,6.9898,7.0783,7.0898,7.0667,7.0052,6.9975,6.9975,6.9975,6.9975,7.0244,7.086,7.0898,7.0552,6.9744,6.909,6.7936,6.6244,6.5359,6.4589,6.3935,6.3897,6.3589,6.2974,6.3397,6.3397,6.2974,6.3397,6.4166,6.5205,6.5859,6.6744,6.7782,6.9321,7.0475,7.1387,7.2542,7.3597,7.4424,7.4922,7.5685,7.6445,7.5976,7.664,7.7773,7.7773,7.8242,7.8906,7.9726,8.0,8.0039,8.0234,8.0781,8.1445,8.2109,8.2304,8.2109,8.1211,8.164,8.207,8.1211,8.1679,8.2304,8.2304,8.1758,8.125,8.1054,7.8555,7.5937,7.4258,7.0508,6.7578,6.6992,6.6992,6.8203,7.125,7.332,7.5625,7.8515,7.8164,7.7773,7.7773,7.7773,7.8164,7.9023,7.9687,8.0703,8.2265,8.2304,8.2812,8.3906,8.457,8.5429,8.6523,8.7187,8.75,8.75,8.75,8.75,8.75,8.75,8.7109,8.6562,8.7226,8.7109,8.6601,8.7422,8.8281,8.8945,8.832,8.957,9.1484,6.8244,6.9013,6.959,6.9667,7.0283,7.0783,7.0898,7.0898,7.0898,7.0821,7.0821,7.0821,7.0821,7.0821,7.0821,7.0898,7.0898,7.0552,6.9744,6.9629,6.8821,6.709,6.6244,6.5782,6.5705,6.5705,6.5667,6.5628,6.4859,6.4897,6.559,6.4859,6.5359,6.6898,6.6974,6.7936,6.9552,7.0437,7.1426,7.2454,7.335,7.4445,7.5578,7.6405,7.7399,7.8398,7.9062,7.9414,7.9531,7.9531,7.957,7.9765,8.0625,8.0898,8.1054,8.1875,8.2148,8.2226,8.2265,8.2304,8.2109,8.1211,8.164,8.207,8.1211,8.1679,8.2304,8.2304,8.2265,8.1953,8.1133,7.9531,7.6953,7.2851,7.1172,6.9609,6.7226,6.957,7.2226,7.4101,7.6562,7.8515,7.9492,7.9531,7.9531,7.9531,7.9531,7.9883,8.0781,8.0859,8.1328,8.2265,8.2304,8.3125,8.4804,8.4883,8.5742,8.7383,8.7461,8.75,8.75,8.75,8.75,8.75,8.75,8.7461,8.7422,8.7461,8.7461,8.7461,8.8281,8.914,8.9883,8.9844,9.0976,9.2383,6.8936,6.9321,6.9629,7.0321,7.0706,7.0898,7.0898,7.0898,7.0898,7.0898,7.0898,7.0898,7.0898,7.0898,7.0898,7.0898,7.0898,7.0783,7.0475,7.0437,6.9436,6.7205,6.632,6.6128,6.6628,6.6167,6.6128,6.6628,6.582,6.582,6.6628,6.632,6.6782,6.7936,6.8475,6.936,7.0514,7.136,7.2619,7.4098,7.4552,7.5724,7.7252,7.7711,7.8468,7.9297,7.9609,7.9687,7.9765,8.0312,8.0508,8.0664,8.1523,8.1797,8.1875,8.2187,8.2304,8.2304,8.2304,8.2304,8.2226,8.1875,8.207,8.2226,8.1875,8.207,8.2304,8.2304,8.2304,8.2187,8.1875,8.039,7.8711,7.7031,7.4258,7.2344,7.2461,7.3125,7.4453,7.6758,7.8359,7.9805,8.1172,8.082,8.0742,8.1289,8.1328,8.1445,8.1797,8.1797,8.2226,8.3086,8.3125,8.3672,8.4883,8.4883,8.5781,8.75,8.8008,8.7969,8.7539,8.8008,8.7969,8.75,8.75,8.75,8.75,8.75,8.7773,8.8281,8.8594,8.9219,9.0,9.0,9.0742,9.1758,6.9783,6.9898,6.9975,7.0744,7.0898,7.0898,7.0898,7.0898,7.0898,7.0898,7.1129,7.1321,7.1321,7.1321,7.1321,7.1321,7.1052,7.0898,7.0898,7.0667,6.9744,6.7975,6.7128,6.6936,6.7513,6.6974,6.6974,6.7513,6.6974,6.6974,6.7513,6.7513,6.8129,6.9206,6.9821,7.0821,7.2129,7.2745,7.3966,7.5551,7.597,7.6971,7.8359,7.9025,7.9648,8.0156,8.0429,8.0508,8.0625,8.1211,8.1406,8.1523,8.2109,8.2304,8.2344,8.2617,8.25,8.2344,8.2617,8.25,8.2304,8.2304,8.2304,8.2304,8.2304,8.2304,8.2304,8.2304,8.2304,8.2304,8.2304,8.1094,7.9922,7.9414,7.6836,7.5234,7.6172,7.625,7.6953,7.9023,8.0,8.0976,8.2187,8.1758,8.164,8.2265,8.2304,8.2304,8.2304,8.2304,8.2578,8.3164,8.3476,8.4023,8.4883,8.5156,8.6054,8.75,8.832,8.8281,8.7539,8.832,8.8242,8.75,8.7773,8.7734,8.7539,8.8086,8.8437,8.8711,8.8984,8.9648,9.039,9.039,9.0976,9.1719,7.0744,7.0898,7.0898,7.0898,7.0898,7.0898,7.0898,7.0898,7.0898,7.0898,7.1668,7.2206,7.2206,7.2206,7.2206,7.2206,7.1398,7.0937,7.0898,7.0167,6.9706,6.9706,6.8859,6.8398,6.8398,6.8398,6.8398,6.8436,6.8398,6.8398,6.8436,6.8436,6.9321,7.0898,7.0937,7.2322,7.4707,7.4707,7.5466,7.6696,7.7544,7.8174,7.8711,8.0351,8.1015,8.1133,8.1992,8.2304,8.2304,8.2304,8.2304,8.2304,8.2304,8.2304,8.2461,8.3359,8.2969,8.25,8.3359,8.2969,8.2304,8.2304,8.2304,8.2304,8.2304,8.2304,8.2304,8.2304,8.2304,8.2304,8.2304,8.1601,8.0469,7.8789,7.8515,7.8203,7.7344,7.8672,8.0039,8.0898,8.1758,8.2304,8.2304,8.2304,8.2304,8.2304,8.2304,8.2304,8.2304,8.2304,8.2304,8.2304,8.3164,8.4023,8.4883,8.5781,8.664,8.75,8.832,8.8281,8.7539,8.832,8.8242,8.7539,8.8359,8.8242,8.7656,8.9297,8.9492,8.8828,8.9687,9.0547,9.1328,9.1328,9.1875,9.2617,7.0744,7.0437,7.0244,7.0783,7.0898,7.0898,7.0898,7.0898,7.1129,7.1745,7.2052,7.2437,7.3053,7.3129,7.3129,7.3129,7.286,7.2476,7.186,7.1014,7.0552,7.0552,6.9167,6.8706,6.9321,6.8706,6.8975,7.0167,6.8975,6.9013,7.0167,7.0167,7.0821,7.2041,7.2514,7.3899,7.5822,7.5813,7.6804,7.8402,7.8786,7.9477,8.0312,8.082,8.1367,8.1953,8.2226,8.2304,8.2304,8.2304,8.2304,8.2304,8.2304,8.2304,8.2461,8.3359,8.2969,8.25,8.3359,8.2969,8.2461,8.3047,8.2734,8.2461,8.3086,8.2734,8.2304,8.2304,8.2304,8.2304,8.2304,8.2109,8.1562,8.0429,8.0234,8.0156,7.9883,8.0312,8.0937,8.1797,8.2148,8.2304,8.2304,8.2304,8.2304,8.2304,8.2304,8.2304,8.2304,8.2304,8.2578,8.3203,8.3476,8.4297,8.5781,8.6054,8.664,8.75,8.832,8.8281,8.7539,8.832,8.8242,8.75,8.7734,8.8047,8.8398,8.8867,8.9648,9.0547,9.082,9.1445,9.2226,9.2226,9.2383,9.2617,7.0783,7.0514,7.0437,7.1283,7.1398,7.1514,7.1898,7.1937,7.2129,7.2668,7.2976,7.3399,7.3937,7.3976,7.3976,7.3976,7.3668,7.3283,7.2745,7.2206,7.1937,7.1937,7.0629,6.9975,7.0167,6.9667,6.9898,7.0898,6.9898,7.009,7.1398,7.1398,7.2157,7.3504,7.4273,7.562,7.7314,7.7391,7.8282,7.9632,7.9825,8.0336,8.1054,8.1367,8.1836,8.2304,8.2304,8.2304,8.2304,8.2304,8.2304,8.2344,8.2695,8.2812,8.3047,8.4258,8.3789,8.3008,8.3867,8.3242,8.25,8.3398,8.2929,8.2539,8.3398,8.2929,8.2304,8.2304,8.2304,8.2304,8.2304,8.2304,8.2148,8.1601,8.1523,8.1523,8.1523,8.1523,8.1719,8.2226,8.2304,8.2304,8.2304,8.2304,8.2304,8.2304,8.2304,8.2304,8.2304,8.2304,8.2539,8.3086,8.375,8.4609,8.5664,8.6367,8.6992,8.75,8.8672,8.8789,8.8008,8.9179,8.9258,8.8515,8.8867,8.9062,8.9258,8.9961,9.0664,9.1328,9.1679,9.2148,9.2617,9.2617,9.2617,9.2617,7.0898,7.0975,7.1283,7.2052,7.2245,7.2591,7.3399,7.3514,7.3553,7.3591,7.4245,7.4745,7.4822,7.4822,7.4822,7.4822,7.4091,7.363,7.363,7.3553,7.3514,7.3514,7.2745,7.1937,7.1168,7.1052,7.1052,7.1129,7.1129,7.1552,7.2322,7.2399,7.3427,7.5197,7.5947,7.7302,7.8976,7.9143,7.9738,8.0548,8.0779,8.0964,8.1211,8.1992,8.2304,8.2304,8.2304,8.2304,8.2304,8.2304,8.2304,8.2461,8.332,8.3594,8.3945,8.5703,8.5039,8.3906,8.4765,8.375,8.2617,8.3515,8.3008,8.2539,8.3398,8.2929,8.2304,8.2304,8.2304,8.2304,8.2304,8.2304,8.2304,8.2304,8.2304,8.2304,8.2304,8.2304,8.2304,8.2304,8.2304,8.2304,8.2304,8.2304,8.2304,8.2304,8.2304,8.2304,8.2304,8.2304,8.2304,8.2304,8.3906,8.4804,8.4883,8.6562,8.7422,8.7539,8.9101,8.9453,8.875,9.0429,9.0742,9.0039,9.0859,9.0781,9.0234,9.1836,9.207,9.1484,9.2304,9.2617,9.2617,9.2617,9.2617,9.2617,7.0898,7.1437,7.1975,7.2168,7.2745,7.3283,7.3476,7.3514,7.3745,7.4361,7.4591,7.4976,7.563,7.5707,7.5707,7.5707,7.4938,7.4437,7.4437,7.386,7.3514,7.3514,7.3322,7.3129,7.2937,7.2283,7.2245,7.2937,7.2937,7.3091,7.3465,7.412,7.5148,7.6465,7.6359,7.7781,8.0236,7.9525,8.0136,8.1671,8.1882,8.1972,8.2031,8.2226,8.2304,8.2304,8.2304,8.2304,8.2304,8.2304,8.2304,8.2461,8.332,8.3594,8.3945,8.5703,8.5469,8.4804,8.5664,8.4648,8.3515,8.4414,8.3437,8.2539,8.3398,8.2929,8.2304,8.2304,8.2304,8.2304,8.2304,8.2304,8.2304,8.2304,8.2304,8.2304,8.2304,8.2304,8.2304,8.2304,8.2304,8.2304,8.2304,8.2304,8.2304,8.2304,8.2304,8.2304,8.2304,8.2304,8.2304,8.2304,8.332,8.4219,8.4883,8.5937,8.6836,8.75,8.8515,8.8867,8.875,8.9804,9.0195,9.0,9.0195,9.0547,9.1054,9.1445,9.1875,9.2344,9.2539,9.2617,9.2617,9.2617,9.2617,9.2617,7.1975,7.2168,7.2437,7.3245,7.3783,7.4207,7.463,7.4707,7.4861,7.5284,7.5322,7.5476,7.5938,7.6015,7.6015,7.6015,7.5976,7.5745,7.5361,7.4938,7.4707,7.4707,7.4284,7.4284,7.4668,7.386,7.3437,7.3514,7.3514,7.3783,7.4389,7.5159,7.5995,7.6966,7.7835,7.8964,8.009,8.0513,8.1187,8.2015,8.221,8.2304,8.2304,8.2304,8.2304,8.2304,8.2304,8.2304,8.2304,8.2304,8.2304,8.2539,8.3828,8.4219,8.457,8.6328,8.6211,8.5625,8.6094,8.5234,8.4336,8.4804,8.4219,8.3554,8.3594,8.2929,8.2304,8.2304,8.2304,8.2304,8.2304,8.2304,8.2304,8.2304,8.2304,8.2304,8.2304,8.2304,8.2304,8.2304,8.2304,8.2304,8.2304,8.2304,8.2304,8.2304,8.2304,8.2304,8.2304,8.2695,8.2929,8.2929,8.4179,8.5078,8.5508,8.6367,8.7031,8.75,8.875,8.9531,8.9961,9.0859,9.125,9.125,9.125,9.1484,9.1914,9.1914,9.1953,9.1992,9.1992,9.1992,9.1992,9.1992,9.2226,9.2617,7.3014,7.2937,7.3053,7.4476,7.4822,7.5168,7.5899,7.6015,7.6015,7.6015,7.613,7.6207,7.6207,7.6322,7.6438,7.6438,7.7092,7.7207,7.6476,7.6284,7.6284,7.6438,7.5592,7.5476,7.6207,7.5668,7.4899,7.3937,7.3937,7.4476,7.5505,7.6041,7.6773,7.7689,7.9442,8.0115,7.9989,8.1421,8.2052,8.2056,8.2241,8.2304,8.2304,8.2304,8.2304,8.2304,8.2304,8.2304,8.2304,8.2461,8.2539,8.2812,8.457,8.5117,8.5469,8.7187,8.7109,8.6445,8.6601,8.5898,8.5117,8.5117,8.5,8.4726,8.3984,8.3242,8.2695,8.2539,8.2656,8.2656,8.2344,8.2422,8.2461,8.2304,8.2304,8.2304,8.2304,8.2304,8.2304,8.2304,8.2304,8.2304,8.2304,8.2304,8.2304,8.2304,8.2304,8.2304,8.2304,8.3008,8.3437,8.3594,8.5156,8.6054,8.6211,8.707,8.7656,8.7929,8.9336,9.039,9.1094,9.2148,9.2617,9.2617,9.2617,9.2617,9.2578,9.2422,9.1953,9.1289,9.1289,9.1211,9.1094,9.125,9.1836,9.2617,7.2476,7.3437,7.4437,7.4668,7.5322,7.5861,7.5976,7.6015,7.6015,7.6015,7.6669,7.713,7.713,7.7746,7.8169,7.8169,7.8246,7.8284,7.8169,7.7515,7.7438,7.813,7.7361,7.6976,7.713,7.7669,7.7207,7.5668,7.5668,7.6313,7.7497,7.7602,7.8663,8.0423,7.9812,8.042,8.1842,8.1194,8.1459,8.2246,8.2303,8.2304,8.2304,8.2304,8.2304,8.2304,8.2304,8.2304,8.2422,8.3164,8.3437,8.3711,8.5469,8.6015,8.6367,8.8047,8.7969,8.7461,8.8164,8.7226,8.6015,8.6015,8.5469,8.4883,8.4765,8.4648,8.4336,8.3594,8.4023,8.4101,8.2578,8.2929,8.3164,8.2422,8.2304,8.2304,8.2304,8.2304,8.2304,8.2304,8.2304,8.2304,8.2304,8.2304,8.2304,8.2304,8.2304,8.2304,8.2304,8.2422,8.2812,8.3594,8.457,8.5429,8.6172,8.707,8.8242,8.9648,8.9883,9.0078,9.0234,9.1875,9.2617,9.2617,9.2617,9.2617,9.2539,9.1797,9.1406,9.1289,9.1289,9.0859,9.0273,9.1015,9.1836,9.2617,7.4207,7.4514,7.4861,7.5361,7.5745,7.6015,7.6015,7.6399,7.6746,7.6746,7.7438,7.7977,7.7977,7.8707,7.9015,7.8515,7.8938,7.9015,7.8515,7.8169,7.813,7.8477,7.8169,7.7977,7.7977,7.8323,7.813,7.74,7.74,7.7814,7.8604,7.8953,7.9543,8.0298,8.0676,8.1137,8.1562,8.1607,8.1875,8.2304,8.2304,8.2304,8.2304,8.2304,8.2304,8.2304,8.2304,8.2617,8.3086,8.3476,8.3906,8.4531,8.5781,8.6523,8.7148,8.8359,8.8437,8.8242,8.8594,8.7812,8.6797,8.6328,8.6289,8.6211,8.5742,8.6015,8.5976,8.4609,8.4648,8.4648,8.3906,8.4062,8.4023,8.3164,8.3437,8.3398,8.2422,8.2734,8.2851,8.2344,8.2304,8.2304,8.2304,8.2304,8.25,8.3008,8.3047,8.3242,8.3711,8.4219,8.4648,8.5039,8.5898,8.6523,8.6914,8.7304,8.8086,8.9297,8.9765,9.0508,9.1484,9.2265,9.2617,9.2617,9.2617,9.2304,9.1875,9.1992,9.1172,8.9883,9.039,9.0351,9.0117,9.0976,9.1836,9.2617]},{"header":{"parameterUnit":"m.s-1","parameterCategory":1,"la1":30.6,"la2":28.766,"lo1":-90.7593,"lo2":-88.6598,"dy":0.0162,"dx":0.0183,"nx":116,"ny":114,"refTime":"2024-03-27T12:00:00:Z","depth":0,"parameterNumber":3,"parameterNumberName":"V-component_of_WINDS"},"data":[0.0,0.0,0.0,0.0,0.0,0.0,0.0,0.0,0.0,0.0,0.0,0.0,0.0,0.0,0.0,0.0,0.0,0.0,0.0,0.0,0.0,0.0,0.0,0.0,0.0,0.0,0.0,0.0,0.0,0.0,0.0,0.0,0.0,0.0,0.0,0.0,0.0,0.0,0.0,0.0,0.0,0.0,0.0,0.0,0.0,0.0,0.0,0.0,0.0,0.0,0.0,0.0,0.0,0.0,0.0,0.0,0.0,0.0,0.0,0.0,0.0,0.0,0.0,0.0,0.0,0.0,0.0,0.0,0.0,0.0,0.0,0.0,0.0,0.0,0.0,0.0,0.0,0.0,0.0,0.0,0.0,0.0,0.0,0.0,0.0,0.0,0.0,0.0,0.0,0.0,0.0,0.0,0.0,0.0,0.0,0.0,0.0,0.0,0.0,0.0,0.0,0.0,0.0,0.0,0.0,0.0,0.0,0.0,0.0,0.0,0.0,0.0,0.0,0.0,0.0,0.0,0.0,0.0,0.0,0.0,0.0,0.0,0.0,0.0,0.0,0.0,0.0,0.0,0.0,0.0,0.0,0.0,0.0,0.0,0.0,0.0,0.0,0.0,0.0,0.0,0.0,0.0,0.0,0.0,0.0,0.0,0.0,0.0,0.0,0.0,0.0,0.0,0.0,0.0,0.0,0.0,0.0,0.0,0.0,0.0,0.0,0.0,0.0,0.0,0.0,0.0,0.0,0.0,0.0,0.0,0.0,0.0,0.0,0.0,0.0,0.0,0.0,0.0,0.0,0.0,0.0,0.0,0.0,0.0,0.0,0.0,0.0,0.0,0.0,0.0,0.0,0.0,0.0,0.0,0.0,0.0,0.0,0.0,0.0,0.0,0.0,0.0,0.0,0.0,0.0,0.0,0.0,0.0,0.0,0.0,0.0,0.0,0.0,0.0,0.0,0.0,0.0,0.0,0.0,0.0,0.0,0.0,0.0,0.0,0.0,0.0,0.0,0.0,0.0,0.0,0.0,0.0,0.0,0.0,0.0,0.0,0.0,0.0,0.0,0.0,0.0,0.0,0.0,0.0,0.0,0.0,0.0,0.0,0.0,0.0,0.0,0.0,0.0,0.0,0.0,0.0,0.0,0.0,0.0,0.0,0.0,0.0,0.0,0.0,0.0,0.0,0.0,0.0,0.0,0.0,0.0,0.0,0.0,0.0,0.0,0.0,0.0,0.0,0.0,0.0,0.0,0.0,0.0,0.0,0.0,0.0,0.0,0.0,0.0,0.0,0.0,0.0,0.0,0.0,0.0,0.0,0.0,0.0,0.0,0.0,0.0,0.0,0.0,0.0,0.0,0.0,0.0,0.0,0.0,0.0,0.0,0.0,0.0,0.0,0.0,0.0,0.0,0.0,0.0,0.0,0.0,0.0,0.0,0.0,0.0,0.0,0.0,0.0,0.0,0.0,0.0,0.0,0.0,0.0,0.0,0.0,0.0,0.0,0.0,0.0,0.0,0.0,0.0,0.0,0.0,0.0,0.0,0.0,0.0,0.0,0.0,0.0,0.0,0.0,0.0,0.0,0.0,0.0,0.0,0.0,0.0,0.0,0.0,0.0,0.0,0.0,0.0,0.0,0.0,0.0,0.0,0.0,0.0,0.0,0.0,0.0,0.0,0.0,0.0,0.0,0.0,0.0,0.0,0.0,0.0,0.0,0.0,0.0,0.0,0.0,0.0,0.0,0.0,0.0,0.0,0.0,0.0,0.0,0.0,0.0,0.0,0.0,0.0,0.0,0.0,0.0,0.0,0.0,0.0,0.0,0.0,0.0,0.0,0.0,0.0,0.0,0.0,0.0,0.0,0.0,0.0,0.0,0.0,0.0,0.0,0.0,0.0,0.0,0.0,0.0,0.0,0.0,0.0,0.0,0.0,0.0,0.0,0.0,0.0,0.0,0.0,0.0,0.0,0.0,0.0,0.0,0.0,0.0,0.0,0.0,0.0,0.0,0.0,0.0,0.0,0.0,0.0,0.0,0.0,0.0,0.0,0.0,0.0,0.0,0.0,0.0,0.0,0.0,0.0,0.0,0.0,0.0,0.0,0.0,0.0,0.0,0.0,0.0,0.0,0.0,0.0,0.0,0.0,0.0,0.0,0.0,0.0,0.0,0.0,0.0,0.0,0.0,0.0,0.0,0.0,0.0,0.0,0.0,0.0,0.0,0.0,0.0,0.0,0.0,0.0,0.0,0.0,0.0,0.0,0.0,0.0,0.0,0.0,0.0,0.0,0.0,0.0,0.0,0.0,0.0,0.0,0.0,0.0,0.0,0.0,0.0,0.0,0.0,0.0,0.0,0.0,0.0,0.0,0.0,0.0,0.0,0.0,0.0,0.0,0.0,0.0,0.0,0.0,0.0,0.0,0.0,0.0,0.0,0.0,0.0,0.0,0.0,0.0,0.0,0.0,0.0,0.0,0.0,0.0,0.0,0.0,0.0,0.0,0.0,0.0,0.0,0.0,0.0,0.0,0.0,0.0,0.0,0.0,0.0,0.0,0.0,0.0,0.0,0.0,0.0,0.0,0.0,0.0,0.0,0.0,0.0,0.0,0.0,0.0,0.0,0.0,0.0,0.0,0.0,0.0,0.0,0.0,0.0,0.0,0.0,0.0,0.0,0.0,0.0,0.0,0.0,0.0,0.0,0.0,0.0,0.0,0.0,0.0,0.0,0.0,0.0,0.0,0.0,0.0,0.0,0.0,0.0,0.0,0.0,0.0,0.0,0.0,0.0,0.0,0.0,0.0,0.0,0.0,0.0,0.0,0.0,0.0,0.0,0.0,0.0,0.0,0.0,0.0,0.0,0.0,0.0,0.0,0.0,0.0,0.0,0.0,0.0,0.0,0.0,0.0,0.0,0.0,0.0,0.0,0.0,0.0,0.0,0.0,0.0,0.0,0.0,0.0,0.0,0.0,0.0,0.0,0.0,0.0,0.0,0.0,0.0,0.0,0.0,0.0,0.0,0.0,0.0,0.0,0.0,0.0,0.0,0.0,0.0,0.0,0.0,0.0,0.0,0.0,0.0,0.0,0.0,0.0,0.0,0.0,0.0,0.0,0.0,0.0,0.0,0.0,0.0,0.0,0.0,0.0,0.0,0.0,0.0,0.0,0.0,0.0,0.0,0.0,0.0,0.0,0.0,0.0,0.0,0.0,0.0,0.0,0.0,0.0,0.0,0.0,0.0,0.0,0.0,0.0,0.0,0.0,0.0,0.0,0.0,0.0,0.0,0.0,0.0,0.0,0.0,0.0,0.0,0.0,0.0,0.0,0.0,0.0,0.0,0.0,0.0,0.0,0.0,0.0,0.0,0.0,0.0,0.0,0.0,0.0,0.0,0.0,0.0,0.0,0.0,0.0,0.0,0.0,0.0,0.0,0.0,0.0,0.0,0.0,0.0,0.0,0.0,0.0,0.0,0.0,0.0,0.0,0.0,0.0,0.0,0.0,0.0,0.0,0.0,0.0,0.0,0.0,0.0,0.0,0.0,0.0,0.0,0.0,0.0,0.0,0.0,0.0,0.0,0.0,0.0,0.0,0.0,0.0,0.0,0.0,0.0,0.0,0.0,0.0,0.0,0.0,0.0,0.0,0.0,0.0,0.0,0.0,0.0,0.0,0.0,0.0,0.0,0.0,0.0,0.0,0.0,0.0,0.0,0.0,0.0,0.0,0.0,0.0,0.0,0.0,0.0,0.0,0.0,0.0,0.0,0.0,0.0,0.0,0.0,0.0,0.0,0.0,0.0,0.0,0.0,0.0,0.0,0.0,0.0,0.0,0.0,0.0,0.0,0.0,0.0,0.0,0.0,0.0,0.0,0.0,0.0,0.0,0.0,0.0,0.0,0.0,0.0,0.0,0.0,0.0,0.0,0.0,0.0,0.0,0.0,0.0,0.0,0.0,0.0,0.0,0.0,0.0,0.0,0.0,0.0,0.0,0.0,0.0,0.0,0.0,0.0,0.0,0.0,0.0,0.0,0.0,0.0,0.0,0.0,0.0,0.0,0.0,0.0,0.0,0.0,0.0,0.0,0.0,0.0,0.0,0.0,0.0,0.0,0.0,0.0,0.0,0.0,0.0,0.0,0.0,0.0,0.0,0.0,0.0,0.0,0.0,0.0,0.0,0.0,0.0,0.0,0.0,0.0,0.0,0.0,0.0,0.0,0.0,0.0,0.0,0.0,0.0,0.0,0.0,0.0,0.0,0.0,0.0,0.0,0.0,0.0,0.0,0.0,0.0,0.0,0.0,0.0,0.0,0.0,0.0,0.0,0.0,0.0,0.0,0.0,0.0,0.0,0.0,0.0,0.0,0.0,0.0,0.0,0.0,0.0,0.0,0.0,0.0,0.0,0.0,0.0,0.0,0.0,0.0,0.0,0.0,0.0,0.0,0.0,0.0,0.0,0.0,0.0,0.0,0.0,0.0,0.0,0.0,0.0,0.0,0.0,0.0,0.0,0.0,0.0,0.0,0.0,0.0,0.0,0.0,0.0,0.0,0.0,0.0,0.0,0.0,0.0,0.0,0.0,0.0,0.0,0.0,0.0,0.0,0.0,0.0,0.0,0.0,0.0,0.0,0.0,0.0,0.0,0.0,0.0,0.0,0.0,0.0,0.0,0.0,0.0,0.0,0.0,0.0,0.0,0.0,0.0,0.0,0.0,0.0,0.0,0.0,0.0,0.0,0.0,0.0,0.0,0.0,0.0,0.0,0.0,0.0,0.0,0.0,0.0,0.0,0.0,0.0,0.0,0.0,0.0,0.0,0.0,0.0,0.0,0.0,0.0,0.0,0.0,0.0,0.0,0.0,0.0,0.0,0.0,0.0,0.0,0.0,0.0,0.0,0.0,0.0,0.0,0.0,0.0,0.0,0.0,0.0,0.0,0.0,0.0,0.0,0.0,0.0,0.0,0.0,0.0,0.0,0.0,0.0,0.0,0.0,0.0,0.0,0.0,0.0,0.0,0.0,0.0,0.0,0.0,0.0,0.0,0.0,0.0,0.0,0.0,0.0,0.0,0.0,0.0,0.0,0.0,0.0,0.0,0.0,0.0,0.0,0.0,0.0,0.0,0.0,0.0,0.0,0.0,0.0,0.0,0.0,0.0,0.0,0.0,0.0,0.0,0.0,0.0,0.0,0.0,0.0,0.0,0.0,0.0,0.0,0.0,0.0,0.0,0.0,0.0,0.0,0.0,0.0,0.0,0.0,0.0,0.0,0.0,0.0,0.0,0.0,0.0,0.0,0.0,0.0,0.0,0.0,0.0,0.0,0.0,0.0,0.0,0.0,0.0,0.0,0.0,0.0,0.0,0.0,0.0,0.0,0.0,0.0,0.0,0.0,0.0,0.0,0.0,0.0,0.0,0.0,0.0,0.0,0.0,0.0,0.0,0.0,0.0,0.0,0.0,0.0,0.0,0.0,0.0,0.0,0.0,0.0,0.0,0.0,0.0,0.0,0.0,0.0,0.0,0.0,0.0,0.0,0.0,0.0,0.0,0.0,0.0,0.0,0.0,0.0,0.0,0.0,0.0,0.0,0.0,0.0,0.0,0.0,0.0,0.0,0.0,0.0,0.0,0.0,0.0,0.0,0.0,0.0,0.0,0.0,0.0,0.0,0.0,0.0,0.0,0.0,0.0,0.0,0.0,0.0,0.0,0.0,0.0,0.0,0.0,0.0,0.0,0.0,0.0,0.0,0.0,0.0,0.0,0.0,0.0,0.0,0.0,0.0,0.0,0.0,0.0,0.0,0.0,0.0,0.0,0.0,0.0,0.0,0.0,0.0,0.0,0.0,0.0,0.0,0.0,0.0,0.0,0.0,0.0,0.0,0.0,0.0,0.0,0.0,0.0,0.0,0.0,0.0,0.0,0.0,0.0,0.0,0.0,0.0,0.0,0.0,0.0,0.0,0.0,0.0,0.0,0.0,0.0,0.0,0.0,0.0,0.0,0.0,0.0,0.0,0.0,0.0,0.0,0.0,0.0,0.0,0.0,0.0,0.0,0.0,0.0,0.0,0.0,0.0,0.0,0.0,0.0,0.0,0.0,0.0,0.0,0.0,0.0,0.0,0.0,0.7437,0.6587,0.0,0.0,0.0,0.0,0.0,0.0,0.0,0.0,0.0,0.0,0.0,0.0,0.0,0.0,0.0,0.0,0.0,0.0,0.0,0.0,0.0,0.0,0.0,0.7726,0.7875,0.8024,0.8038,0.8038,0.8038,0.0,0.0,0.0,0.0,0.0,0.8038,0.8038,0.8038,0.8038,0.8038,0.8038,0.8038,0.8627,0.9061,0.9145,0.0,0.0,0.0,0.0,0.0,0.0,0.0,0.0,0.0,0.0,0.0,0.0,0.0,0.0,0.0,0.0,0.0,0.0,0.0,0.0,0.0,0.0,0.0,0.0,0.0,0.0,0.0,0.0,0.0,0.0,0.0,0.0,0.0,0.0,0.0,0.0,0.0,0.0,0.0,0.0,0.0,0.0,0.0,0.0,0.0,0.0,0.0,0.0,0.0,0.0,0.0,0.0,0.0,0.0,0.0,0.0,0.0,0.0,0.0,0.0,0.0,0.0,0.0,0.0,0.0,0.0,0.0,0.0,0.0,0.0,0.4836,0.2785,0.0,0.0,0.0,0.0,0.0,0.0,0.0,0.0,0.0,0.0,0.0,0.0,0.0,0.0,0.0,0.0,0.0,0.0,0.0,0.0,0.0,0.74,0.7584,0.7706,0.7848,0.8024,0.8038,0.8038,0.8038,0.8038,0.0,0.0,0.8038,0.8038,0.8038,0.8038,0.8038,0.8038,0.8065,0.8079,0.8079,0.9222,1.0045,1.0519,0.9522,0.0,0.0,0.0,0.0,0.0,0.0,0.0,0.0,0.0,0.0,0.0,0.0,0.0,0.0,0.0,0.0,0.0,0.0,0.0,0.0,0.0,0.0,0.0,0.0,0.0,0.0,0.0,0.0,0.0,0.0,0.0,0.0,0.0,0.0,0.0,0.0,0.0,0.0,0.0,0.0,0.0,0.0,0.0,0.0,0.0,0.0,0.0,0.0,0.0,0.0,0.0,0.0,0.0,0.0,0.0,0.0,0.0,0.0,0.0,0.0,0.0,0.0,0.0,0.0,0.0,0.0,0.0,0.292,0.781,0.2406,0.0,0.0,0.0,0.0,0.0,0.0,0.0,0.0,0.0,0.0,0.0,0.0,0.0,0.0,0.0,0.0,0.0,0.0,0.0,0.0,0.0,0.0,0.7278,0.757,0.7617,0.774,0.8018,0.8038,0.8038,0.8038,0.8038,0.8038,0.8038,0.8038,0.8038,0.8038,0.8038,0.8038,0.8038,0.8174,0.8241,0.8248,0.8709,0.9655,1.0966,1.1355,1.205,1.3036,0.0,0.0,0.0,0.0,0.0,0.0,0.0,0.0,0.0,0.0,0.0,0.0,0.0,0.0,0.0,0.0,0.0,0.0,0.0,0.0,0.0,0.0,0.0,0.0,0.0,0.0,0.0,0.0,0.0,0.0,0.0,0.0,0.0,0.0,0.0,0.0,0.0,0.0,0.0,0.0,0.0,0.1144,0.1161,0.0,0.0,0.0,0.0,0.0,0.0,0.0,0.0,0.0,0.0,0.0,0.0,0.0,0.0,0.0,0.0,0.0,0.0,0.0,0.0,0.0,0.0,0.0449,0.1186,0.0302,0.0,0.0,0.0,0.0,0.0,0.0,0.0,0.0,0.0,0.0,0.0,0.0,0.0,0.0,0.0,0.0,0.0,0.0,0.0,0.0,0.0,0.0,0.0,0.0,0.7672,0.7807,0.8018,0.8119,0.8133,0.8045,0.8119,0.8133,0.8045,0.8038,0.8038,0.8038,0.8038,0.8119,0.8289,0.8445,0.856,0.8648,0.9522,1.0429,1.1236,1.2068,1.269,1.3146,1.1246,0.0,0.0,0.0,0.0,0.0,0.0,0.0,0.0,0.0,0.0,0.0,0.0,0.0,0.0,0.0,0.0,0.0,0.0,0.0,0.0,0.0,0.0,0.0,0.0,0.0,0.0,0.0,0.0,0.0,0.0,0.0,0.0,0.0,0.0,0.0,0.0,0.0,0.0,0.0,0.0,0.0,0.0,0.2271,0.5196,0.0,0.0,0.0,0.0,0.0,0.0,0.0,0.0,0.0,0.0,0.0,0.0,0.0,0.0,0.0,0.0,0.0,0.0,0.0,0.0,0.0,0.0,0.0,0.0,0.0,0.0,0.0,0.0,0.0,0.0,0.0,0.0,0.0,0.0,0.0,0.0,0.0,0.0,0.0,0.0,0.0,0.0,0.0,0.0,0.0,0.0,0.7631,0.7746,0.7889,0.8085,0.8208,0.8221,0.8106,0.8167,0.816,0.8045,0.8038,0.8038,0.8038,0.8113,0.8262,0.8479,0.871,0.8899,0.9049,1.0032,1.0723,1.0962,1.169,1.246,1.3177,1.0949,1.0225,1.0543,0.0,0.0,0.0,0.0,0.0,0.0,0.0,0.0,0.0,0.0,0.0,0.0,0.0,0.0,0.0,0.0,0.0,0.0,0.0,0.0,0.0,0.0,0.0,0.0,0.0,0.0,0.0,0.0,0.0,0.0,0.0,0.0,0.0,0.0,0.0,0.0,0.0,0.0,0.0,0.0,0.0,0.175,0.0,0.0,0.0,0.0,0.0,0.0,0.0,0.0,0.0,0.0,0.0,0.0,0.0,0.0,0.0,0.0,0.0,0.0,0.0,0.0,0.0,0.0,0.0,0.0,0.0,0.0,0.0,0.0,0.0,0.0,0.0,0.0,0.0,0.0,0.0,0.0,0.0,0.0,0.0,0.0,0.0,0.0,0.0,0.0,0.0,0.7319,0.7753,0.7807,0.7929,0.8235,0.8269,0.8269,0.8262,0.8126,0.8045,0.8038,0.8038,0.8038,0.8038,0.8316,0.8465,0.8479,0.892,0.9211,0.9361,0.947,0.971,1.0115,0.9964,1.1462,1.4049,1.3206,1.2284,1.1432,1.1152,0.0,0.0,0.0,0.0,0.0,0.0,0.0,0.0,0.0,0.0,0.0,0.0,0.0,0.0,0.0,0.0,0.0,0.0,0.0,0.0,0.0,0.0,0.0,0.0,0.0,0.0,0.0,0.0,0.0,0.0,0.0,0.0,0.0,0.0,0.0,0.0,0.0,0.0,0.0,0.0,0.0,0.0,0.0,0.0,0.0,0.0,0.0,0.0,0.0,0.0,0.0,0.0,0.0,0.0,0.0,0.0,0.0,0.0,0.0,0.0,0.0,0.0,0.0,0.0,0.0,0.0,0.0,0.0,0.0,0.0,0.0,0.0,0.0,0.0,0.0,0.0,0.0,0.0,0.0,0.0,0.6865,0.7102,0.7143,0.7197,0.7353,0.7407,0.7604,0.8058,0.8106,0.8228,0.8526,0.8465,0.837,0.8275,0.8221,0.8147,0.8045,0.8038,0.8085,0.8187,0.8479,0.8723,0.8913,0.9273,0.9571,0.9808,0.9808,0.9951,1.0195,1.0141,1.0703,1.1587,1.1067,1.098,1.1131,0.9968,0.9247,0.0,0.0,0.0,0.0,0.0,0.0,0.0,0.0,0.0,0.0,0.0,0.0,0.0,0.0,0.0,0.0,0.0,0.0,0.0,0.0,0.0,0.0,0.0,0.0,0.0,0.0,0.0,0.0,0.0,0.0,0.0,0.0,0.0,0.0,0.0,0.0,0.0,0.0,0.0,0.0,0.0,0.0,0.0,0.0,0.0,0.0,0.0,0.0,0.0,0.0,0.0,0.0,0.0,0.0,0.0,0.0,0.0,0.0,0.0,0.0,0.0,0.0,0.0,0.0,0.0,0.0,0.0,0.0,0.0,0.0,0.0,0.0,0.0,0.0,0.0,0.0,0.0,0.0,0.6668,0.6783,0.7034,0.7109,0.7197,0.7353,0.7502,0.7773,0.8221,0.8316,0.8465,0.8764,0.8601,0.8438,0.835,0.8248,0.8147,0.8045,0.8092,0.8187,0.8336,0.873,0.9055,0.9306,0.9666,0.9958,1.0195,1.0148,1.0236,1.0426,1.0378,1.0378,1.0405,1.0053,1.0144,1.0524,0.9307,0.8954,0.9035,0.0,0.0,0.0,0.0,0.0,0.0,0.0,0.0,0.0,0.0,0.0,0.0,0.0,0.0,0.0,0.0,0.0,0.0,0.0,0.0,0.0,0.0,0.0,0.0,0.0,0.0,0.0,0.0,0.0,0.0,0.0,0.0,0.0,0.0,0.0,0.0,0.0,0.0,0.0,0.0,0.0,0.0,0.0,0.0,0.0,0.0,0.0,0.0,0.0,0.0,0.0,0.0,0.0,0.0,0.0,0.0,0.0,0.0,0.0,0.0,0.0,0.0,0.0,0.0,0.0,0.0,0.0,0.0,0.0,0.0,0.0,0.0,0.0,0.0,0.0,0.0,0.6451,0.66,0.6749,0.6905,0.7048,0.7197,0.736,0.7509,0.778,0.8241,0.8411,0.8615,0.8927,0.8662,0.8479,0.8479,0.8201,0.8038,0.8045,0.8194,0.835,0.8499,0.9083,0.9462,0.9625,1.0066,1.0351,1.0487,1.0351,1.0439,1.0711,1.0568,1.0582,1.0711,1.0555,1.0161,0.9612,0.9293,0.9259,0.9367,0.0,0.0,0.0,0.0,0.0,0.0,0.0,0.0,0.0,0.0,0.0,0.0,0.0,0.0,0.0,0.0,0.0,0.0,0.0,0.0,0.0,0.0,0.0,0.0,0.0,0.0,0.0,0.0,0.0,0.0,0.0,0.0,0.0,0.0,0.0,0.0,0.0,0.0,0.0,0.0,0.0,0.0,0.0,0.0,0.0,0.0,0.0,0.0,0.0,0.0,0.0,0.0,0.0,0.0,0.0,0.0,0.0,0.0,0.0,0.0,0.0,0.0,0.0,0.0,0.0,0.0,0.0,0.0,0.0,0.0,0.0,0.0,0.0,0.0,0.0,0.6302,0.6451,0.66,0.6749,0.6905,0.7048,0.7238,0.7502,0.7665,0.8011,0.8682,0.8689,0.8811,0.9225,0.8784,0.8479,0.8479,0.8201,0.8092,0.8201,0.8343,0.8594,0.896,0.9347,0.9673,0.993,1.0168,1.0351,1.0493,1.0453,1.0534,1.0717,1.0677,1.0683,1.0711,1.0555,1.0399,1.0202,0.9693,0.951,0.9503,0.0,0.0,0.0,0.0,0.0,0.0,0.0,0.0,0.0,0.0,0.0,0.0,0.0,0.0,0.0,0.0,0.0,0.0,0.0,0.0,0.0,0.0,0.0,0.0,0.0,0.0,0.0,0.0,0.0,0.0,0.0,0.0,0.0,0.0,0.0,0.0,0.0,0.0,0.0,0.0,0.0,0.0,0.0,0.0,0.0,0.0,0.0,0.0,0.0,0.0,0.0,0.0,0.0,0.0,0.0,0.0,0.0,0.0,0.0,0.0,0.0,0.0,0.0,0.0,0.0,0.0,0.0,0.0,0.0,0.0,0.0,0.0,0.0,0.0,0.6338,0.6288,0.6369,0.6559,0.6729,0.6817,0.7007,0.7224,0.7468,0.7794,0.8194,0.8689,0.8784,0.8913,0.9171,0.8703,0.8391,0.8391,0.8235,0.8201,0.835,0.8621,0.8947,0.9334,0.9707,1.0005,1.0236,1.0392,1.0507,1.0588,1.0656,1.0731,1.0819,1.088,1.0873,1.0812,1.0717,1.0649,1.0555,1.0141,0.9978,0.9937,0.9551,0.9496,0.9605,0.9456,0.9435,0.9442,0.9205,0.0,0.0,0.0,0.0,0.0,0.0,0.0,0.0,0.0,0.0,0.0,0.0,0.0,0.0,0.0,0.0,0.0,0.0,0.0,0.0,0.0,0.0,0.0,0.0,0.0,0.0,0.0,0.0,0.0,0.0,0.0,0.0,0.0,0.0,0.0,0.0,0.0,0.0,0.0,0.0,0.0,0.0,0.0,0.0,0.0,0.0,0.0,0.0,0.0,0.0,0.0,0.0,0.0,0.0,0.0,0.0,0.0,0.0,0.0,0.0,0.0,0.0,0.0,0.0,0.0,0.0,0.0,0.6338,0.6345,0.6281,0.6519,0.6709,0.6722,0.6959,0.7204,0.7373,0.7875,0.8289,0.8465,0.8723,0.8899,0.8933,0.8526,0.8269,0.8269,0.8282,0.837,0.8547,0.8974,0.9354,0.968,1.0093,1.0371,1.0521,1.0656,1.0731,1.0751,1.0887,1.0955,1.0982,1.1104,1.109,1.0975,1.0975,1.0894,1.0758,1.0622,1.0541,1.046,1.0161,1.0134,1.0236,1.008,0.9876,0.9659,0.949,0.0,0.0,0.0,0.0,0.0,0.0,0.0,0.0,0.0,0.0,0.0,0.0,0.0,0.0,0.0,0.0,0.0,0.0,0.0,0.0,0.0,0.0,0.0,0.0,0.0,0.0,0.0,0.0,0.0,0.0,0.0,0.0,0.0,0.0,0.0,0.0,0.0,0.0,0.0,0.0,0.0,0.0,0.0,0.0,0.0,0.0,0.0,0.0,0.0,0.0,0.0,0.0,0.0,0.0,0.0,0.0,0.0,0.0,0.0,0.0,0.0,0.0,0.0,0.0,0.0,0.0,0.0,0.6338,0.6295,0.641,0.658,0.6742,0.6865,0.7027,0.7238,0.7516,0.776,0.8045,0.8438,0.8533,0.8669,0.892,0.8526,0.8269,0.8269,0.8377,0.8615,0.9008,0.934,0.972,1.0141,1.0344,1.0527,1.0677,1.0704,1.0785,1.0907,1.0934,1.1009,1.1124,1.1151,1.1145,1.1124,1.1124,1.1104,1.1077,1.1043,1.0812,1.046,1.0161,1.0066,1.0073,0.9917,0.9992,1.0107,0.9829,0.9883,0.9992,0.9564,0.9286,0.0,0.0,0.0,0.0,0.0,0.0,0.0,0.0,0.0,0.0,0.0,0.0,0.0,0.0,0.0,0.0,0.0,0.0,0.0,0.0,0.0,0.0,0.0,0.0,0.0,0.0,0.0,0.0,0.0,0.0,0.0,0.0,0.0,0.0,0.0,0.0,0.0,0.0,0.0,0.0,0.0,0.0,0.0,0.0,0.0,0.0,0.0,0.0,0.0,0.0,0.0,0.0,0.0,0.0,0.0,0.0,0.0,0.0,0.0,0.0,0.0,0.0,0.0,0.6338,0.6281,0.6356,0.6552,0.6729,0.6803,0.7,0.7251,0.7556,0.7787,0.8011,0.8235,0.833,0.8377,0.8377,0.8241,0.8221,0.837,0.8655,0.8988,0.9367,0.9747,1.0086,1.0378,1.0609,1.0758,1.0833,1.0907,1.0982,1.1056,1.1138,1.1206,1.128,1.1355,1.1348,1.1274,1.1274,1.1233,1.1165,1.1165,1.1029,1.0812,1.0663,1.0561,1.0487,1.0412,1.0385,1.0351,1.0127,1.01,1.01,0.9727,0.9503,0.934,0.0,0.0,0.0,0.0,0.0,0.0,0.0,0.0,0.0,0.0,0.0,0.0,0.0,0.0,0.0,0.0,0.0,0.0,0.0,0.0,0.0,0.0,0.0,0.0,0.0,0.0,0.0,0.0,0.0,0.0,0.0,0.0,0.0,0.0,0.0,0.0,0.0,0.0,0.0,0.0,0.0,0.0,0.0,0.0,0.0,0.0,0.0,0.0,0.0,0.0,0.0,0.0,0.0,0.0,0.0,0.0,0.0,0.0,0.0,0.0,0.0,0.0,0.6338,0.6268,0.6295,0.6525,0.6709,0.6742,0.6966,0.7238,0.7516,0.776,0.7929,0.7991,0.8106,0.8079,0.7834,0.7977,0.8208,0.8506,0.8947,0.9361,0.9727,1.0141,1.0432,1.0575,1.0846,1.0989,1.0989,1.1138,1.1219,1.1253,1.1402,1.1491,1.1525,1.1647,1.164,1.1525,1.1525,1.145,1.1335,1.1307,1.1307,1.1335,1.1274,1.1145,1.0989,1.0962,1.0731,1.0439,1.0385,1.0222,1.0019,0.9836,0.9741,0.9612,0.9191,0.9198,0.0,0.0,0.0,0.0,0.0,0.0,0.0,0.0,0.0,0.3619,0.0597,0.0,0.0,0.0,0.0,0.0,0.0,0.0,0.0,0.0,0.0,0.0,0.0,0.0,0.0,0.0,0.0,0.0,0.0,0.0,0.0,0.0,0.0,0.0,0.0,0.0,0.0,0.0,0.0,0.0,0.0,0.0,0.0,0.0,0.0,0.0,0.0,0.0,0.0,0.0,0.0,0.0,0.0,0.0,0.0,0.0,0.0,0.0,0.0,0.0,0.6338,0.6302,0.6424,0.6586,0.6749,0.6885,0.7041,0.7204,0.7373,0.7428,0.7543,0.7807,0.7855,0.7848,0.7814,0.8079,0.837,0.8662,0.9103,0.9612,1.0181,1.0507,1.0744,1.0894,1.1056,1.1138,1.1138,1.1294,1.1436,1.1572,1.1714,1.1857,1.1986,1.2006,1.2006,1.1986,1.1986,1.1979,1.1952,1.1809,1.1837,1.1932,1.1667,1.1389,1.1124,1.0995,1.067,1.0344,1.0588,1.0392,1.0093,1.0317,1.0215,0.9937,0.9625,0.9367,0.9137,0.896,0.894,0.9055,0.9442,0.9347,0.934,0.0,0.0,0.3692,0.0635,0.0,0.0,0.0,0.0,0.0,0.0,0.0,0.0,0.0,0.0,0.0,0.0,0.0,0.0,0.0,0.0,0.0,0.0,0.0,0.0,0.0,0.0,0.0,0.0,0.0,0.0,0.0,0.0,0.0,0.0,0.0,0.0,0.0,0.0,0.0,0.0,0.0,0.0,0.0,0.0,0.0,0.0,0.0,0.0,0.0,0.0,0.0,0.0,0.0,0.0,0.6302,0.6451,0.66,0.6722,0.6783,0.6993,0.7197,0.7353,0.7448,0.755,0.7678,0.7685,0.7719,0.7801,0.8092,0.8472,0.894,0.9388,0.9903,1.0514,1.0738,1.0921,1.107,1.1219,1.1341,1.143,1.1579,1.1728,1.1877,1.1938,1.1999,1.206,1.206,1.206,1.206,1.206,1.206,1.2054,1.1993,1.1952,1.1904,1.1701,1.1375,1.1016,1.0867,1.0582,0.0,1.0215,1.0134,1.0073,1.0195,1.0086,0.9883,0.9806,0.9593,0.9273,0.9123,0.9037,0.9138,0.0,0.951,0.954,0.96,0.6967,0.3697,0.0664,0.0,0.0,0.0,0.0,0.0,0.0,0.0,0.0,0.0,0.0,0.0,0.0,0.0,0.0,0.0,0.0,0.0,0.0,0.0,0.0,0.0,0.0,0.0,0.0,0.0,0.0,0.0,0.0,0.0,0.0,0.0,0.0,0.0,0.0,0.0,0.0,0.0,0.0,0.0,0.0,0.0,0.0,0.0,0.0,0.0,0.0,0.0,0.0,0.0,0.0,0.0,0.6458,0.6634,0.6763,0.6763,0.698,0.7197,0.7353,0.7468,0.757,0.7651,0.7658,0.7699,0.7801,0.8052,0.8459,0.9055,0.951,1.0046,1.069,1.0907,1.1097,1.1287,1.1436,1.1606,1.1803,1.1945,1.2094,1.2244,1.2291,1.2311,1.2311,1.2311,1.2311,1.2305,1.2264,1.2244,1.2237,1.2155,1.2033,1.1864,1.1592,1.1212,1.0806,1.0656,1.0331,0.9944,0.9761,0.972,0.9754,0.9842,0.9822,0.9861,0.9689,0.8936,0.8214,0.8338,0.8794,0.0,0.9537,0.9761,0.9895,0.9653,0.702,0.3706,0.0692,0.0,0.0,0.0,0.0,0.0,0.0,0.0,0.0,0.0,0.0,0.0,0.0,0.0,0.0,0.0,0.0,0.0,0.0,0.0,0.0,0.0,0.0,0.0,0.0,0.0,0.0,0.0,0.0,0.0,0.0,0.0,0.0,0.0,0.0,0.0,0.0,0.0,0.0,0.0,0.0,0.0,0.0,0.0,0.0,0.0,0.0,0.0,0.0,0.0,0.0,0.0,0.0,0.6722,0.6919,0.6919,0.7048,0.7197,0.7353,0.7373,0.7489,0.7773,0.7801,0.7807,0.7814,0.7957,0.8303,0.8906,0.9367,0.9944,1.069,1.1002,1.1301,1.1599,1.1742,1.1965,1.2271,1.2413,1.2562,1.2712,1.2861,1.2935,1.2935,1.2935,1.2935,1.2922,1.2773,1.2712,1.2684,1.24,1.2189,1.1993,1.1402,1.09,1.0487,1.0344,0.9815,0.9211,0.9347,0.9205,0.9022,0.9313,0.9752,0.9947,0.9401,0.7038,0.4923,0.6024,0.7903,0.9517,0.9924,1.0148,1.0263,1.0206,0.7524,0.4006,0.0722,0.0,0.0,0.0,0.0,0.0,0.0,0.0,0.0,0.0,0.0,0.0,0.0,0.0,0.0,0.0,0.0,0.0,0.0,0.0,0.0,0.0,0.0,0.0,0.0,0.0,0.0,0.0,0.0,0.0,0.0,0.0,0.0,0.0,0.0,0.0,0.0,0.0,0.0,0.0,0.0,0.0,0.0,0.0,0.0,0.0,0.0,0.0,0.0,0.0,0.0,0.0,0.0,0.0,0.6844,0.7041,0.7109,0.7197,0.7353,0.7543,0.0,0.0,0.0,0.0,0.0,0.8106,0.8364,0.8764,0.93,0.9856,1.0405,1.09,1.1307,1.1613,1.1755,1.2026,1.2433,1.2481,1.263,1.2888,1.2935,1.2963,1.2963,1.2963,1.2963,1.2949,1.2793,1.2671,1.2556,1.2257,1.1993,1.1714,1.1212,1.0616,0.9998,0.0,0.9306,0.8988,0.8838,0.8784,0.8804,0.9037,0.9224,0.9259,0.9078,0.8818,0.8142,0.6217,0.7931,1.0322,1.029,1.0609,1.0968,1.1074,0.8041,0.4933,0.4006,0.1774,0.0,0.0,0.0,0.0,0.0,0.0,0.0,0.0,0.0,0.0,0.0,0.0,0.0,0.0,0.0,0.0,0.0,0.0,0.0,0.0,0.0,0.0,0.0,0.0,0.0,0.0,0.0,0.0,0.0,0.0,0.0,0.0,0.0,0.0,0.0,0.0,0.0,0.0,0.0,0.0,0.0,0.0,0.0,0.0,0.0,0.0,0.0,0.0,0.0,0.0,0.0,0.0,0.0,0.0,0.0,0.0,0.0,0.0,0.0,0.0,0.0,0.0,0.0,0.0,0.8316,0.8608,0.9042,0.951,1.0019,1.0405,1.0778,1.1131,1.1179,1.1463,1.202,1.202,1.2264,1.2725,1.2773,1.28,1.28,1.2915,1.2929,1.2868,1.2657,1.2481,1.2305,1.185,1.1457,1.1084,1.0582,0.9985,0.0,0.8981,0.8743,0.8587,0.8391,0.8425,0.8554,0.868,0.8214,0.7762,0.7615,0.817,0.8543,0.7541,0.9007,1.0855,1.0877,1.107,1.1409,1.1735,0.9759,0.7273,0.5978,0.4855,0.335,0.0445,0.0,0.0,0.0,0.0,0.0,0.0,0.0,0.0,0.0,0.0,0.0,0.0,0.0,0.0,0.0,0.0,0.0,0.0,0.0,0.0,0.0,0.0,0.0,0.0,0.0,0.0,0.0,0.0,0.0,0.0,0.0,0.0,0.0,0.0,0.0,0.0,0.0,0.0,0.0,0.0,0.0,0.0,0.0,0.0,0.0,0.0,0.0,0.0,0.0,0.0,0.0,0.0,0.0,0.0,0.0,0.0,0.0,0.0,0.0,0.0,0.0,0.0,0.0,0.8438,0.8615,0.8967,0.9537,0.9591,0.9815,1.0249,1.012,1.0405,1.1131,1.1138,1.1511,1.2223,1.2366,1.2433,1.2447,1.2739,1.2786,1.263,1.2345,1.2128,1.1918,1.1192,1.0636,1.0181,0.9591,0.9096,0.8676,0.8384,0.8174,0.8038,0.8038,0.8147,0.8282,0.8296,0.7217,0.5909,0.5695,0.5635,0.6437,0.9888,1.0884,1.1129,1.1413,1.1538,1.1728,1.2182,1.1993,1.0688,0.6647,0.8863,0.9319,0.0,0.0,0.0,0.0,0.0,0.0,0.0,0.0,0.0,0.0,0.0,0.0,0.0,0.0,0.0,0.0,0.0,0.0,0.0,0.0,0.0,0.0,0.0,0.0,0.0,0.0,0.0,0.0,0.0,0.0,0.0,0.0,0.0,0.0,0.0,0.0,0.0,0.0,0.0,0.0,0.0,0.0,0.0,0.0,0.0,0.0,0.0,0.0,0.0,0.0,0.0,0.0,0.0,0.0,0.0,0.0,0.0,0.0,0.0,0.0,0.0,0.0,0.0,0.0,0.8147,0.8499,0.8777,0.8933,0.9367,0.9713,0.9937,1.0012,1.0249,1.0663,1.0778,1.0989,1.1294,1.1436,1.1504,1.1511,1.1586,1.1599,1.1552,1.1369,1.1138,1.086,1.0446,1.008,0.9741,0.9354,0.9001,0.8682,0.8492,0.8262,0.8038,0.8038,0.8221,0.8584,0.892,0.8845,0.8824,0.8947,0.9355,0.979,1.1038,1.146,1.1543,1.1653,1.1918,1.2115,1.2251,1.2244,1.1959,1.0637,1.0705,1.0398,0.0,0.0,0.0,0.0,0.0,0.0,0.0,0.0,0.0,0.0,0.0,0.0,0.0,0.0,0.0,0.0,0.0,0.0,0.0,0.0,0.0,0.0,0.0,0.0,0.0,0.0,0.0,0.0,0.0,0.0,0.0,0.0,0.0,0.0,0.0,0.0,0.0,0.0,0.0,0.0,0.0,0.0,0.0,0.0,0.0,0.0,0.0,0.0,0.0,0.0,0.0,0.0,0.0,0.0,0.0,0.0,0.0,0.0,0.0,0.0,0.0,0.0,0.0,0.0,0.0,0.8275,0.8445,0.8513,0.8777,0.8988,0.9137,0.9157,0.9347,0.9713,0.9795,1.0019,1.0365,1.0507,1.0575,1.0582,1.0717,1.0738,1.0663,1.0514,1.0317,0.0,0.0,0.932,0.9083,0.8777,0.856,0.8404,0.8316,0.8262,0.8255,0.8391,0.0,0.8948,0.9286,0.9627,1.0144,1.0489,1.0732,1.1108,1.1504,1.1681,1.1762,1.1979,1.2115,1.2135,1.1938,1.2108,1.2151,1.1525,1.1243,1.1173,1.1162,0.5069,0.0,0.0,0.0,0.0,0.0,0.0,0.0,0.0,0.0,0.0,0.0,0.0,0.0,0.0,0.0,0.0,0.0,0.0,0.0,0.0,0.0,0.0,0.0,0.0,0.0,0.0,0.0,0.0,0.0,0.0,0.0,0.0,0.0,0.0,0.0,0.0,0.0,0.0,0.0,0.0,0.0,0.0,0.0,0.0,0.0,0.0,0.0,0.0,0.0,0.0,0.0,0.0,0.0,0.0,0.7651,0.0,0.0,0.0,0.0,0.0,0.0,0.0,0.0,0.0,0.8099,0.8235,0.8113,0.8099,0.8235,0.8106,0.8228,0.8621,0.8642,0.892,0.9435,0.9578,0.9646,0.9652,0.9924,0.9964,0.9836,0.97,0.9564,0.9388,0.8859,0.856,0.8397,0.0,0.8038,0.8045,0.8065,0.8248,0.854,0.8906,0.9137,0.9327,0.9632,1.0046,1.0514,1.0968,1.1097,1.1219,1.1769,1.1918,1.1986,1.225,1.2189,1.1979,1.1667,1.165,1.1254,0.9569,0.966,0.995,0.9413,0.4153,0.0,0.0,0.0,0.0,0.0,0.0,0.0,0.0,0.0,0.0,0.0,0.0,0.0,0.0,0.0,0.0,0.0,0.0,0.0,0.0,0.0,0.0,0.0,0.0,0.0,0.0,0.0,0.0,0.0,0.0,0.0,0.0,0.0,0.0,0.0,0.0,0.0,0.0,0.0,0.0,0.0,0.0,0.0,0.0,0.0,0.0,0.0,0.0,0.0,0.0,0.0,0.0,0.0,0.0,0.7753,0.7678,0.0,0.0,0.0,0.0,0.0,0.0,0.0,0.0,0.0,0.8079,0.8052,0.8052,0.8079,0.8052,0.8079,0.8153,0.8282,0.8397,0.8506,0.8648,0.8716,0.8716,0.8771,0.8777,0.875,0.8723,0.8635,0.8492,0.8391,0.8255,0.8113,0.8058,0.0,0.0,0.8187,0.8336,0.8587,0.9266,0.9673,0.9951,1.0243,1.0738,1.1287,1.1735,1.187,1.1945,1.2291,1.2386,1.24,1.2454,1.2264,1.1959,1.1266,1.1013,0.0,0.3086,0.1921,0.2,0.1828,0.0848,0.0,0.0,0.0,0.0,0.0,0.0,0.0,0.0,0.0,0.0,0.0,0.0,0.0,0.0,0.0,0.0,0.0,0.0,0.0,0.0,0.0,0.0,0.0,0.0,0.0,0.0,0.0,0.0,0.0,0.0,0.0,0.0,0.0,0.0,0.0,0.0,0.0,0.0,0.0,0.0,0.0,0.0,0.0,0.0,0.0,0.0,0.0,0.0,0.0,0.0,0.0,0.8637,0.7678,0.8201,0.8147,0.8058,0.8052,0.8045,0.8038,0.0,0.0,0.0,0.0,0.0,0.0,0.0,0.8038,0.8038,0.8038,0.8038,0.8038,0.8038,0.0,0.8147,0.8153,0.8221,0.8255,0.8255,0.8255,0.8255,0.8255,0.8255,0.8214,0.8147,0.8147,0.8153,0.816,0.0,0.0,0.0,0.0,0.8594,0.8798,0.932,0.9842,1.0344,1.0724,1.1199,1.1681,1.1972,1.2169,1.2338,1.2562,1.2678,1.2718,1.2644,1.2277,1.1789,1.1219,0.0,0.0,0.5482,0.2179,0.0,0.0,0.0,0.0,0.0,0.0,0.0,0.0,0.0,0.0,0.0,0.0,0.0,0.0,0.0,0.0,0.0,0.0,0.0,0.0,0.0,0.0,0.0,0.0,0.0,0.0,0.0,0.0,0.0,0.0,0.0,0.0,0.0,0.0,0.0,0.0,0.0,0.0,0.0,0.0,0.0,0.0,0.0,0.0,0.0,0.0,0.0,0.0,0.0,0.0,0.0,0.0,0.0,0.9594,0.8527,0.7929,0.8587,0.8621,0.854,0.8425,0.8248,0.8106,0.0,0.0,0.0,0.0,0.0,0.0,0.0,0.0,0.0,0.8038,0.0,0.0,0.8038,0.8038,0.0,0.0,0.0,0.0,0.0,0.8038,0.8038,0.8038,0.8038,0.8038,0.0,0.0,0.816,0.0,0.0,0.0,0.0,0.0,0.8811,0.8988,0.932,0.9822,1.0392,1.0974,1.1375,1.187,1.2026,1.2305,1.2589,1.2745,1.2895,1.2963,1.2779,1.2277,1.1647,1.134,1.0283,0.0,0.8994,0.4104,0.0,0.0,0.0,0.0,0.0,0.0,0.0,0.0,0.0,0.0,0.0,0.0,0.0,0.0,0.0,0.0,0.0,0.0,0.0,0.0,0.0,0.0,0.0,0.0,0.0,0.0,0.0,0.0,0.0,0.0,0.0,0.0,0.0,0.0,0.0,0.0,0.0,0.0,0.0,0.0,0.0,0.0,0.0,0.0,0.0,0.0,0.0,0.0,0.0,0.0,0.0,0.0,0.0,0.9656,0.8788,0.8309,0.9184,0.9062,0.8893,0.8879,0.8615,0.8336,0.0,0.0,0.0,0.0,0.0,0.0,0.0,0.0,0.0,0.0,0.0,0.0,0.8038,0.8038,0.0,0.0,0.0,0.0,0.0,0.0,0.8038,0.8038,0.8038,0.0,0.0,0.0,0.0,0.0,0.0,0.0,0.0,0.0,0.8811,0.9008,0.0,0.0,0.993,1.0517,1.1221,1.1911,1.1911,0.0,0.0,1.3262,1.3226,1.3085,1.28,1.2277,1.1647,1.134,0.0,0.6414,0.852,0.4101,0.0,0.0,0.0,0.0,0.0,0.0,0.0,0.0,0.0,0.0,0.0,0.0,0.0,0.0,0.0,0.0,0.0,0.0,0.0,0.0,0.0,0.0,0.0,0.0,0.0,0.0,0.0,0.0,0.0,0.0,0.0,0.0,0.0,0.0,0.0,0.0,0.0,0.0,0.0,0.0,0.0,0.0,0.0,0.0,0.0,0.0,0.0,0.0,0.0,0.0,0.0,0.0,0.0,0.8721,0.8252,0.8228,0.9123,0.9218,0.9171,0.9076,0.896,0.8655,0.8085,0.0,0.0,0.0,0.0,0.0,0.0,0.0,0.0,0.0,0.0,0.8085,0.818,0.818,0.0,0.0,0.0,0.0,0.0,0.0,0.8038,0.8045,0.814,0.0,0.0,0.0,0.0,0.0,0.0,0.0,0.0,0.0,0.0,0.8967,0.9144,0.934,0.0,0.9731,1.0454,0.0,0.0,0.9231,1.0925,1.2876,1.3521,1.3505,1.3207,1.2474,1.1674,1.1481,0.0,0.485,0.3786,0.165,0.0,0.0,0.0,0.0,0.0,0.0,0.0,0.0,0.0,0.0,0.0,0.0,0.0,0.0,0.0,0.0,0.0,0.0,0.0,0.0,0.0,0.0,0.0,0.0,0.0,0.0,0.0,0.0,0.0,0.0,0.0,0.0,0.0,0.0,0.0,0.0,0.0,0.0,0.0,0.0,0.0,0.0,0.0,0.0,0.0,0.0,0.0,0.0,0.0,0.0,0.0,0.0,0.839,0.8055,0.8024,0.8282,0.9055,0.9245,0.9273,0.9164,0.9035,0.8743,0.8214,0.8092,0.0,0.0,0.0,0.0,0.0,0.0,0.0,0.0,0.0,0.816,0.8269,0.8316,0.833,0.0,0.0,0.8214,0.8106,0.0,0.0,0.0,0.0,0.0,0.0,0.0,0.0,0.0,0.0,0.0,0.0,0.0,0.0,0.0,0.0,0.0,0.9151,0.8118,0.9124,1.0198,0.0,0.7601,0.8992,1.2635,1.3742,1.3648,1.3397,1.2738,1.1983,0.0,0.0,0.5386,0.0888,0.0,0.0,0.0,0.0,0.0,0.0,0.0,0.0,0.0,0.0,0.0,0.0,0.0,0.0,0.0,0.0,0.0,0.0,0.0,0.0,0.0,0.0,0.0,0.0,0.0,0.0,0.0,0.0,0.0,0.0,0.0,0.0,0.0,0.0,0.0,0.0,0.0,0.0,0.0,0.0,0.0,0.0,0.0,0.0,0.0,0.0,0.0,0.0,0.0,0.0,0.0,0.0,0.0,0.0,0.797,0.8289,0.8635,0.9096,0.9157,0.9157,0.915,0.8757,0.8486,0.8479,0.8208,0.0,0.0,0.0,0.0,0.0,0.0,0.0,0.0,0.0,0.8269,0.8269,0.8411,0.8479,0.8479,0.8336,0.8269,0.8269,0.0,0.0,0.0,0.0,0.0,0.0,0.0,0.0,0.894,0.0,0.0,0.0,0.0,0.0,0.0,0.0,0.0,0.0,0.0,0.7392,1.0537,0.996,0.8253,0.7792,1.2984,1.3782,1.337,1.3214,1.2838,1.2272,1.1375,1.0893,0.8567,0.1468,0.0,0.0,0.0,0.0,0.0,0.0,0.0,0.0,0.0,0.0,0.0,0.0,0.0,0.0,0.0,0.0,0.0,0.0,0.0,0.0,0.0,0.0,0.0,0.0,0.0,0.0,0.0,0.0,0.0,0.0,0.0,0.0,0.0,0.0,0.0,0.0,0.0,0.0,0.0,0.0,0.0,0.0,0.0,0.0,0.0,0.0,0.0,0.0,0.0,0.0,0.0,0.0,0.0,0.0,0.7685,0.7821,0.8072,0.8621,0.8784,0.8893,0.8994,0.8784,0.8635,0.8635,0.8269,0.0,0.0,0.0,0.0,0.0,0.0,0.0,0.0,0.8187,0.8418,0.873,0.8872,0.8994,0.9096,0.8947,0.8764,0.8567,0.8465,0.8418,0.0,0.0,0.0,0.0,0.0,0.8893,0.894,0.0,0.0,0.0,0.0,0.0,0.0,0.0,0.0,0.0,0.0,0.0,0.0,0.6253,0.4308,0.3683,1.0866,1.3319,1.3923,1.3647,1.3313,1.3011,1.2816,1.1294,0.8214,0.1352,0.0,0.0,0.0,0.0,0.0,0.0,0.0,0.0,0.0,0.0,0.0,0.0,0.0,0.0,0.0,0.0,0.0,0.0,0.0,0.0,0.0,0.0,0.0,0.0,0.0,0.0,0.0,0.0,0.0,0.0,0.0,0.0,0.0,0.0,0.0,0.0,0.0,0.0,0.0,0.0,0.0,0.0,0.0,0.0,0.0,0.0,0.0,0.0,0.0,0.0,0.0,0.0,0.0,0.0,0.7482,0.7611,0.7834,0.8262,0.8397,0.856,0.8825,0.8615,0.8526,0.8696,0.835,0.0,0.0,0.0,0.0,0.0,0.0,0.0,0.8126,0.8275,0.8567,0.9022,0.9225,0.9401,0.9544,0.9449,0.9218,0.8872,0.8777,0.8676,0.0,0.0,0.0,0.0,0.8893,0.8906,0.8859,0.0,0.0,0.0,0.0,0.0,0.0,0.0,0.0,0.0,0.0,0.0,0.0,0.0,0.4899,0.4598,1.0404,1.1623,1.145,1.1276,1.2359,1.3394,1.3062,0.9473,0.5572,0.3709,0.3321,0.2639,0.0447,0.09,0.1381,0.0244,0.0,0.0,0.0,0.0,0.0,0.0,0.0,0.0,0.0,0.0,0.0,0.0,0.0,0.0,0.0,0.0,0.0,0.0,0.0,0.0,0.0,0.0,0.0,0.0,0.0,0.0,0.0,0.0,0.0,0.0,0.0,0.0,0.0,0.0,0.0,0.0,0.0,0.0,0.0,0.0,0.0,0.0,0.0,0.0,0.0,0.0,0.0,0.0,0.0,0.7611,0.7848,0.8004,0.8031,0.8201,0.8615,0.8289,0.8214,0.8655,0.8445,0.0,0.0,0.0,0.0,0.0,0.0,0.0,0.8269,0.8418,0.8723,0.9184,0.949,0.972,0.9869,0.9856,0.9618,0.9184,0.9171,0.9001,0.0,0.0,0.0,0.0,0.8825,0.8852,0.0,0.0,0.0,0.0,0.0,0.0,0.0,0.0,0.0,0.0,0.0,0.0,0.0,0.0,0.0,0.0,0.0,0.8938,0.6305,0.659,0.949,1.233,1.1713,0.5574,0.0,0.7182,0.8562,0.7177,0.1674,0.2945,0.3923,0.1064,0.0246,0.0,0.0,0.0,0.0,0.0,0.0,0.0,0.0,0.0,0.0,0.0,0.0,0.0,0.0,0.0,0.0,0.0,0.0,0.0,0.0,0.0,0.0,0.0,0.0,0.0,0.0,0.0,0.0,0.0,0.0,0.0,0.0,0.0,0.0,0.0,0.0,0.0,0.0,0.0,0.0,0.0,0.0,0.0,0.0,0.0,0.0,0.0,0.0,0.0,0.0,0.0,0.797,0.8079,0.8187,0.8106,0.8174,0.0,0.0,0.0,0.0,0.0,0.0,0.0,0.0,0.0,0.8269,0.8526,0.8933,0.9503,0.9802,1.008,1.0331,1.0222,0.993,0.9496,0.9381,0.9164,0.0,0.0,0.0,0.0,0.8913,0.892,0.0,0.0,0.0,0.0,0.894,0.894,0.0,0.0,0.0,0.0,0.0,0.0,0.0,0.0,0.8884,0.8954,0.9453,0.0,0.1634,0.1618,0.2452,0.3123,0.0,0.1364,0.0,0.0,0.0,0.8465,0.7085,0.7715,0.8143,0.7046,0.2958,0.0,0.0,0.0,0.0,0.0,0.0,0.0,0.0,0.0,0.0,0.0,0.0,0.0,0.0,0.0,0.0,0.0,0.0,0.0,0.0,0.0,0.0,0.0,0.0,0.0,0.0,0.0,0.0,0.0,0.0,0.0,0.0,0.0,0.0,0.0,0.0,0.0,0.0,0.0,0.0,0.0,0.0,0.0,0.0,0.0,0.0,0.0,0.0,0.0,0.0,0.0,0.7841,0.7963,0.8031,0.8038,0.8133,0.0,0.0,0.0,0.0,0.0,0.0,0.0,0.0,0.814,0.8364,0.8526,0.8933,0.9612,0.9836,1.0134,1.0487,1.0412,1.0134,0.9693,0.9334,0.9049,0.0,0.0,0.0,0.8838,0.8913,0.0,0.0,0.0,0.0,0.0,0.894,0.894,0.0,0.9015,0.9035,0.9035,0.0,0.0,0.0,0.0,0.8903,0.8864,0.8891,0.4555,0.0,0.0,0.0,0.0,0.0,0.0,0.0,0.0,0.0,0.57,0.842,0.8087,0.7842,0.9475,0.6489,0.3145,0.0454,0.0,0.0,0.0,0.0,0.0,0.0,0.0,0.0,0.0,0.0,0.0,0.0,0.0,0.0,0.0,0.0,0.0,0.0,0.0,0.0,0.0,0.0,0.0,0.0,0.0,0.0,0.0,0.0,0.0,0.0,0.0,0.0,0.0,0.0,0.0,0.0,0.0,0.0,0.0,0.0,0.0,0.0,0.0,0.0,0.0,0.0,0.0,0.0,0.0,0.0,0.0,0.0,0.0,0.0,0.0,0.0,0.0,0.0,0.0,0.0,0.0,0.8052,0.8187,0.8513,0.852,0.8879,0.9612,0.9795,1.0093,1.0493,1.0541,1.0297,0.9795,0.9252,0.8906,0.8757,0.0,0.8866,0.8757,0.8886,0.0,0.0,0.0,0.0,0.0,0.0,0.0,0.0,0.9083,0.9123,0.9123,0.9123,0.0,0.0,0.0,0.0,0.0,0.8943,0.5242,0.1317,0.1313,0.1405,0.1148,0.0228,0.0,0.0,0.0,0.0,0.0,0.0,0.6392,0.0,1.0053,0.8955,0.5723,0.0659,0.0,0.0,0.0,0.0,0.0,0.0,0.0,0.0,0.0,0.0,0.0,0.0,0.0,0.0,0.0,0.0,0.0,0.0,0.0,0.0,0.0,0.0,0.0,0.0,0.0,0.0,0.0,0.0,0.0,0.0,0.0,0.0,0.0,0.0,0.0,0.0,0.0,0.0,0.0,0.0,0.0,0.0,0.0,0.0,0.0,0.0,0.0,0.0,0.0,0.0,0.0,0.0,0.0,0.0,0.0,0.0,0.0,0.0,0.0,0.0,0.8241,0.8106,0.8241,0.8669,0.8676,0.8981,0.9612,1.0012,1.0304,1.0493,1.0758,1.05,0.9808,0.9462,0.9157,0.8906,0.8927,0.8927,0.8906,0.8927,0.0,0.0,0.0,0.0,0.0,0.0,0.0,0.0,0.896,0.8974,0.8974,0.8974,0.0,0.0,0.0,0.0,0.0,0.8909,0.8266,0.754,0.7567,0.7567,0.6175,0.1107,0.0,0.0,0.0,0.0,0.0,0.0,0.5927,0.6629,0.0,0.0,0.1099,0.0,0.0,0.0,0.0,0.0,0.0,0.0,0.0,0.0,0.0,0.0,0.0,0.0,0.0,0.0,0.0,0.0,0.0,0.0,0.0,0.0,0.0,0.0,0.0,0.0,0.0,0.0,0.0,0.0,0.0,0.0,0.0,0.0,0.0,0.0,0.0,0.0,0.0,0.0,0.0,0.0,0.0,0.0,0.0,0.0,0.0,0.0,0.0,0.0,0.0,0.0,0.0,0.0,0.0,0.0,0.0,0.0,0.0,0.0,0.0,0.856,0.8737,0.8526,0.8499,0.8703,0.8866,0.9286,0.9971,1.0256,1.0595,1.0968,1.0711,1.0229,0.9571,0.9273,0.9022,0.8818,0.8906,0.894,0.894,0.0,0.0,0.0,0.0,0.0,0.0,0.0,0.0,0.0,0.0,0.9055,0.9055,0.9055,0.0,0.0,0.0,0.0,0.0,0.8459,0.8897,0.8889,0.8937,0.9096,0.8586,0.5769,0.0,0.0,0.0,0.0,0.0,0.0,0.0,0.7863,0.5221,0.0,0.445,0.0533,0.0,0.0,0.0,0.0,0.0,0.0,0.0,0.0,0.0,0.0,0.0,0.0,0.0,0.0,0.0,0.0,0.0,0.0,0.0,0.0,0.0,0.0,0.0,0.0,0.0,0.0,0.0,0.0,0.0,0.0,0.0,0.0,0.0,0.0,0.0,0.0,0.0,0.0,0.0,0.0,0.0,0.0,0.0,0.0,0.0,0.0,0.0,0.0,0.0,0.0,0.0,0.0,0.0,0.0,0.0,0.0,0.0,0.0,0.8479,0.8648,0.9035,0.8899,0.8859,0.8967,0.9164,0.9612,1.0331,1.0582,1.0955,1.143,1.0717,1.0059,0.9469,0.9171,0.894,0.8771,0.8893,0.894,0.894,0.0,0.0,0.0,0.0,0.0,0.0,0.0,0.0,0.0,0.0,0.0,0.0,0.0,0.0,0.0,0.8477,0.6899,0.5514,0.6496,0.7877,0.8514,0.7122,0.8236,0.9578,0.9352,0.0,0.0,0.0,0.0,0.0,0.0,0.7764,0.0,0.3697,0.5976,0.6347,0.0725,0.0,0.0,0.0,0.0,0.0,0.0,0.0,0.0,0.0,0.0,0.0,0.0,0.0,0.0,0.0,0.0,0.0,0.0,0.0,0.0,0.0,0.0,0.0,0.0,0.0,0.0,0.0,0.0,0.0,0.0,0.0,0.0,0.0,0.0,0.0,0.0,0.0,0.0,0.0,0.0,0.0,0.0,0.0,0.0,0.0,0.0,0.0,0.0,0.0,0.0,0.0,0.0,0.0,0.0,0.0,0.0,0.0,0.0,0.8479,0.856,0.8737,0.8988,0.9313,0.9734,0.9632,0.9869,1.0473,1.105,1.1423,1.1592,1.0975,1.0365,0.9774,0.9483,0.9191,0.892,0.8933,0.894,0.894,0.894,0.0,0.0,0.0,0.0,0.0,0.0,0.0,0.0,0.0,0.0,0.0,0.0,0.0,0.8649,0.8575,0.822,0.6747,0.1905,0.4641,0.7573,0.2053,0.4832,0.0,0.8964,0.9483,0.0,1.098,0.0,0.0,0.0,0.4947,0.337,1.1143,0.5816,0.0539,0.0,0.0,0.0,0.0,0.0,0.0,0.0,0.0,0.0,0.0,0.0,0.0,0.0,0.0,0.0,0.0,0.0,0.0,0.0,0.0,0.0,0.0,0.0,0.0,0.0,0.0,0.0,0.0,0.0,0.0,0.0,0.0,0.0,0.0,0.0,0.0,0.0,0.0,0.0,0.0,0.0,0.0,0.0,0.0,0.0,0.0,0.0,0.0,0.0,0.0,0.0,0.8106,0.8045,0.0,0.0,0.0,0.0,0.0,0.0,0.835,0.854,0.8967,0.9089,0.932,0.968,1.0093,1.0595,1.1192,1.1606,1.1742,1.1599,1.0812,1.0222,0.9802,0.932,0.9096,0.9062,0.8974,0.8988,0.9062,0.8974,0.894,0.0,0.0,0.0,0.0,0.0,0.0,0.0,0.0,0.894,0.894,0.894,0.8832,0.8723,0.8682,0.8468,0.7419,0.3524,0.5612,0.8389,0.6088,0.7797,0.0,0.0,0.7444,0.9127,1.0826,1.0913,0.0,0.0,0.0,0.5302,0.5112,0.7467,0.7207,0.0961,0.0,0.0,0.0,0.0,0.0,0.0,0.0,0.0,0.0,0.0,0.0,0.0,0.0,0.0,0.0,0.0,0.0,0.0,0.0,0.0,0.0,0.0,0.0,0.0,0.0,0.0,0.0,0.0,0.0,0.0,0.0,0.0,0.0,0.0,0.0,0.0,0.0,0.0,0.0,0.0,0.0,0.0,0.0,0.0,0.0,0.0,0.0,0.8038,0.0,0.0,0.0,0.0,0.8085,0.0,0.0,0.0,0.0,0.8262,0.8269,0.8472,0.892,0.9035,0.9252,0.9605,1.0337,1.0948,1.1409,1.1796,1.1809,1.1457,1.0656,1.0141,0.9869,0.932,0.9157,0.9286,0.9089,0.9062,0.9144,0.8994,0.894,0.0,0.0,0.0,0.0,0.0,0.0,0.0,0.0,0.8906,0.8872,0.892,0.8866,0.8771,0.8723,0.8701,0.8014,0.5322,0.669,0.8667,0.7932,0.8622,0.0,0.6885,0.7853,0.9549,1.0973,1.0547,0.0,0.0,0.0,0.0,0.0,0.7783,0.8454,0.308,0.0975,0.0,0.0,0.0,0.0,0.0,0.0,0.0,0.0,0.0,0.0,0.0,0.0,0.0,0.0,0.0,0.0,0.0,0.0,0.0,0.0,0.0,0.0,0.0,0.0,0.0,0.0,0.0,0.0,0.0,0.0,0.0,0.0,0.0,0.0,0.0,0.0,0.0,0.0,0.0,0.0,0.0,0.0,0.0,0.0,0.0,0.0,0.8038,0.8038,0.8174,0.0,0.0,0.0,0.0,0.0,0.0,0.0,0.8255,0.8269,0.833,0.8472,0.8771,0.9144,0.9591,1.0331,1.0792,1.0955,1.1538,1.1592,1.1145,1.0555,1.0195,1.0025,0.9585,0.9462,0.9585,0.9279,0.915,0.9137,0.8994,0.894,0.892,0.0,0.0,0.0,0.0,0.0,0.0,0.0,0.8838,0.8737,0.8893,0.894,0.8913,0.8757,0.8838,0.8487,0.65,0.7422,0.8375,0.6025,0.6169,0.0,1.0149,1.1435,1.2107,1.2132,0.0,0.8663,1.1585,1.222,0.0,1.4091,0.629,0.1886,0.6917,0.3115,0.0,0.0,0.0,0.0,0.0,0.0,0.0,0.0,0.0,0.0,0.0,0.0,0.0,0.0,0.0,0.0,0.0,0.0,0.0,0.0,0.0,0.0,0.0,0.0,0.0,0.0,0.0,0.0,0.0,0.0,0.0,0.0,0.0,0.0,0.0,0.0,0.0,0.0,0.0,0.0,0.0,0.0,0.0,0.0,0.0,0.0,0.8038,0.8038,0.8079,0.0,0.0,0.0,0.0,0.0,0.0,0.0,0.8106,0.8106,0.8174,0.833,0.8621,0.8791,0.8818,0.9551,1.0426,1.1423,1.1382,1.1185,1.0839,1.0236,0.9876,0.9734,0.9598,0.9388,0.9137,0.915,0.9096,0.9001,0.8954,0.894,0.8933,0.0,0.0,0.0,0.0,0.0,0.0,0.0,0.0,0.0,0.8893,0.9008,0.9042,0.8784,0.8615,0.836,0.7994,0.8308,0.0,0.8833,0.8889,0.0,0.0,1.2031,0.0,0.0,0.9848,1.1378,1.2507,1.2733,0.0,1.3767,1.1831,0.8473,0.3046,0.0964,0.0,0.0,0.0,0.0,0.0,0.0,0.0,0.0,0.0,0.0,0.0,0.0,0.0,0.0,0.0,0.0,0.0,0.0,0.0,0.0,0.0,0.0,0.0,0.0,0.0,0.0,0.0,0.0,0.0,0.0,0.0,0.0,0.0,0.0,0.0,0.0,0.0,0.0,0.0,0.0,0.0,0.0,0.0,0.0,0.8031,0.8038,0.8038,0.8038,0.8038,0.8038,0.0,0.0,0.0,0.8038,0.8038,0.0,0.8038,0.8045,0.8119,0.8262,0.8445,0.8635,0.8832,0.9523,1.0188,1.0819,1.0812,1.0656,1.0358,1.0053,0.9897,0.9876,0.9876,0.9659,0.9293,0.932,0.9211,0.9022,0.9022,0.9022,0.9008,0.0,0.0,0.0,0.0,0.0,0.0,0.0,0.0,0.0,0.8784,0.8866,0.8866,0.8642,0.8461,0.8421,0.8535,0.8852,0.0,0.9875,1.0227,1.0754,1.1967,0.0,0.0,0.0,1.0126,1.0661,1.1368,1.2507,0.0,1.3806,1.4322,1.2642,0.6844,0.2497,0.0,0.0,0.0,0.0,0.0,0.0,0.0,0.0,0.0,0.0,0.0,0.0,0.0,0.0,0.0,0.0,0.0,0.0,0.0,0.0,0.0,0.0,0.0,0.0,0.0,0.0,0.0,0.0,0.0,0.0,0.0,0.0,0.0,0.0,0.0,0.0,0.0,0.0,0.0,0.0,0.7441,0.759,0.0,0.0,0.8018,0.8024,0.8024,0.8038,0.8038,0.8038,0.0,0.0,0.0,0.8045,0.8045,0.8045,0.8045,0.7965,0.8032,0.8057,0.8213,0.8669,0.9367,0.9897,0.9964,0.9557,0.9998,1.0066,0.9781,0.9937,1.0093,1.0243,1.0256,1.0073,0.9747,0.9612,0.9374,0.9096,0.911,0.9103,0.9062,0.8804,0.0,0.0,0.0,0.0,0.0,0.0,0.0,0.0,0.8608,0.8615,0.8547,0.834,0.8282,0.8268,0.8568,0.8937,0.0,0.9819,1.0561,0.0,1.2344,1.1873,1.1969,1.3781,0.0,0.824,0.9692,1.2057,1.3686,1.3938,1.4003,1.4345,1.51,0.6333,0.0,0.0,0.0,0.0,0.0,0.0,0.0,0.0,0.0,0.0,0.0,0.0,0.0,0.0,0.0,0.0,0.0,0.0,0.0,0.0,0.0,0.0,0.0,0.0,0.0,0.0,0.0,0.0,0.0,0.0,0.0,0.0,0.0,0.0,0.0,0.0,0.0,0.0,0.0,0.0,0.7597,0.774,0.0,0.0,0.7997,0.7936,0.7902,0.8024,0.8038,0.8038,0.8038,0.8038,0.0,0.7965,0.7965,0.7972,0.7979,0.7985,0.7522,0.6287,0.7849,0.8876,0.9278,0.9415,0.9325,0.9024,0.9551,0.9659,0.9483,0.9632,0.9781,0.9924,1.0046,0.9802,0.9286,0.9144,0.8906,0.8635,0.8757,0.8737,0.8635,0.8689,0.8587,0.0,0.0,0.0,0.0,0.0,0.0,0.0,0.8513,0.879,0.8907,0.8465,0.7018,0.6079,0.8125,0.9284,0.0,0.0,1.1482,1.23,1.2452,0.7352,0.462,1.145,1.2747,1.282,1.3198,1.3965,1.4394,1.4502,1.1373,1.0577,1.462,0.6395,0.0,0.0,0.0,0.0,0.0,0.0,0.0,0.0,0.0,0.0,0.0,0.0,0.0,0.0,0.0,0.0,0.0,0.0,0.0,0.0,0.0,0.0,0.0,0.0,0.0,0.0,0.0,0.0,0.0,0.0,0.0,0.0,0.0,0.0,0.0,0.0,0.0,0.0,0.0,0.0,0.0,0.0,0.0,0.0,0.0,0.0,0.795,0.8031,0.8038,0.8045,0.7952,0.7959,0.0,0.0,0.6853,0.6037,0.6042,0.7278,0.7788,0.7246,0.8504,0.9202,0.9342,0.7874,0.7073,0.6808,0.7084,0.7826,0.9171,0.951,0.9727,0.993,0.9937,0.9646,0.9144,0.9001,0.8764,0.8499,0.8648,0.8662,0.8594,0.8601,0.8506,0.8364,0.8296,0.0,0.0,0.0,0.0,0.0,0.0,0.0,0.8302,0.6679,0.6298,0.6861,0.9064,0.0,0.0,1.1389,0.0,1.3004,1.2884,0.6189,0.1253,0.5668,0.8905,1.1482,1.3853,1.4421,1.4468,1.4376,1.0402,0.752,0.7951,0.3346,0.0,0.0,0.0,0.0,0.0,0.0,0.0,0.0,0.0,0.0,0.0,0.0,0.0,0.0,0.0,0.0,0.0,0.0,0.0,0.0,0.0,0.0,0.0,0.0,0.0,0.0,0.0,0.0,0.0,0.0,0.0,0.0,0.0,0.0,0.0,0.0,0.0,0.0,0.0,0.0,0.0,0.0,0.0,0.0,0.0,0.0,0.0,0.8038,0.8038,0.8045,0.7972,0.7972,0.7979,0.0,0.0,0.0,0.3416,0.5363,0.6827,0.7298,0.8183,0.8851,0.9435,0.7,0.5335,0.4468,0.4453,0.578,0.8225,0.9175,0.9707,0.9998,0.9822,0.9523,0.9137,0.892,0.8676,0.8459,0.8581,0.8621,0.8581,0.8486,0.8431,0.8377,0.8126,0.8119,0.8235,0.8235,0.0,0.0,0.0,0.0,0.7706,0.5443,0.6338,0.852,0.9926,0.0,1.1186,1.2246,1.2421,0.0,1.3255,0.6526,0.0,0.0,0.3222,0.7691,1.3305,1.4353,1.436,1.4336,1.0886,0.6359,0.0734,0.0,0.0,0.0,0.0,0.0,0.0,0.0,0.0,0.0,0.0,0.0,0.0,0.0,0.0,0.0,0.0,0.0,0.0,0.0,0.0,0.0,0.0,0.0,0.0,0.0,0.0,0.0,0.0,0.0,0.0,0.0,0.0,0.0,0.0,0.0,0.0,0.0,0.0,0.0,0.0,0.0,0.0,0.0,0.0,0.0,0.0,0.0,0.0,0.0,0.8038,0.8045,0.7972,0.7972,0.7985,0.8019,0.7711,0.5459,0.0807,0.0,0.0,0.1192,0.3763,0.6551,0.966,0.9404,0.7636,0.4471,0.4497,0.4794,0.5489,0.801,0.9462,0.9842,0.9564,0.9334,0.9117,0.8587,0.8336,0.8303,0.8323,0.8248,0.814,0.8255,0.8214,0.8092,0.8052,0.8052,0.8072,0.8072,0.8228,0.0,0.0,0.0,0.8388,0.7865,0.8223,0.8825,0.9049,0.0,1.2272,0.0,0.9835,0.8565,0.0,0.0,0.0,0.0,0.0537,0.3755,1.258,1.4373,1.436,1.4236,1.37,1.0257,0.126,0.0,0.0,0.0,0.0,0.0,0.0,0.0,0.0,0.0,0.0,0.0,0.0,0.0,0.0,0.0,0.0,0.0,0.0,0.0,0.0,0.0,0.0,0.0,0.0,0.0,0.0,0.0,0.0,0.0,0.0,0.0,0.0,0.0,0.0,0.0,0.0,0.0,0.0,0.0,0.0,0.0,0.0,0.0,0.0,0.0,0.0,0.0,0.0,0.0,0.0,0.7972,0.7999,0.8006,0.6776,0.3739,0.3534,0.2523,0.0202,0.0,0.0,0.0,0.1294,0.2719,0.4246,0.4286,0.3584,0.1968,0.1949,0.2967,0.4991,0.8057,0.9544,0.9686,0.9306,0.9049,0.8872,0.8357,0.814,0.814,0.814,0.8099,0.8058,0.8214,0.8228,0.8167,0.8167,0.8167,0.8167,0.8167,0.8255,0.8364,0.8384,0.0,0.0,0.0,0.8494,0.8851,0.9897,1.0772,1.1674,0.0,1.1679,0.9627,0.6528,0.277,0.0,0.0,0.0,0.1245,0.5541,1.0753,1.4387,1.4222,1.4242,1.2794,0.8632,0.3424,0.0,0.0,0.0,0.0,0.0,0.0,0.0,0.0,0.0,0.0,0.0,0.0,0.0,0.0,0.0,0.0,0.0,0.0,0.0,0.0,0.0,0.0,0.0,0.0,0.0,0.0,0.0,0.0,0.0,0.0,0.0,0.0,0.0,0.0,0.0,0.0,0.0,0.0,0.0,0.0,0.0,0.0,0.0,0.0,0.0,0.0,0.0,0.0,0.0,0.7272,0.7918,0.0,0.0,0.0,0.0,0.0,0.0,0.0,0.0,0.0,0.0,0.0,0.0,0.0,0.0,0.0,0.0,0.1268,0.3785,0.7927,0.9717,0.9659,0.9198,0.8906,0.8737,0.8289,0.8119,0.8147,0.8072,0.8038,0.8052,0.8167,0.8214,0.8214,0.8255,0.8248,0.8214,0.0,0.8296,0.8343,0.8452,0.8533,0.0,0.0,0.0,0.871,0.0,0.0,0.8771,1.1913,1.3068,1.106,0.2018,0.0,0.0,0.0,0.0,0.0,0.0,0.5895,1.1493,1.3872,1.4256,1.3541,1.0988,0.4489,0.0,0.0,0.0,0.0,0.0,0.0,0.0,0.0,0.0,0.0,0.0,0.0,0.0,0.0,0.0,0.0,0.0,0.0,0.0,0.0,0.0,0.0,0.0,0.0,0.0,0.0,0.0,0.0,0.0,0.0,0.0,0.0,0.0,0.0,0.0,0.0,0.0,0.0,0.0,0.0,0.0,0.0,0.0,0.0,0.0,0.0,0.0,0.0,0.0,0.5135,0.7711,0.8026,0.5871,0.0505,0.0,0.0,0.0,0.0,0.0,0.0,0.0,0.0,0.0,0.0,0.0,0.0,0.0,0.0106,0.0344,0.6791,0.9802,0.9714,0.9354,0.9062,0.8899,0.8445,0.8336,0.8431,0.8153,0.8038,0.8038,0.8052,0.8052,0.8072,0.8214,0.0,0.0,0.0,0.0,0.0,0.8479,0.8682,0.8886,0.0,0.0,0.0,0.0,0.5254,0.0,0.9126,1.2196,1.0984,0.2109,0.0,0.0,0.0,0.0,0.0,0.0,0.0356,0.3759,1.28,1.4276,1.1167,0.1974,0.0359,0.0,0.0,0.0,0.0,0.0,0.0,0.0,0.0,0.0,0.0,0.0,0.0,0.0,0.0,0.0,0.0,0.0,0.0,0.0,0.0,0.0,0.0,0.0,0.0,0.0,0.0,0.0,0.0,0.0,0.0,0.0,0.0,0.0,0.0,0.0,0.0,0.0,0.0,0.0,0.0,0.0,0.0,0.0,0.0,0.0,0.0,0.0,0.0,0.0,0.0,0.0,0.2828,0.212,0.0202,0.0,0.0,0.0,0.0,0.0,0.0,0.0,0.0,0.0,0.0,0.0,0.0,0.0,0.0,0.0,0.244,0.5715,0.9754,0.9259,0.8947,0.8764,0.8316,0.8153,0.8187,0.8079,0.8038,0.8052,0.8147,0.8187,0.0,0.0,0.0,0.0,0.0,0.0,0.0,0.0,0.0,0.0,0.0,0.0,0.0,0.0,0.0,0.0632,0.3129,0.43,0.3884,0.0772,0.0,0.0,0.0,0.0,0.0,0.0,0.0,0.1068,0.4483,0.5177,0.3919,0.0538,0.0,0.0,0.0,0.0,0.0,0.0,0.0,0.0,0.0,0.0,0.0,0.0,0.0,0.0,0.0,0.0,0.0,0.0,0.0,0.0,0.0,0.0,0.0,0.0,0.0,0.0,0.0,0.0,0.0,0.0,0.0,0.0,0.0,0.0,0.0,0.0,0.0,0.0,0.0,0.0,0.0,0.0,0.8038,0.0,0.7939,0.7838,0.7925,0.7872,0.7489,0.0,0.0,0.0,0.0,0.0,0.0,0.0,0.0,0.0,0.0,0.0,0.0,0.0,0.0,0.0,0.0,0.0,0.0,0.0,0.0,0.0,0.0,0.2349,0.6641,0.837,0.8968,0.0,0.0,0.0,0.8248,0.8099,0.8099,0.8201,0.8357,0.0,0.0,0.0,0.0,0.0,0.0,0.0,0.0,0.0,0.0,0.0,0.0,0.0,0.0,0.6512,0.0,0.0,0.0,0.0,0.0,0.0,0.0,0.0,0.0,0.0,0.0,0.0,0.0,0.0,0.0,0.0,0.0,0.0,0.0,0.0,0.0,0.0,0.0,0.0,0.0,0.0,0.0,0.0,0.0,0.0,0.0,0.0,0.0,0.0,0.0,0.0,0.0,0.0,0.0,0.0,0.0,0.0,0.0,0.0,0.0,0.0,0.0,0.0,0.0,0.0,0.0,0.0,0.0,0.0,0.0,0.0,0.0,0.8011,0.8038,0.8038,0.8038,0.7959,0.7972,0.7972,0.7899,0.7717,0.7717,0.0,0.0,0.0,0.0,0.0,0.0,0.0,0.0,0.0,0.0,0.0,0.0,0.0,0.0,0.0,0.0,0.0,0.0,0.0,0.0,0.0,0.0,0.0,0.0228,0.6671,0.9036,0.8332,0.0,0.8696,0.8669,0.0,0.8221,0.8506,0.0,0.0,0.0,0.8974,0.8859,0.0,0.8486,0.0,0.0,0.0,0.0,0.0,0.0,0.0,0.0,0.0,0.0,0.0,0.0,0.0,0.0,0.0,0.0,0.0,0.0,0.0,0.0,0.0,0.0,0.0,0.0,0.0,0.0,0.0,0.0,0.0,0.0,0.0,0.0,0.0,0.0,0.0,0.0,0.0,0.0,0.0,0.0,0.0,0.0,0.0,0.0,0.0,0.0,0.0,0.0,0.0,0.0,0.0,0.0,0.0,0.0,0.0,0.0,0.0,0.0,0.0,0.0,0.0,0.0,0.0,0.0,0.0,0.0,0.7991,0.8038,0.8045,0.7959,0.7979,0.7992,0.8006,0.475,0.2221,0.0,0.0,0.0,0.0,0.0,0.0,0.0,0.0,0.0,0.0,0.0,0.0,0.0,0.0,0.0,0.0,0.0,0.0,0.0,0.0,0.0,0.0,0.0,0.0,0.0111,0.1854,0.5214,0.9291,0.8501,0.0,0.8652,0.8303,0.8384,0.0,0.0,0.0,0.0,0.0,0.8655,0.8648,0.0,0.8723,0.8784,0.0,0.0,0.0,0.0,0.0,0.0,0.8856,0.0,0.0,0.0,0.0,0.0,0.0,0.0,0.0,0.0,0.0,0.0,0.0,0.0,0.0,0.0,0.0,0.0,0.0,0.0,0.0,0.0,0.0,0.0,0.0,0.0,0.0,0.0,0.0,0.0,0.0,0.0,0.0,0.0,0.0,0.0,0.0,0.0,0.0,0.0,0.0,0.0,0.0,0.0,0.0,0.0,0.0,0.0,0.0,0.0,0.0,0.0,0.0,0.0,0.0,0.0,0.0,0.0,0.7991,0.8038,0.8045,0.7959,0.7054,0.6353,0.6364,0.2723,0.0,0.0,0.0,0.0,0.0,0.0,0.0,0.0,0.0,0.0,0.0,0.0,0.0,0.0,0.0,0.0,0.0,0.0,0.0,0.0,0.0,0.0,0.0,0.0,0.0,0.0,0.0,0.2103,0.5742,0.0,0.0,0.0,0.8557,0.0,0.0,0.8845,0.8818,0.0,0.0,0.0,0.9055,0.8866,0.8777,0.0,0.0,0.0,0.0,0.0,0.0,0.0,0.0,0.0,0.0,0.0,0.0,0.0,0.0,0.0,0.0,0.0,0.0,0.0,0.0,0.0,0.0,0.0,0.0,0.0,0.0,0.0,0.0,0.0,0.0,0.0,0.0,0.0,0.0,0.0,0.0,0.0,0.0,0.0,0.0,0.0,0.0,0.0,0.0,0.0,0.0,0.0,0.0,0.0,0.0,0.0,0.0,0.0,0.0,0.0,0.0,0.0,0.0,0.0,0.0,0.0,0.0,0.0,0.0,0.0,0.0,0.8038,0.8038,0.8045,0.6027,0.4218,0.3613,0.1509,0.0,0.0,0.0,0.0,0.0,0.0,0.0,0.0,0.0,0.0,0.0,0.0,0.0,0.0,0.0,0.0,0.0,0.0606,0.0606,0.0,0.0,0.0,0.0,0.0606,0.0606,0.0,0.0,0.0,0.0202,0.3594,0.0,0.8401,0.8709,0.8927,0.0,0.0,0.9286,0.9232,0.9632,0.9693,0.9517,0.9103,0.8784,0.0,0.0,0.0,0.0,0.0,0.8321,0.0,0.0,0.0,0.0,0.0,0.0,0.0,0.0,0.0,0.0,0.0,0.0,0.0,0.0,0.0,0.0,0.0,0.0,0.0,0.0,0.0,0.0,0.0,0.0,0.0,0.0,0.0,0.0,0.0,0.0,0.0,0.0,0.0,0.0,0.0,0.0,0.0,0.0,0.0,0.0,0.0,0.0,0.0,0.0,0.0,0.0,0.0,0.0,0.0,0.0,0.0,0.0,0.0,0.0,0.0,0.0,0.0,0.0,0.0,0.8011,0.8038,0.8045,0.7965,0.7559,0.5737,0.1406,0.0302,0.0,0.0,0.0,0.0,0.0,0.0,0.0,0.0,0.0,0.0,0.0,0.0,0.0,0.0,0.0,0.0,0.0,0.4243,0.4347,0.0,0.0,0.0,0.0101,0.4448,0.4142,0.0,0.0,0.0,0.0303,0.5779,0.0,0.8772,0.8735,0.0,0.9286,0.9245,0.9273,0.9347,0.9435,0.9449,0.9395,0.9184,0.9069,0.8981,0.0,0.0,0.0,0.8582,0.0,0.0,0.0,0.0,0.0,0.0,0.0,0.0,0.0,0.0,0.0,0.0,0.0,0.0,0.0,0.0,0.0,0.0,0.0,0.0,0.0,0.0,0.0,0.0,0.0,0.0,0.0,0.0,0.0,0.0,0.0,0.0,0.0,0.0,0.0,0.0,0.0,0.0,0.0,0.0,0.0,0.0,0.0,0.0,0.0,0.0,0.0,0.0,0.0,0.0,0.0,0.0,0.0,0.0,0.0,0.0,0.0,0.0,0.0,0.0,0.8024,0.8038,0.8045,0.7952,0.7972,0.7083,0.4384,0.1721,0.0,0.0,0.0,0.0,0.0,0.0,0.0,0.0,0.0,0.0,0.0,0.0,0.0,0.0,0.0,0.0,0.0,0.2624,0.4041,0.394,0.4034,0.3324,0.2012,0.4738,0.5244,0.393,0.2613,0.1207,0.0404,0.0,0.8815,0.8906,0.881,0.0,0.9266,0.9279,0.9374,0.9503,0.9578,0.9564,0.9496,0.9538,0.9401,0.0,0.9028,0.9035,0.9117,0.0,0.761,0.5552,0.0,0.0,0.0,0.0,0.0,0.0,0.0,0.0,0.0,0.0,0.0,0.0,0.0,0.0,0.0,0.0,0.0,0.0,0.0,0.0,0.0,0.0,0.0,0.0,0.0,0.0,0.0,0.0,0.0,0.0,0.0,0.0,0.0,0.0,0.0,0.0,0.0,0.0,0.0,0.0,0.0,0.0,0.0,0.0,0.0,0.0,0.0,0.0,0.0,0.0,0.0,0.0,0.0,0.0,0.0,0.0,0.0,0.0,0.8038,0.8038,0.8038,0.8038,0.7959,0.7818,0.7316,0.3561,0.0614,0.0106,0.0,0.0,0.0,0.0,0.0,0.0,0.0,0.0405,0.1428,0.0608,0.0,0.0,0.0,0.0,0.0,0.0,0.2624,0.8026,0.8019,0.6877,0.4722,0.4722,0.5952,0.8032,0.5746,0.3531,0.0,0.0,0.0,0.8862,0.0,0.8967,0.9184,0.9374,0.9523,0.9639,0.9788,0.9277,0.8588,0.8834,0.9194,0.952,0.9374,0.9456,0.0,0.0,0.0,0.0,0.0,0.0,0.0,0.0,0.0,0.0,0.0,0.0,0.0,0.0,0.0,0.0,0.0,0.0,0.0,0.0,0.0,0.0,0.0,0.0,0.0,0.0,0.0,0.0,0.0,0.0,0.0,0.0,0.0,0.0,0.0,0.0,0.0,0.0,0.0,0.0,0.0,0.0,0.0,0.0,0.0,0.0,0.0,0.0,0.0,0.0,0.0,0.0,0.0,0.0,0.0,0.0,0.0,0.0,0.0,0.0,0.0,0.0,0.8038,0.8038,0.8038,0.8038,0.8045,0.7241,0.4834,0.3924,0.2649,0.0318,0.0,0.0,0.0,0.0,0.0,0.0,0.0,0.0,0.679,0.2673,0.0,0.0,0.0,0.0,0.0,0.0,0.262,0.8026,0.8006,0.7885,0.7578,0.7566,0.7844,0.8398,0.7844,0.0,0.0,0.0,0.6455,0.0,0.893,0.8931,0.0,0.9557,0.9799,0.9813,0.9842,0.7883,0.5395,0.0,0.7362,0.9829,0.0,0.9916,0.9788,0.9741,0.0,0.0,0.0,0.0,0.0,0.0,0.0,0.0,0.0,0.0,0.0,0.0,0.0,0.0,0.0,0.0,0.0,0.0,0.0,0.0,0.0,0.0,0.0,0.0,0.0,0.0,0.0,0.0,0.0,0.0,0.0,0.0,0.0,0.0,0.0,0.0,0.0,0.0,0.0,0.0,0.0,0.0,0.0,0.0,0.0,0.0,0.0,0.0,0.0,0.0,0.0,0.0,0.0,0.0,0.0,0.0,0.0,0.0,0.0,0.0,0.8038,0.8038,0.8038,0.8038,0.7959,0.7591,0.654,0.3674,0.1284,0.0107,0.0,0.0,0.0,0.0,0.0,0.0,0.0,0.2298,0.0,0.0,0.394,0.241,0.0806,0.0,0.0,0.0,0.1913,0.5646,0.7272,0.7979,0.7965,0.8147,0.8228,0.8392,0.8221,0.0,0.5753,0.0,0.7551,0.0,0.0,0.7891,0.0,0.7412,0.8606,0.9808,0.9744,0.8913,0.7132,0.3364,0.3022,0.0,0.0,0.0,0.0,1.0184,0.0,0.0,0.0,0.0,0.0,0.0,0.0,0.0,0.0,0.0,0.0,0.0,0.0,0.0,0.0,0.0,0.0,0.0,0.0,0.0,0.0,0.0,0.0,0.0,0.0,0.0,0.0,0.0,0.0,0.0,0.0,0.0,0.0,0.0,0.0,0.0,0.0,0.0,0.0,0.0,0.0,0.0,0.0,0.0,0.0,0.0,0.0,0.0,0.0,0.0,0.0,0.0,0.0,0.0,0.0,0.0,0.0,0.0,0.0,0.0,0.8038,0.8038,0.8038,0.8038,0.7965,0.8026,0.8037,0.3403,0.0652,0.2473,0.1109,0.0,0.0,0.0,0.0,0.0,0.0,0.1945,0.0,0.0,0.6765,0.4121,0.2819,0.2217,0.2213,0.1511,0.2416,0.5122,0.7059,0.7992,0.8106,0.8214,0.8316,0.8391,0.8543,0.7364,0.5534,0.0,0.8745,0.8915,0.8897,0.7135,0.478,0.6607,0.8418,0.9834,0.7817,0.7107,0.6362,0.1655,0.0,0.0785,0.5547,0.8086,0.9252,0.0,0.0,0.0,0.7996,0.9305,0.9419,0.4279,0.1413,0.0,0.0,0.0,0.0,0.0,0.0,0.0,0.0,0.0,0.0,0.0,0.0,0.0,0.0,0.0,0.0,0.0,0.0,0.0,0.0,0.0,0.0,0.0,0.0,0.0,0.0,0.0,0.0,0.0,0.0,0.0,0.0,0.0,0.0,0.0,0.0,0.0,0.0,0.0,0.0,0.0,0.0,0.0,0.0,0.0,0.0,0.0,0.0,0.0,0.0,0.0,0.0,0.0,0.8038,0.8038,0.8038,0.8038,0.7959,0.7985,0.8026,0.3442,0.2271,0.8629,0.3944,0.0,0.0,0.0,0.0,0.0,0.0,0.1138,0.3907,0.0,0.6824,0.4124,0.6453,0.7691,0.0,0.524,0.5227,0.7872,0.7972,0.814,0.8262,0.8269,0.8425,0.8703,0.8975,0.9022,0.8837,0.951,0.942,0.8846,0.8867,0.7286,0.5276,0.8418,1.004,0.9764,0.2777,0.0254,0.0258,0.0131,0.0,0.0,0.0267,0.2677,0.5626,0.5622,0.5541,0.5583,0.5506,0.8093,1.0705,1.0404,0.5086,0.0,0.0,0.0,0.0,0.0,0.0,0.0,0.0,0.0,0.0,0.0,0.0,0.0,0.0,0.0,0.0,0.0,0.0,0.0,0.0,0.0,0.0,0.0,0.0,0.0,0.0,0.0,0.0,0.0,0.0,0.0,0.0,0.0,0.0,0.0,0.0,0.0,0.0,0.0,0.0,0.0,0.0,0.0,0.0,0.0,0.0,0.0,0.0,0.0,0.0,0.0,0.0,0.0,0.8038,0.8038,0.8038,0.8038,0.0,0.6782,0.3275,0.2693,0.2777,0.0,0.0,0.0,0.0,0.0,0.0,0.0,0.0,0.5487,0.1619,0.5721,0.0,0.0,0.0,0.4411,0.0,0.7084,0.7044,0.7972,0.7972,0.814,0.8275,0.8364,0.852,0.8716,0.8872,0.9154,0.0,0.0,0.0,0.0,0.0,0.5503,0.9429,1.0114,0.8913,0.6823,0.6979,0.4039,0.0,0.0,0.0,0.0,0.0,0.0806,0.1881,0.1881,0.1763,0.1786,0.1793,0.2679,0.3563,0.3677,0.1756,0.0,0.0,0.0,0.0,0.0,0.0,0.0,0.0,0.0,0.0,0.0,0.0,0.0,0.0,0.0,0.0,0.0,0.0,0.0,0.0,0.0,0.0,0.0,0.0,0.0,0.0,0.0,0.0,0.0,0.0,0.0,0.0,0.0,0.0,0.0,0.0,0.0,0.0,0.0,0.0,0.0,0.0,0.0,0.0,0.0,0.0,0.0,0.0,0.0,0.0,0.0,0.0,0.0,0.8052,0.8038,0.8038,0.8038,0.0,0.6952,0.3721,0.4053,0.0,0.0,0.5222,0.0,0.2098,0.0,0.2743,0.0,0.4206,0.6077,0.3892,0.6063,0.0,0.8438,0.5041,0.0,0.0,0.0,0.0,0.8147,0.8248,0.8343,0.8431,0.852,0.8648,0.8804,0.9062,0.9325,0.9645,0.9418,0.8635,0.0,0.206,0.4695,1.159,1.117,0.9416,0.7098,0.6958,0.5558,0.3457,0.0805,0.0,0.0,0.0,0.0,0.0,0.0,0.0,0.0,0.0,0.0,0.0,0.0,0.0,0.0,0.0,0.0,0.0,0.0,0.0,0.0,0.0,0.0,0.0,0.0,0.0,0.0,0.0,0.0,0.0,0.0,0.0,0.0,0.0,0.0,0.0,0.0,0.0,0.0,0.0,0.0,0.0,0.0,0.0,0.0,0.0,0.0,0.0,0.0,0.0,0.0,0.0,0.0,0.0,0.0,0.0,0.0,0.0,0.0,0.0,0.0,0.0,0.0,0.0,0.0,0.0,0.0,0.8065,0.8045,0.8052,0.8052,0.8174,0.0,0.0,0.0,0.6965,0.0,0.4508,0.1571,0.4635,0.8439,0.7983,0.1078,0.0531,0.3449,1.0206,0.7427,0.0,0.0,0.894,0.8852,0.8673,0.0,0.0,0.0,0.856,0.8696,0.871,0.8703,0.8784,0.896,0.9401,0.9517,0.9435,1.0096,0.8102,0.438,0.131,0.4452,1.1099,1.1388,1.1387,1.0245,0.3047,0.466,0.9192,0.2289,0.0,0.0,0.0,0.0,0.0,0.0,0.0,0.0,0.0,0.0,0.0,0.0,0.0,0.0,0.0,0.0,0.0,0.0,0.0,0.0,0.0,0.0,0.0,0.0,0.0,0.0,0.0,0.0,0.0,0.0,0.0,0.0,0.0,0.0,0.0,0.0,0.0,0.0,0.0,0.0,0.0,0.0,0.0,0.0,0.0,0.0,0.0,0.0,0.0,0.0,0.0,0.0,0.0,0.0,0.0,0.0,0.0,0.0,0.0,0.0,0.0,0.0,0.0,0.0,0.0,0.0,0.8045,0.8133,0.8214,0.8221,0.8153,0.8228,0.0,0.0,0.0,0.0,0.8961,0.683,0.5761,0.8686,1.0009,0.8098,0.7973,0.0,0.0,0.0,0.0,0.964,0.9213,0.9032,0.9171,0.8771,0.0,0.8601,0.0,0.8492,0.871,0.8594,0.8682,0.8954,0.9293,0.9415,0.9422,0.9968,0.6662,0.1194,0.0401,0.1209,0.3643,0.9454,1.1589,1.1125,0.8778,0.5778,0.2423,0.0673,0.0,0.0,0.0,0.0,0.0,0.0,0.0,0.0,0.0,0.0,0.0,0.0,0.0,0.0,0.0,0.0,0.0,0.0,0.0,0.0,0.0,0.0,0.0,0.0,0.0,0.0,0.0,0.0,0.0,0.0,0.0,0.0,0.0,0.0,0.0,0.0,0.0,0.0,0.0,0.0,0.0,0.0,0.0,0.0,0.0,0.0,0.0,0.0,0.0,0.0,0.0,0.0,0.0,0.0,0.0,0.0,0.0,0.0,0.0,0.0,0.0,0.0,0.0,0.0,0.0,0.0,0.8052,0.8214,0.8384,0.8459,0.0,0.0,0.9113,0.9218,0.0,1.089,1.0724,0.0,0.6983,0.912,1.0835,1.0689,0.9715,0.0,1.0622,0.0,0.0,1.01,0.983,0.9522,0.949,0.9122,0.0,0.8811,0.0,0.8648,0.8811,0.8723,0.8771,0.8954,0.9245,0.9415,0.9523,1.0029,0.6181,0.0,0.0,0.0,0.0,0.4867,0.8709,1.1118,0.7309,0.3365,0.0,0.0,0.0,0.0,0.0,0.0,0.0,0.0,0.0,0.0,0.0,0.0,0.0,0.0,0.0,0.0,0.0,0.0,0.0,0.0,0.0,0.0,0.0,0.0,0.0,0.0,0.0,0.0,0.0,0.0,0.0,0.0,0.0,0.0,0.0,0.0,0.0,0.0,0.0,0.0,0.0,0.0,0.0,0.0,0.0,0.0,0.0,0.0,0.0,0.0,0.0,0.0,0.0,0.0,0.0,0.0,0.0,0.0,0.0,0.0,0.0,0.0,0.0,0.0,0.0,0.0,0.0,0.0,0.8119,0.8336,0.0,0.0,0.0,0.0,0.0,0.9799,0.0,1.0317,0.0,1.0672,0.8407,0.9896,1.1014,1.0735,0.0,0.8153,1.0504,1.0717,1.0588,1.0447,1.0397,1.0127,0.9707,0.949,0.9259,0.0,0.0,0.8899,0.894,0.892,0.892,0.8954,0.9225,0.9449,0.9652,1.0149,0.6876,0.1335,0.0403,0.0,0.0,0.0,0.4179,0.9221,0.2425,0.0,0.0,0.0,0.0,0.0,0.0,0.0,0.0,0.0,0.0,0.0,0.0,0.0,0.0,0.0,0.0,0.0,0.0,0.0,0.0,0.0,0.0,0.0,0.0,0.0,0.0,0.0,0.0,0.0,0.0,0.0,0.0,0.0,0.0,0.0,0.0,0.0,0.0,0.0,0.0,0.0,0.0,0.0,0.0,0.0,0.0,0.0,0.0,0.0,0.0,0.0,0.0,0.0,0.0,0.0,0.0,0.0,0.0,0.0,0.0,0.0,0.0,0.0,0.0,0.0,0.0,0.0,0.0,0.0,0.8384,0.0,0.0,0.0,0.0,0.97,1.0198,1.0466,1.0744,1.0819,1.092,1.1076,1.0934,1.1147,1.1208,1.0988,0.8544,0.0,0.0,0.0,0.0,1.0616,1.0692,1.0541,1.0168,0.9546,0.9258,0.0,0.0,0.8689,0.8933,0.8811,0.8818,0.8947,0.9117,0.9476,0.9792,1.0175,0.9755,0.8361,0.24,0.0,0.0,0.0,0.0808,0.1885,0.0539,0.0,0.0,0.0,0.0,0.0,0.0,0.0,0.0,0.0,0.0,0.0,0.0,0.0,0.0,0.0,0.0,0.0,0.0,0.0,0.0,0.0,0.0,0.0,0.0,0.0,0.0,0.0,0.0,0.0,0.0,0.0,0.0,0.0,0.0,0.0,0.0,0.0,0.0,0.0,0.0,0.0,0.0,0.0,0.0,0.0,0.0,0.0,0.0,0.0,0.0,0.0,0.0,0.0,0.0,0.0,0.0,0.0,0.0,0.0,0.0,0.0,0.0,0.0,0.0,0.0,0.0,0.0,0.0,0.0,0.8804,0.0,0.0,0.0,0.0,0.0,1.0568,1.1009,1.1212,1.0975,1.0928,1.1074,1.128,1.1355,1.1241,1.1181,0.9835,0.9549,1.0604,1.0672,1.0751,1.0724,1.0677,1.0575,1.0392,0.9694,0.9392,0.9496,0.8893,0.8716,0.8933,0.8784,0.8791,0.8947,0.9171,0.9449,0.9781,0.9004,0.9472,1.0123,0.2933,0.0,0.0,0.0,0.0,0.0,0.0,0.0,0.0,0.0,0.0,0.0,0.0,0.0,0.0,0.0,0.0,0.0,0.0,0.0,0.0,0.0,0.0,0.0,0.0,0.0,0.0,0.0,0.0,0.0,0.0,0.0,0.0,0.0,0.0,0.0,0.0,0.0,0.0,0.0,0.0,0.0,0.0,0.0,0.0,0.0,0.0,0.0,0.0,0.0,0.0,0.0,0.0,0.0,0.0,0.0,0.0,0.0,0.0,0.0,0.0,0.0,0.0,0.0,0.0,0.0,0.0,0.0,0.0,0.0,0.0,0.0,0.0,0.0,0.0,0.0,0.0,0.932,0.0,0.0,1.029,1.067,1.0914,1.1328,1.1491,1.1138,1.109,1.109,1.109,1.1301,1.1423,1.1228,1.1138,1.0839,1.0657,1.0658,1.0717,1.0717,1.0717,1.0649,1.0493,0.9944,0.9625,0.0,0.9022,0.8784,0.8838,0.8784,0.8825,0.8954,0.9245,0.9523,0.966,0.7838,0.843,1.0038,0.2933,0.0,0.0,0.0,0.0,0.0,0.0,0.0,0.0,0.0,0.0,0.0,0.0,0.0,0.0,0.0,0.0,0.0,0.0,0.0,0.0,0.0,0.0,0.0,0.0,0.0,0.0,0.0,0.0,0.0,0.0,0.0,0.0,0.0,0.0,0.0,0.0,0.0,0.0,0.0,0.0,0.0,0.0,0.0,0.0,0.0,0.0,0.0,0.0,0.0,0.0,0.0,0.0,0.0,0.0,0.0,0.0,0.0,0.0,0.0,0.0,0.0,0.0,0.0,0.0,0.0,0.0,0.0,0.0,0.0,0.0,0.0,0.0,0.0,0.0,0.0,0.0,0.0,0.0,1.0209,1.0609,1.0914,1.0948,1.1328,1.1606,1.1565,1.1558,1.1558,1.1558,1.1579,1.1491,1.1212,1.1158,1.1029,1.0765,1.0731,1.0717,1.0717,1.0717,1.0649,1.0493,1.0039,0.9673,0.9401,0.9076,0.8784,0.8533,0.8798,0.8927,0.8954,0.9245,0.9408,0.9372,0.7645,0.837,1.0006,0.292,0.0,0.0,0.0,0.0,0.0,0.0,0.0,0.0,0.0,0.0,0.0,0.0,0.0,0.0,0.0,0.0,0.0,0.0,0.0,0.0,0.0,0.0,0.0,0.0,0.0,0.0,0.0,0.0,0.0,0.0,0.0,0.0,0.0,0.0,0.0,0.0,0.0,0.0,0.0,0.0,0.0,0.0,0.0,0.0,0.0,0.0,0.0,0.0,0.0,0.0,0.0,0.0,0.0,0.0,0.0,0.0,0.0,0.0,0.0,0.0,0.0,0.0,0.0,0.0,0.0,0.0,0.0,0.0,0.0,0.0,0.0,0.0,0.0,0.0,0.0,1.0195,1.0202,1.0317,1.0738,1.0887,1.107,1.1423,1.1558,1.1647,1.1735,1.1674,1.1619,1.1619,1.1619,1.1531,1.1321,1.1301,1.1212,1.1002,1.0907,1.086,1.086,1.0772,1.069,1.0629,1.0283,0.9951,0.9646,0.9442,0.9184,0.8886,0.892,0.894,0.8954,0.9245,0.949,0.9707,0.9093,0.9575,1.0514,0.7665,0.3934,0.0,0.0,0.0,0.0,0.0,0.0,0.0,0.0,0.0,0.0,0.0,0.0,0.0,0.0,0.0,0.0,0.0,0.0,0.0,0.0,0.0,0.0,0.0,0.0,0.0,0.0,0.0,0.0,0.0,0.0,0.0,0.0,0.0,0.0,0.0,0.0,0.0,0.0,0.0,0.0,0.0,0.0,0.0,0.0,0.0,0.0,0.0,0.0,0.0,0.0,0.0,0.0,0.0,0.0,0.0,0.0,0.0,0.0,0.0,0.0,0.0,0.0,0.0,0.0,0.0,0.0,0.0,0.0,0.0,0.0,0.0,0.0,0.0,0.0,1.0588,1.0582,1.0711,1.126,1.124,1.1301,1.1762,1.1708,1.1653,1.1755,1.1681,1.1619,1.1619,1.1619,1.1558,1.1402,1.1389,1.1328,1.1172,1.107,1.0995,1.0948,1.0846,1.0765,1.0724,1.0473,1.0168,0.9822,0.972,0.9449,0.9022,0.9008,0.9049,0.915,0.9449,0.9727,0.9998,1.0243,1.048,1.0711,1.0907,0.7966,0.3036,0.0839,0.0,0.0,0.0,0.0,0.0,0.0,0.0,0.0,0.0,0.0,0.0,0.0,0.0,0.0,0.0,0.0,0.0,0.0,0.0,0.0,0.0,0.0,0.0,0.0,0.0,0.0,0.0,0.0,0.0,0.0,0.0,0.0,0.0,0.0,0.0,0.0,0.0,0.0,0.0,0.0,0.0,0.0,0.0,0.0,0.0,0.0,0.0,0.0,0.0,0.0,0.0,0.0,0.0,0.0,0.0,0.0,0.0,0.0,0.0,0.0,0.0,0.0,0.0,0.0,0.0,0.0,0.0,0.0,0.0,0.0,0.0,0.0,1.088,1.1056,1.1294,1.1742,1.1708,1.166,1.1809,1.1708,1.1619,1.1619,1.1619,1.1619,1.1619,1.1619,1.1558,1.1402,1.1389,1.1328,1.1172,1.1158,1.1097,1.0955,1.0948,1.0873,1.0724,1.0568,1.027,0.9822,0.9822,0.9442,0.8723,0.9015,0.9313,0.9612,0.991,1.0127,1.0283,1.0426,1.0663,1.0948,1.0975,1.109,1.0265,0.2834,0.0,0.0,0.0,0.0,0.0,0.0,0.0,0.0,0.0,0.0,0.0,0.0,0.0,0.0,0.0,0.0,0.0,0.0,0.0,0.0,0.0,0.0,0.0,0.0,0.0,0.0,0.0,0.0,0.0,0.0,0.0,0.0,0.0,0.0,0.0,0.0,0.0,0.0,0.0,0.0,0.0,0.0,0.0,0.0,0.0,0.0,0.0,0.0,0.0,0.0,0.0,0.0,0.0,0.0,0.0,0.0,0.0,0.0,0.0,0.0,0.0,0.0,0.0,0.0,0.0,0.0,0.0,0.0,0.0,0.0,0.0,0.0,1.1212,1.1287,1.1396,1.1647,1.1647,1.1701,1.1952,1.1857,1.1803,1.1904,1.183,1.1728,1.1633,1.1619,1.1599,1.1552,1.1545,1.1525,1.1477,1.1375,1.1253,1.1104,1.1002,1.0873,1.0724,1.067,1.048,1.0134,1.0229,1.0053,0.9625,0.972,0.9815,0.9917,1.012,1.029,1.0439,1.0697,1.086,1.0968,1.1054,1.1188,1.0985,0.8806,0.4662,0.0,0.0,0.0,0.0,0.0,0.0,0.0,0.0,0.0,0.0,0.0,0.0,0.0,0.0,0.0,0.0,0.0,0.0,0.0,0.0,0.0,0.0,0.0,0.0,0.0,0.0,0.0,0.0,0.0,0.0,0.0,0.0,0.0,0.0,0.0,0.0,0.0,0.0,0.0,0.0,0.0,0.0,0.0,0.0,0.0,0.0,0.0,0.0,0.0,0.0,0.0,0.0,0.0,0.0,0.0,0.0,0.0,0.0,0.0,0.0,0.0,0.0,0.0,0.0,0.0,0.0,0.0,0.0,0.0,0.0,0.0,1.1369,1.1436,1.1545,1.1748,1.1694,1.1742,1.2094,1.1925,1.1803,1.1952,1.1843,1.1735,1.1701,1.1653,1.1619,1.1619,1.1619,1.1619,1.1619,1.1531,1.1382,1.1172,1.1077,1.0934,1.0724,1.0717,1.0602,1.0358,1.0337,1.0263,1.0134,1.0134,1.0161,1.0222,1.0378,1.0527,1.0677,1.0867,1.1009,1.1138,1.1261,1.0394,0.9302,1.0944,0.67,0.0,0.0,0.0,0.0,0.0,0.0,0.0,0.0,0.0,0.0,0.0,0.0,0.0,0.0,0.0,0.0,0.0,0.0,0.0,0.0,0.0,0.0,0.0,0.0,0.0,0.0,0.0,0.0,0.0,0.0,0.0,0.0,0.0,0.0,0.0,0.0,0.0,0.0,0.0,0.0,0.0,0.0,0.0,0.0,0.0,0.0,0.0,0.0,0.0,0.0,0.0,0.0,0.0,0.0,0.0,0.0,0.0,0.0,0.0,0.0,0.0,0.0,0.0,0.0,0.0,0.0,0.0,0.0,0.0,0.0,0.0,1.1409,1.1531,1.1721,1.1999,1.1823,1.1796,1.2223,1.1938,1.1714,1.1843,1.1742,1.1694,1.1816,1.1701,1.1619,1.1619,1.1619,1.1619,1.1619,1.1619,1.1491,1.1192,1.1179,1.1043,1.0744,1.0738,1.0663,1.0507,1.0236,1.0175,1.031,1.031,1.0378,1.0514,1.067,1.0812,1.0948,1.0968,1.1145,1.1423,1.1305,0.9097,0.6237,0.9521,0.6369,0.0,0.0,0.0,0.0,0.0,0.0,0.0,0.0,0.0,0.0,0.0,0.0,0.0,0.0,0.0,0.0,0.0,0.0,0.0,0.0,0.0,0.0,0.0,0.0,0.0,0.0,0.0,0.0,0.0,0.0,0.0,0.0,0.0,0.0,0.0,0.0,0.0,0.0,0.0,0.0,0.0,0.0,0.0,0.0,0.0,0.0,0.0,0.0,0.0,0.0,0.0,0.0,0.0,0.0,0.0,0.0,0.0,0.0,0.0,0.0,0.0,0.0,0.0,0.0,0.0,0.0,0.0,0.0,0.0,0.0,0.0,1.1565,1.1681,1.1803,1.187,1.1925,1.2033,1.2257,1.2203,1.2142,1.2176,1.2054,1.1925,1.1837,1.1701,1.1619,1.1619,1.1619,1.1619,1.1619,1.1619,1.1538,1.1348,1.1335,1.1199,1.09,1.0894,1.0819,1.0663,1.0595,1.0582,1.0616,1.0616,1.0636,1.067,1.0826,1.0914,1.0962,1.1192,1.1396,1.1579,1.1491,0.9234,0.5556,0.3476,0.1676,0.0,0.0,0.0,0.0,0.0,0.0,0.0,0.0,0.0,0.0,0.0,0.0,0.0,0.0,0.0,0.0,0.0,0.0,0.0,0.0,0.0,0.0,0.0,0.0,0.0,0.0,0.0,0.0,0.0,0.0,0.0,0.0,0.0,0.0,0.0,0.0,0.0,0.0,0.0,0.0,0.0,0.0,0.0,0.0,0.0,0.0,0.0,0.0,0.0,0.0,0.0,0.0,0.0,0.0,0.0,0.0,0.0,0.0,0.0,0.0,0.0,0.0,0.0,0.0,0.0,0.0,0.0,0.0,0.0,0.0,0.0,1.1728,1.1775,1.1857,1.1925,1.1945,1.2054,1.2345,1.2271,1.2189,1.2189,1.2054,1.1952,1.1938,1.1803,1.1775,1.1911,1.1796,1.1687,1.1619,1.1681,1.1619,1.1402,1.1321,1.1179,1.0955,1.088,1.0806,1.0717,1.0717,1.0717,1.0717,1.0717,1.0758,1.0826,1.0914,1.1023,1.1165,1.1396,1.1579,1.1742,1.1722,0.9403,0.5325,0.1535,0.0,0.0,0.0,0.0,0.0,0.0,0.0,0.0,0.0,0.0,0.0,0.0,0.0,0.0,0.0,0.0,0.0,0.0,0.0,0.0,0.0,0.0,0.0,0.0,0.0,0.0,0.0,0.0,0.0,0.0,0.0,0.0,0.0,0.0,0.0,0.0,0.0,0.0,0.0,0.0,0.0,0.0,0.0,0.0,0.0,0.0,0.0,0.0,0.0,0.0,0.0,0.0,0.0,0.0,0.0,0.0,0.0,0.0,0.0,0.0,0.0,0.0,0.0,0.0,0.0,0.0,0.0,0.0,0.0,0.0,0.0,0.0,1.1823,1.1837,1.1904,1.204,1.1993,1.206,1.244,1.2291,1.2128,1.2128,1.1993,1.1952,1.2081,1.1959,1.1972,1.223,1.204,1.183,1.166,1.1762,1.1708,1.1436,1.1301,1.1165,1.1023,1.0867,1.0785,1.0785,1.0765,1.0765,1.0785,1.0765,1.0839,1.0982,1.1002,1.1165,1.1436,1.1586,1.1748,1.1925,1.2085,0.9571,0.5411,0.1565,0.0,0.0,0.0,0.0,0.0,0.0,0.0,0.0,0.0,0.0,0.0,0.0,0.0,0.0,0.0,0.0,0.0,0.0,0.0,0.0,0.0,0.0,0.0,0.0,0.0,0.0,0.0,0.0,0.0,0.0,0.0,0.0,0.0,0.0,0.0,0.0,0.0,0.0,0.0,0.0,0.0,0.0,0.0,0.0,0.0,0.0,0.0,0.0,0.0,0.0,0.0,0.0,0.0,0.0,0.0,0.0,0.0,0.0,0.0,0.0,0.0,0.0,0.0,0.0,0.0,0.0,0.0,0.0,0.0,0.0,0.0,0.0,1.1653,1.1857,1.2033,1.206,1.225,1.242,1.2488,1.2461,1.2433,1.2433,1.2305,1.223,1.225,1.2115,1.2047,1.2094,1.2176,1.2101,1.1816,1.1816,1.1755,1.1592,1.1558,1.1477,1.1328,1.1172,1.109,1.109,1.0975,1.0975,1.109,1.0968,1.0989,1.1138,1.1267,1.1423,1.1592,1.1735,1.1959,1.2223,1.2146,0.981,0.5701,0.1587,0.0,0.0,0.0,0.0,0.0,0.0,0.0,0.0,0.0,0.0,0.0,0.0,0.0,0.0,0.0,0.0,0.0,0.0,0.0,0.0,0.0,0.0,0.0,0.0,0.0,0.0,0.0,0.0,0.0,0.0,0.0,0.0,0.0,0.0,0.0,0.0,0.0,0.0,0.0,0.0,0.0,0.0,0.0,0.0,0.0,0.0,0.0,0.0,0.0,0.0,0.0,0.0,0.0,0.0,0.0,0.0,0.0,0.0,0.0,0.0,0.0,0.0,0.0,0.0,0.0,0.0,0.0,0.0,0.0,0.0,0.0,0.0,1.1857,1.1925,1.2026,1.2162,1.2271,1.2379,1.2488,1.2501,1.2474,1.24,1.2332,1.2291,1.2291,1.223,1.2216,1.2291,1.2366,1.2311,1.2094,1.1999,1.1857,1.1633,1.1538,1.1423,1.1274,1.1199,1.1124,1.105,1.1056,1.1056,1.105,1.1056,1.1145,1.1294,1.1443,1.1592,1.1748,1.1979,1.2203,1.2413,1.2387,1.1282,0.8861,0.2414,0.0,0.0,0.0,0.0,0.0,0.0,0.0,0.0,0.0,0.0,0.0,0.0,0.0,0.0,0.0,0.0,0.0,0.0,0.0,0.0,0.0,0.0,0.0,0.0,0.0,0.0,0.0,0.0,0.0,0.0,0.0,0.0,0.0,0.0,0.0,0.0,0.0,0.0,0.0,0.0,0.0,0.0,0.0,0.0,0.0,0.0,0.0,0.0,0.0,0.0,0.0,0.0,0.0,0.0,0.0,0.0,0.0,0.0,0.0,0.0,0.0,0.0,0.0,0.0,0.0,0.0,0.0,0.0,0.0,0.0,0.0,0.0,1.2054,1.2033,1.2067,1.2257,1.2277,1.2325,1.2481,1.2501,1.2461,1.2352,1.2338,1.2338,1.2338,1.2338,1.2386,1.2494,1.2501,1.244,1.2298,1.2182,1.1979,1.1681,1.1525,1.1389,1.1274,1.1267,1.1212,1.1104,1.1179,1.1179,1.1104,1.1179,1.1314,1.1497,1.1613,1.1769,1.1952,1.2223,1.2427,1.2427,1.2628,1.2481,1.1788,0.5403,0.1651,0.0,0.0,0.0,0.0,0.0,0.0,0.0,0.0,0.0,0.0,0.0,0.0,0.0,0.0,0.0,0.0,0.0,0.0,0.0,0.0,0.0,0.0,0.0,0.0,0.0,0.0,0.0,0.0,0.0,0.0,0.0,0.0,0.0,0.0,0.0,0.0,0.0,0.0,0.0,0.0,0.0,0.0,0.0,0.0,0.0,0.0,0.0,0.0,0.0,0.0,0.0,0.0,0.0,0.0,0.0,0.0,0.0,0.0,0.0,0.0,0.0,0.0,0.0,0.0,0.0,0.0,0.0,0.0,0.0,0.0,0.0,1.2033,1.2169,1.2271,1.2284,1.2393,1.2481,1.2501,1.2501,1.2501,1.2488,1.2488,1.2488,1.2488,1.2488,1.2488,1.2501,1.2501,1.244,1.2298,1.2277,1.2135,1.183,1.1681,1.1599,1.1586,1.1586,1.1579,1.1572,1.1436,1.1443,1.1565,1.1436,1.1525,1.1796,1.1809,1.1979,1.2264,1.242,1.2434,1.245,1.2769,1.2625,1.2478,1.176,0.6772,0.0,0.0,0.0,0.0,0.0,0.0,0.0,0.0,0.0,0.0,0.0,0.0,0.0,0.0,0.0,0.0,0.0,0.0,0.0,0.0,0.0,0.0,0.0,0.0,0.0,0.0,0.0,0.0,0.0,0.0,0.0,0.0,0.0,0.0,0.0,0.0,0.0,0.0,0.0,0.0,0.0,0.0,0.0,0.0,0.0,0.0,0.0,0.0,0.0,0.0,0.0,0.0,0.0,0.0,0.0,0.0,0.0,0.0,0.0,0.0,0.0,0.0,0.0,0.0,0.0,0.0,0.0,0.0,0.0,0.0,0.0,1.2155,1.2223,1.2277,1.24,1.2467,1.2501,1.2501,1.2501,1.2501,1.2501,1.2501,1.2501,1.2501,1.2501,1.2501,1.2501,1.2501,1.2481,1.2427,1.242,1.2244,1.185,1.1694,1.166,1.1748,1.1667,1.166,1.1748,1.1606,1.1606,1.1748,1.1694,1.1775,1.1979,1.2074,1.223,1.2433,1.2583,1.2641,1.2566,0.9815,1.0474,1.2408,0.6799,0.274,0.0,0.0,0.0,0.0,0.0,0.0,0.0,0.0,0.0,0.0,0.0,0.0,0.0,0.0,0.0,0.0,0.0,0.0,0.0,0.0,0.0,0.0,0.0,0.0,0.0,0.0,0.0,0.0,0.0,0.0,0.0,0.0,0.0,0.0,0.0,0.0,0.0,0.0,0.0,0.0,0.0,0.0,0.0,0.0,0.0,0.0,0.0,0.0,0.0,0.0,0.0,0.0,0.0,0.0,0.0,0.0,0.0,0.0,0.0,0.0,0.0,0.0,0.0,0.0,0.0,0.0,0.0,0.0,0.0,0.0,0.0,1.2305,1.2325,1.2338,1.2474,1.2501,1.2501,1.2501,1.2501,1.2501,1.2501,1.2542,1.2576,1.2576,1.2576,1.2576,1.2576,1.2528,1.2501,1.2501,1.2461,1.2298,1.1986,1.1837,1.1803,1.1904,1.1809,1.1809,1.1904,1.1809,1.1809,1.1904,1.1904,1.2013,1.2203,1.2311,1.2488,1.2718,1.2827,1.2876,1.2643,0.8152,0.7581,0.8582,0.2414,0.0,0.0,0.0,0.0,0.0,0.0,0.0,0.0,0.0,0.0,0.0,0.0,0.0,0.0,0.0,0.0,0.0,0.0,0.0,0.0,0.0,0.0,0.0,0.0,0.0,0.0,0.0,0.0,0.0,0.0,0.0,0.0,0.0,0.0,0.0,0.0,0.0,0.0,0.0,0.0,0.0,0.0,0.0,0.0,0.0,0.0,0.0,0.0,0.0,0.0,0.0,0.0,0.0,0.0,0.0,0.0,0.0,0.0,0.0,0.0,0.0,0.0,0.0,0.0,0.0,0.0,0.0,0.0,0.0,0.0,0.0,0.0,1.2474,1.2501,1.2501,1.2501,1.2501,1.2501,1.2501,1.2501,1.2501,1.2501,1.2637,1.2732,1.2732,1.2732,1.2732,1.2732,1.2589,1.2508,1.2501,1.2372,1.2291,1.2291,1.2142,1.206,1.206,1.206,1.206,1.2067,1.206,1.206,1.2067,1.2067,1.2223,1.2501,1.2508,1.2752,1.3173,1.3173,1.3137,1.2663,0.8492,0.4097,0.0,0.0,0.0,0.0,0.0,0.0,0.0,0.0,0.0,0.0,0.0,0.0,0.0,0.0,0.0,0.0,0.0,0.0,0.0,0.0,0.0,0.0,0.0,0.0,0.0,0.0,0.0,0.0,0.0,0.0,0.0,0.0,0.0,0.0,0.0,0.0,0.0,0.0,0.0,0.0,0.0,0.0,0.0,0.0,0.0,0.0,0.0,0.0,0.0,0.0,0.0,0.0,0.0,0.0,0.0,0.0,0.0,0.0,0.0,0.0,0.0,0.0,0.0,0.0,0.0,0.0,0.0,0.0,0.0,0.0,0.0,0.0,0.0,0.0,1.2474,1.242,1.2386,1.2481,1.2501,1.2501,1.2501,1.2501,1.2542,1.2651,1.2705,1.2773,1.2881,1.2895,1.2895,1.2895,1.2847,1.2779,1.2671,1.2522,1.244,1.244,1.2196,1.2115,1.2223,1.2115,1.2162,1.2372,1.2162,1.2169,1.2372,1.2372,1.2488,1.2541,1.2786,1.303,1.337,1.3197,1.3197,1.312,1.195,0.6779,0.0,0.0,0.0,0.0,0.0,0.0,0.0,0.0,0.0,0.0,0.0,0.0,0.0,0.0,0.0,0.0,0.0,0.0,0.0,0.0,0.0,0.0,0.0,0.0,0.0,0.0,0.0,0.0,0.0,0.0,0.0,0.0,0.0,0.0,0.0,0.0,0.0,0.0,0.0,0.0,0.0,0.0,0.0,0.0,0.0,0.0,0.0,0.0,0.0,0.0,0.0,0.0,0.0,0.0,0.0,0.0,0.0,0.0,0.0,0.0,0.0,0.0,0.0,0.0,0.0,0.0,0.0,0.0,0.0,0.0,0.0,0.0,0.0,0.0,1.2481,1.2433,1.242,1.2569,1.2589,1.261,1.2678,1.2684,1.2718,1.2813,1.2868,1.2942,1.3037,1.3044,1.3044,1.3044,1.299,1.2922,1.2827,1.2732,1.2684,1.2684,1.2454,1.2338,1.2372,1.2284,1.2325,1.2501,1.2325,1.2359,1.2589,1.2589,1.2561,1.2795,1.2929,1.3164,1.3459,1.3472,1.2399,1.1014,1.2643,0.8089,0.0,0.0,0.0,0.0,0.0,0.0,0.0,0.0,0.0,0.0,0.0,0.0,0.0,0.0,0.0,0.0,0.0,0.0,0.0,0.0,0.0,0.0,0.0,0.0,0.0,0.0,0.0,0.0,0.0,0.0,0.0,0.0,0.0,0.0,0.0,0.0,0.0,0.0,0.0,0.0,0.0,0.0,0.0,0.0,0.0,0.0,0.0,0.0,0.0,0.0,0.0,0.0,0.0,0.0,0.0,0.0,0.0,0.0,0.0,0.0,0.0,0.0,0.0,0.0,0.0,0.0,0.0,0.0,0.0,0.0,0.0,0.0,0.0,0.0,1.2501,1.2515,1.2569,1.2705,1.2739,1.28,1.2942,1.2963,1.2969,1.2976,1.3091,1.318,1.3193,1.3193,1.3193,1.3193,1.3064,1.2983,1.2983,1.2969,1.2963,1.2963,1.2827,1.2684,1.2549,1.2528,1.2528,1.2542,1.2542,1.2617,1.2752,1.2766,1.2782,1.309,1.288,1.2589,1.2509,1.3422,1.1384,0.7933,1.0993,0.7261,0.0,0.0,0.0,0.0,0.0,0.0,0.0,0.0,0.0,0.0,0.0,0.0,0.0,0.0,0.0,0.0,0.0,0.0,0.0,0.0,0.0,0.0,0.0,0.0,0.0,0.0,0.0,0.0,0.0,0.0,0.0,0.0,0.0,0.0,0.0,0.0,0.0,0.0,0.0,0.0,0.0,0.0,0.0,0.0,0.0,0.0,0.0,0.0,0.0,0.0,0.0,0.0,0.0,0.0,0.0,0.0,0.0,0.0,0.0,0.0,0.0,0.0,0.0,0.0,0.0,0.0,0.0,0.0,0.0,0.0,0.0,0.0,0.0,0.0,1.2501,1.2596,1.2691,1.2725,1.2827,1.2922,1.2956,1.2963,1.3003,1.3112,1.3152,1.322,1.3336,1.3349,1.3349,1.3349,1.3214,1.3125,1.3125,1.3024,1.2963,1.2963,1.2929,1.2895,1.2861,1.2745,1.2739,1.2861,1.2861,1.2888,1.2789,1.2903,1.2913,1.2624,1.0732,0.7318,0.3503,1.0646,1.341,1.2206,0.5546,0.1789,0.0,0.0,0.0,0.0,0.0,0.0,0.0,0.0,0.0,0.0,0.0,0.0,0.0,0.0,0.0,0.0,0.0,0.0,0.0,0.0,0.0,0.0,0.0,0.0,0.0,0.0,0.0,0.0,0.0,0.0,0.0,0.0,0.0,0.0,0.0,0.0,0.0,0.0,0.0,0.0,0.0,0.0,0.0,0.0,0.0,0.0,0.0,0.0,0.0,0.0,0.0,0.0,0.0,0.0,0.0,0.0,0.0,0.0,0.0,0.0,0.0,0.0,0.0,0.0,0.0,0.0,0.0,0.0,0.0,0.0,0.0,0.0,0.0,0.0,1.2691,1.2725,1.2773,1.2915,1.301,1.3085,1.3159,1.3173,1.32,1.3275,1.3281,1.3308,1.339,1.3403,1.3403,1.3403,1.3397,1.3356,1.3288,1.3214,1.3173,1.3173,1.3098,1.3098,1.3166,1.3024,1.2949,1.2963,1.2963,1.301,1.295,1.3083,1.3058,1.2707,0.9385,0.7256,0.6479,0.7044,0.9969,1.3541,0.3949,0.0,0.0,0.0,0.0,0.0,0.0,0.0,0.0,0.0,0.0,0.0,0.0,0.0,0.0,0.0,0.0,0.0,0.0,0.0,0.0,0.0,0.0,0.0,0.0,0.0,0.0,0.0,0.0,0.0,0.0,0.0,0.0,0.0,0.0,0.0,0.0,0.0,0.0,0.0,0.0,0.0,0.0,0.0,0.0,0.0,0.0,0.0,0.0,0.0,0.0,0.0,0.0,0.0,0.0,0.0,0.0,0.0,0.0,0.0,0.0,0.0,0.0,0.0,0.0,0.0,0.0,0.0,0.0,0.0,0.0,0.0,0.0,0.0,0.0,0.0,1.2874,1.2861,1.2881,1.3132,1.3193,1.3254,1.3383,1.3403,1.3403,1.3403,1.3424,1.3437,1.3437,1.3458,1.3478,1.3478,1.3593,1.3614,1.3485,1.3451,1.3451,1.3478,1.3329,1.3308,1.3437,1.3342,1.3207,1.3037,1.3037,1.3132,1.3144,1.2554,1.2675,1.3349,0.7999,0.7538,1.0708,0.4802,0.5918,1.1167,0.3231,0.0,0.0,0.0,0.0,0.0,0.0,0.0,0.0,0.0,0.0,0.0,0.0,0.0,0.0,0.0,0.0,0.0,0.0,0.0,0.0,0.0,0.0,0.0,0.0,0.0,0.0,0.0,0.0,0.0,0.0,0.0,0.0,0.0,0.0,0.0,0.0,0.0,0.0,0.0,0.0,0.0,0.0,0.0,0.0,0.0,0.0,0.0,0.0,0.0,0.0,0.0,0.0,0.0,0.0,0.0,0.0,0.0,0.0,0.0,0.0,0.0,0.0,0.0,0.0,0.0,0.0,0.0,0.0,0.0,0.0,0.0,0.0,0.0,0.0,0.0,1.2779,1.2949,1.3125,1.3166,1.3281,1.3376,1.3397,1.3403,1.3403,1.3403,1.3519,1.36,1.36,1.3709,1.3783,1.3783,1.3797,1.3804,1.3783,1.3668,1.3654,1.3777,1.3641,1.3573,1.36,1.3695,1.3614,1.3342,1.3342,1.3284,1.3316,0.9357,1.0007,1.3819,0.4881,0.1228,0.2322,0.8892,0.7844,0.1795,0.0539,0.0,0.0,0.0,0.0,0.0,0.0,0.0,0.0,0.0,0.0,0.0,0.0,0.0,0.0,0.0,0.0,0.0,0.0,0.0,0.0,0.0,0.0,0.0,0.0,0.0,0.0,0.0,0.0,0.0,0.0,0.0,0.0,0.0,0.0,0.0,0.0,0.0,0.0,0.0,0.0,0.0,0.0,0.0,0.0,0.0,0.0,0.0,0.0,0.0,0.0,0.0,0.0,0.0,0.0,0.0,0.0,0.0,0.0,0.0,0.0,0.0,0.0,0.0,0.0,0.0,0.0,0.0,0.0,0.0,0.0,0.0,0.0,0.0,0.0,0.0,1.3085,1.3139,1.32,1.3288,1.3356,1.3403,1.3403,1.3471,1.3532,1.3532,1.3654,1.3749,1.3749,1.3878,1.3933,1.3844,1.3919,1.3933,1.3844,1.3783,1.3777,1.3838,1.3783,1.3749,1.3749,1.381,1.3777,1.3648,1.3648,1.3546,1.333,1.1624,0.9239,0.632,0.7413,0.4963,0.0178,0.4277,0.3575,0.0,0.0,0.0,0.0,0.0,0.0,0.0,0.0,0.0,0.0,0.0,0.0,0.0,0.0,0.0,0.0,0.0,0.0,0.0,0.0,0.0,0.0,0.0,0.0,0.0,0.0,0.0,0.0,0.0,0.0,0.0,0.0,0.0,0.0,0.0,0.0,0.0,0.0,0.0,0.0,0.0,0.0,0.0,0.0,0.0,0.0,0.0,0.0,0.0,0.0,0.0,0.0,0.0,0.0,0.0,0.0,0.0,0.0,0.0,0.0,0.0,0.0,0.0,0.0,0.0,0.0,0.0,0.0,0.0,0.0,0.0,0.0,0.0,0.0,0.0,0.0,0.0]}]]